[[{"header":{"parameterUnit":"m.s-1","parameterCategory":1,"la1":31.0,"la2":29.5877,"lo1":-88.7671,"lo2":-86.6584,"dy":0.0162,"dx":0.0185,"nx":115,"ny":88,"refTime":"2024-09-15T18:00:00:Z","depth":0,"parameterNumber":2,"parameterNumberName":"U-component_of_WINDS"},"data":[0.0,0.0,0.0,0.0,0.0,0.0,0.0,0.0,0.0,0.0,0.0,0.0,0.0,0.0,0.0,0.0,0.0,0.0,0.0,0.0,0.0,0.0,0.0,0.0,0.0,0.0,0.0,0.0,0.0,0.0,0.0,0.0,0.0,0.0,0.0,0.0,0.0,0.0,0.0,0.0,0.0,0.0,0.0,0.0,0.0,0.0,0.0,0.0,0.0,0.0,0.0,0.0,0.0,0.0,0.0,0.0,0.0,0.0,0.0,0.0,0.0,0.0,0.0,0.0,0.0,0.0,0.0,0.0,0.0,0.0,0.0,0.0,0.0,0.0,0.0,0.0,0.0,0.0,0.0,0.0,0.0,0.0,0.0,0.0,0.0,0.0,0.0,0.0,0.0,0.0,0.0,0.0,0.0,0.0,0.0,0.0,0.0,0.0,0.0,0.0,0.0,0.0,0.0,0.0,0.0,0.0,0.0,0.0,0.0,0.0,0.0,0.0,0.0,0.0,0.0,0.0,0.0,0.0,0.0,0.0,0.0,0.0,0.0,0.0,0.0,0.0,0.0,0.0,0.0,0.0,0.0,0.0,0.0,0.0,0.0,0.0,0.0,0.0,0.0,0.0,0.0,0.0,0.0,0.0,0.0,0.0,0.0,0.0,0.0,0.0,0.0,0.0,0.0,0.0,0.0,0.0,0.0,0.0,0.0,0.0,0.0,0.0,0.0,0.0,0.0,0.0,0.0,0.0,0.0,0.0,0.0,0.0,0.0,0.0,0.0,0.0,0.0,0.0,0.0,0.0,0.0,0.0,0.0,0.0,0.0,0.0,0.0,0.0,0.0,0.0,0.0,0.0,0.0,0.0,0.0,0.0,0.0,0.0,0.0,0.0,0.0,0.0,0.0,0.0,0.0,0.0,0.0,0.0,0.0,0.0,0.0,0.0,0.0,0.0,0.0,0.0,0.0,0.0,0.0,0.0,0.0,0.0,0.0,0.0,0.0,0.0,0.0,0.0,0.0,0.0,0.0,0.0,0.0,0.0,0.0,0.0,0.0,0.0,0.0,0.0,0.0,0.0,0.0,0.0,0.0,0.0,0.0,0.0,0.0,0.0,0.0,0.0,0.0,0.0,0.0,0.0,0.0,0.0,0.0,0.0,0.0,0.0,0.0,0.0,0.0,0.0,0.0,0.0,0.0,0.0,0.0,0.0,0.0,0.0,0.0,0.0,0.0,0.0,0.0,0.0,0.0,0.0,0.0,0.0,0.0,0.0,0.0,0.0,0.0,0.0,0.0,0.0,0.0,0.0,0.0,0.0,0.0,0.0,0.0,0.0,0.0,0.0,0.0,0.0,0.0,0.0,0.0,0.0,0.0,0.0,0.0,0.0,0.0,0.0,0.0,0.0,0.0,0.0,0.0,0.0,0.0,0.0,0.0,0.0,0.0,0.0,0.0,0.0,0.0,0.0,0.0,0.0,0.0,0.0,0.0,0.0,0.0,0.0,0.0,0.0,0.0,0.0,0.0,0.0,0.0,0.0,0.0,0.0,0.0,0.0,0.0,0.0,0.0,0.0,0.0,0.0,0.0,0.0,0.0,0.0,0.0,0.0,0.0,0.0,0.0,0.0,0.0,0.0,0.0,0.0,0.0,0.0,0.0,0.0,0.0,0.0,0.0,0.0,0.0,0.0,0.0,0.0,0.0,0.0,0.0,0.0,0.0,0.0,0.0,0.0,0.0,0.0,0.0,0.0,0.0,0.0,0.0,0.0,0.0,0.0,0.0,0.0,0.0,0.0,0.0,0.0,0.0,0.0,0.0,0.0,0.0,0.0,0.0,0.0,0.0,0.0,0.0,0.0,0.0,0.0,0.0,0.0,0.0,0.0,0.0,0.0,0.0,0.0,0.0,0.0,0.0,0.0,0.0,0.0,0.0,0.0,0.0,0.0,0.0,0.0,0.0,0.0,0.0,0.0,0.0,0.0,0.0,0.0,0.0,0.0,0.0,0.0,0.0,0.0,0.0,0.0,0.0,0.0,0.0,0.0,0.0,0.0,0.0,0.0,0.0,0.0,0.0,0.0,0.0,0.0,0.0,0.0,0.0,0.0,0.0,0.0,0.0,0.0,0.0,0.0,0.0,0.0,0.0,0.0,0.0,0.0,0.0,0.0,0.0,0.0,0.0,0.0,0.0,0.0,0.0,0.0,0.0,0.0,0.0,0.0,0.0,0.0,0.0,0.0,0.0,0.0,0.0,0.0,0.0,0.0,0.0,0.0,0.0,0.0,0.0,0.0,0.0,0.0,0.0,0.0,0.0,0.0,0.0,0.0,0.0,0.0,0.0,0.0,0.0,0.0,0.0,0.0,0.0,0.0,0.0,0.0,0.0,0.0,0.0,0.0,0.0,0.0,0.0,0.0,0.0,0.0,0.0,0.0,0.0,0.0,0.0,0.0,0.0,0.0,0.0,0.0,0.0,0.0,0.0,0.0,0.0,0.0,0.0,0.0,0.0,0.0,0.0,0.0,0.0,0.0,0.0,0.0,0.0,0.0,0.0,0.0,0.0,0.0,0.0,0.0,0.0,0.0,0.0,0.0,0.0,0.0,0.0,0.0,0.0,0.0,0.0,0.0,0.0,0.0,0.0,0.0,0.0,0.0,0.0,0.0,0.0,0.0,0.0,0.0,0.0,0.0,0.0,0.0,0.0,0.0,0.0,0.0,0.0,0.0,0.0,0.0,0.0,0.0,0.0,0.0,0.0,0.0,0.0,0.0,0.0,0.0,0.0,0.0,0.0,0.0,0.0,0.0,0.0,0.0,0.0,0.0,0.0,0.0,0.0,0.0,0.0,0.0,0.0,0.0,0.0,0.0,0.0,0.0,0.0,0.0,0.0,0.0,0.0,0.0,0.0,0.0,0.0,0.0,0.0,0.0,0.0,0.0,0.0,0.0,0.0,0.0,0.0,0.0,0.0,0.0,0.0,0.0,0.0,0.0,0.0,0.0,0.0,0.0,0.0,0.0,0.0,0.0,0.0,0.0,0.0,0.0,0.0,0.0,0.0,0.0,0.0,0.0,0.0,0.0,0.0,0.0,0.0,0.0,0.0,0.0,0.0,0.0,0.0,0.0,0.0,0.0,0.0,0.0,0.0,0.0,0.0,0.0,0.0,0.0,0.0,0.0,0.0,0.0,0.0,0.0,0.0,0.0,0.0,0.0,0.0,0.0,0.0,0.0,0.0,0.0,0.0,0.0,0.0,0.0,0.0,0.0,0.0,0.0,0.0,0.0,0.0,0.0,0.0,0.0,0.0,0.0,0.0,0.0,0.0,0.0,0.0,0.0,0.0,0.0,0.0,0.0,0.0,0.0,0.0,0.0,0.0,0.0,0.0,0.0,0.0,0.0,0.0,0.0,0.0,0.0,0.0,0.0,0.0,0.0,0.0,0.0,0.0,0.0,0.0,0.0,0.0,0.0,0.0,0.0,0.0,0.0,0.0,0.0,0.0,0.0,0.0,0.0,0.0,0.0,0.0,0.0,0.0,0.0,0.0,0.0,0.0,0.0,0.0,0.0,0.0,0.0,0.0,0.0,0.0,0.0,0.0,0.0,0.0,0.0,0.0,0.0,0.0,0.0,0.0,0.0,0.0,0.0,0.0,0.0,0.0,0.0,0.0,0.0,0.0,0.0,0.0,0.0,0.0,0.0,0.0,0.0,0.0,0.0,0.0,0.0,0.0,0.0,0.0,0.0,0.0,0.0,0.0,0.0,0.0,0.0,0.0,0.0,0.0,0.0,0.0,0.0,0.0,0.0,0.0,0.0,0.0,0.0,0.0,0.0,0.0,0.0,0.0,0.0,0.0,0.0,0.0,0.0,0.0,0.0,0.0,0.0,0.0,0.0,0.0,0.0,0.0,0.0,0.0,0.0,0.0,0.0,0.0,0.0,0.0,0.0,0.0,0.0,0.0,0.0,0.0,0.0,0.0,0.0,0.0,0.0,0.0,0.0,0.0,0.0,0.0,0.0,0.0,0.0,0.0,0.0,0.0,0.0,0.0,0.0,0.0,0.0,0.0,0.0,0.0,0.0,0.0,0.0,0.0,0.0,0.0,0.0,0.0,0.0,0.0,0.0,0.0,0.0,0.0,0.0,0.0,0.0,0.0,0.0,0.0,0.0,0.0,0.0,0.0,0.0,0.0,0.0,0.0,0.0,0.0,0.0,0.0,0.0,0.0,0.0,0.0,0.0,0.0,0.0,0.0,0.0,0.0,0.0,0.0,0.0,0.0,0.0,0.0,0.0,0.0,0.0,0.0,0.0,0.0,0.0,0.0,0.0,0.0,0.0,0.0,0.0,0.0,0.0,0.0,0.0,0.0,0.0,0.0,0.0,0.0,0.0,0.0,0.0,0.0,0.0,0.0,0.0,0.0,0.0,0.0,0.0,0.0,0.0,0.0,0.0,0.0,0.0,0.0,0.0,0.0,0.0,0.0,0.0,0.0,0.0,0.0,0.0,0.0,0.0,0.0,0.0,0.0,0.0,0.0,0.0,0.0,0.0,0.0,0.0,0.0,0.0,0.0,0.0,0.0,0.0,0.0,0.0,0.0,0.0,0.0,0.0,0.0,0.0,0.0,0.0,0.0,0.0,0.0,0.0,0.0,0.0,0.0,0.0,0.0,0.0,0.0,0.0,0.0,0.0,0.0,0.0,0.0,0.0,0.0,0.0,0.0,0.0,0.0,0.0,0.0,0.0,0.0,0.0,0.0,0.0,0.0,0.0,0.0,0.1947,0.1089,0.0408,0.0,0.0,0.0,0.0,0.0,0.0,0.0,0.0,0.0,0.0,0.0,0.0,0.0,0.0,0.0,0.0,0.0,0.0,0.0,0.0,0.0,0.0,0.0,0.0,0.0,0.0,0.0,0.0,0.0,0.0,0.0,0.0,0.0,0.0,0.0,0.0,0.0,0.0,0.0,0.0,0.0,0.0,0.0,0.0,0.0,0.0,0.0,0.0,0.0,0.0,0.0,0.0,0.0,0.0,0.0,0.0,0.0,0.0,0.0,0.0,0.0,0.0,0.0,0.0,0.0,0.0,0.0,0.0,0.0,0.0,0.0,0.0,0.0,0.0,0.0,0.0,0.0,0.0,0.0,0.0,0.0,0.0,0.0,0.0,0.0,0.0,0.0,0.0,0.0,0.0,0.0,0.0,0.0,0.0,0.0,0.0,0.0,0.0,0.0,0.0,0.0,0.0,0.0,0.0,0.0,0.0,0.0,0.0,0.0,0.0,0.0,0.0,0.0,0.0,0.0532,0.0,0.0,0.0,0.0,0.0,0.0,0.0,0.0,0.0,0.0,0.0,0.0,0.0,0.0,0.0,0.0,0.0,0.0,0.0,0.0,0.0,0.0,0.0,0.0,0.0,0.0,0.0,0.0,0.0,0.0,0.0,0.0,0.0,0.0,0.0,0.0,0.0,0.0,0.0,0.0,0.0,0.0,0.0,0.0,0.0,0.0,0.0,0.0,0.0,0.0,0.0,0.0,0.0,0.0,0.0,0.0,0.0,0.0,0.0,0.0,0.0,0.0,0.0,0.0,0.0,0.0,0.0,0.0,0.0,0.0,0.0,0.0,0.0,0.0,0.0,0.0,0.0,0.0,0.0,0.0,0.0,0.0,0.0,0.0,0.0,0.0,0.0,0.0,0.0,0.0,0.0,0.0,0.0,0.0,0.0,0.0,0.0,0.0,0.0,0.0,0.0,0.0,0.0,0.0,0.0,0.0,0.0,0.0,0.0,0.0,0.0,0.0,0.2354,0.2697,0.0943,0.0,0.0,0.0,0.0,0.0,0.0,0.0,0.0,0.0,0.0,0.0,0.0,0.0,0.0,0.0,0.0,0.0,0.0,0.0,0.0,0.0,0.0,0.0,0.0,0.0,0.0,0.0,0.0,0.0,0.0,0.0,0.0,0.0,0.0,0.0,0.0,0.0,0.0,0.0,0.0,0.0,0.0,0.0,0.0,0.0,0.0,0.0,0.0,0.0,0.0,0.0,0.0,0.0,0.0,0.0,0.0,0.0,0.0,0.0,0.0,0.0,0.0,0.0,0.0,0.0,0.0,0.0,0.0,0.0,0.0,0.0,0.0,0.0,0.0,0.0,0.0,0.0,0.0,0.0,0.0,0.0,0.0,0.0,0.0,0.0,0.0,0.0,0.0,0.0,0.0,0.0,0.0,0.0,0.0,0.0,0.0,0.0,0.0,0.0,0.0,0.0,0.0,0.0,0.0,0.0,0.0,0.0,0.0,0.0,0.0,0.0,0.0,0.3003,0.2502,0.084,0.0,0.0,0.0,0.0,0.0,0.0,0.0,0.0,0.0,0.0,0.0,0.0,0.0,0.0,0.0,0.0,0.0,0.0,0.0,0.0,0.0,0.0,0.0,0.0,0.0,0.0,0.0,0.0,0.0,0.0,0.0,0.0,0.0,0.0,0.0,0.0,0.0,0.0,0.0,0.0,0.0,0.0,0.0,0.0,0.0,0.0,0.0,0.0,0.0,0.0,0.0,0.0,0.0,0.0,0.0,0.0,0.0,0.0,0.0,0.0,0.0,0.0,0.0,0.0,0.0,0.0,0.0,0.0,0.0,0.0,0.0,0.0,0.0,0.0,0.0,0.0,0.0,0.0,0.0,0.0,0.0,0.0,0.0,0.0,0.0,0.0,0.0,0.0,0.0,0.0,0.0,0.0,0.0,0.0,0.0,0.0,0.0,0.0,0.0,0.0,0.0,0.0,0.0,0.0,0.0,0.0,0.0,0.0,0.0,0.0,0.0,0.43,0.342,0.2142,0.0751,0.0,0.0,0.0,0.0,0.0,0.0,0.0,0.0,0.0,0.0,0.0,0.0,0.0,0.0,0.0,0.0,0.0,0.0,0.0,0.0,0.0,0.0,0.0,0.0,0.0,0.0,0.0,0.0,0.0,0.0,0.0,0.0,0.0,0.0,0.0,0.0,0.0,0.0,0.0,0.0,0.0,0.0,0.0,0.0,0.0,0.0,0.0,0.0,0.0,0.0,0.0,0.0,0.0,0.0,0.0,0.0,0.0,0.0,0.0,0.0,0.0,0.0,0.0,0.0,0.0,0.0,0.0,0.0,0.0,0.0,0.0,0.0,0.0,0.0,0.0,0.0,0.0,0.0,0.0,0.0,0.0,0.0,0.0,0.0,0.0,0.0,0.0,0.0,0.0,0.0,0.0,0.0,0.0,0.0,0.0,0.0,0.0,0.0,0.0,0.0,0.0,0.0,0.0,0.0,0.0,0.0,0.0,0.0,0.0,0.0,0.0,0.4607,0.3313,0.1871,0.0601,0.0,0.0,0.0,0.0,0.0,0.0,0.0,0.0,0.0,0.0,0.0,0.0,0.0,0.0,0.0,0.0,0.0,0.0,0.0,0.0,0.0,0.0,0.0,0.0,0.0,0.0,0.0,0.0,0.0,0.0,0.0,0.0,0.0,0.0,0.0,0.0,0.0,0.0,0.0,0.0,0.0,0.0,0.0,0.0,0.0,0.0,0.0,0.0,0.0,0.0,0.0,0.0,0.0,0.0,0.0,0.0,0.0,0.0,0.0,0.0,0.0,0.0,0.0,0.0,0.0,0.0,0.0,0.0,0.0,0.0,0.0,0.0,0.0,0.0,0.0,0.0,0.0,0.0,0.0,0.0,0.0,0.0,0.0,0.0,0.0,0.0,0.0,0.0,0.0,0.0,0.0,0.0,0.0,0.0,0.0,0.0,0.0,0.0,0.0,0.0,0.0,0.0,0.0,0.0,0.0,0.0,0.0,0.0,0.0,0.0,0.4907,0.4083,0.3295,0.2506,0.1372,0.0484,0.0,0.0,0.0,0.0,0.0,0.0,0.0,0.0,0.0,0.0,0.0,0.0,0.0,0.0,0.0,0.0,0.0,0.0,0.0,0.0,0.0,0.0,0.0,0.0,0.0,0.0,0.0,0.0,0.0,0.0,0.0,0.0,0.0,0.0,0.0,0.0,0.0,0.0,0.0,0.0,0.0,0.0,0.0,0.0,0.0,0.0,0.0,0.0,0.0,0.0,0.0,0.0,0.0,0.0,0.0,0.0,0.0,0.0,0.0,0.0,0.0,0.0,0.0,0.0,0.0,0.0,0.0,0.0,0.0,0.0,0.0,0.0,0.0,0.0,0.0,0.0,0.0,0.0,0.0,0.0,0.0,0.0,0.0,0.0,0.0,0.0,0.0,0.0,0.0,0.0,0.0,0.0,0.0,0.0,0.0,0.0,0.0,0.0,0.0,0.0,0.0,0.0,0.0,0.0,0.0,0.0,0.0,0.0,0.0,0.4758,0.0,0.361,0.0,0.1893,0.0865,0.0,0.0,0.0,0.0,0.0,0.0,0.0,0.0,0.0,0.0,0.0,0.0,0.0,0.0,0.0,0.0,0.0,0.0,0.0,0.0,0.0,0.0,0.0,0.0,0.0,0.0,0.0,0.0,0.0,0.0,0.0,0.0,0.0,0.0,0.0,0.0,0.0,0.0,0.0,0.0,0.0,0.0,0.0,0.0,0.0,0.0,0.0,0.0,0.0,0.0,0.0,0.0,0.0,0.0,0.0,0.0,0.0,0.0,0.0,0.0,0.0,0.0,0.0,0.0,0.0,0.0,0.0,0.0,0.0,0.0,0.0,0.0,0.0,0.0,0.0,0.0,0.0,0.0,0.0,0.0,0.0,0.0,0.0,0.0,0.0,0.0,0.0,0.0,0.0,0.0,0.0,0.0,0.0,0.0,0.0,0.0,0.0,0.0,0.0,0.0,0.0,0.0,0.0,0.0,0.0,0.0,0.0,0.0,0.4559,0.5318,0.4973,0.4262,0.3371,0.2163,0.1114,0.0,0.0,0.0,0.0,0.0,0.0,0.0,0.0,0.0,0.0,0.0,0.0,0.0,0.0,0.0,0.0,0.0,0.0,0.0,0.0,0.0,0.0,0.0,0.0,0.0,0.0,0.0,0.0,0.0,0.0,0.0,0.0,0.0,0.0,0.0,0.0,0.0,0.0,0.0,0.0,0.0,0.0,0.0,0.0,0.0,0.0,0.0,0.0,0.0,0.0,0.0,0.0,0.0,0.0,0.0,0.0,0.0,0.0,0.0,0.0,0.0,0.0,0.0,0.0,0.0,0.0,0.0,0.0,0.0,0.0,0.0,0.0,0.0,0.0,0.0,0.0,0.0,0.0,0.0,0.0,0.0,0.0,0.0,0.0,0.0,0.0,0.0,0.0,0.0,0.0,0.0,0.0,0.0,0.0,0.0,0.0,0.0,0.0,0.0,0.0,0.0,0.0,0.0,0.0,0.0,0.0,0.0,0.0,0.0,0.3979,0.3363,0.2648,0.1851,0.1446,0.0856,0.0,0.0,0.0,0.0,0.0,0.0,0.0,0.0,0.0,0.0,0.0,0.0,0.0,0.0,0.0,0.0,0.0,0.0,0.0,0.0,0.0,0.0,0.0,0.0,0.0,0.0,0.0,0.0,0.0,0.0,0.0,0.0,0.0,0.0,0.0,0.0,0.0,0.0,0.0,0.0,0.0,0.0,0.0,0.0,0.0,0.0,0.0,0.0,0.0,0.0,0.0,0.0,0.0,0.0,0.0,0.0,0.0,0.0,0.0,0.0,0.0,0.0,0.0,0.0,0.0,0.0,0.0,0.0,0.0,0.0,0.0,0.0,0.0,0.0,0.0,0.0,0.0,0.0,0.0,0.0,0.0,0.0,0.0,0.0,0.0,0.0,0.0,0.0,0.0,0.0,0.0,0.0,0.0,0.0,0.0,0.0,0.0,0.0,0.0,0.0,0.0,0.0,0.0,0.0,0.0,0.0,0.0,0.0,0.0,0.2469,0.2571,0.2126,0.1281,0.1261,0.0864,0.0,0.0,0.0,0.0,0.0,0.0,0.0,0.0,0.0,0.0,0.0,0.0,0.0,0.0,0.0,0.0,0.0,0.0,0.0,0.0,0.0,0.0,0.0,0.0,0.0,0.0,0.0,0.0,0.0,0.0,0.0,0.0,0.0,0.0,0.0,0.0,0.0,0.0,0.0,0.0,0.0,0.0,0.0,0.0,0.0,0.0,0.0,0.0,0.0,0.0,0.0,0.0,0.0,0.0,0.0,0.0,0.0,0.0,0.0,0.0,0.0,0.0,0.0,0.0,0.0,0.0,0.0,0.0,0.0,0.0,0.0,0.0,0.0,0.0,0.0,0.0,0.0,0.0,0.0,0.0,0.0,0.0,0.0,0.0,0.0,0.0,0.0,0.0,0.0,0.0,0.0,0.0,0.0,0.0,0.0,0.0,0.0,0.0,0.0,0.0,0.0,0.0,0.0,0.0,0.0,0.0,0.0,0.0,0.0,0.0909,0.2149,0.2346,0.1507,0.1395,0.0949,0.0,0.0,0.0,0.0,0.0,0.0,0.0,0.0,0.0,0.0,0.0,0.0,0.0,0.0,0.0,0.0,0.0,0.0,0.0,0.0,0.0,0.0,0.0,0.0,0.0,0.0,0.0,0.0,0.0,0.0,0.0,0.0,0.0,0.0,0.0,0.0,0.0,0.0,0.0,0.0,0.0,0.0,0.0,0.0,0.0,0.0,0.0,0.0,0.0,0.0,0.0,0.0,0.0,0.0,0.0,0.0,0.0,0.0,0.0,0.0,0.0,0.0,0.0,0.0,0.0,0.0,0.0,0.0,0.0,0.0,0.0,0.0,0.0,0.0,0.0,0.0,0.0,0.0,0.0,0.0,0.0,0.0,0.0,0.0,0.0,0.0,0.0,0.0,0.0,0.0,0.0,0.0,0.0,0.0,0.0,0.0,0.0,0.0,0.0,0.0,0.0,0.0,0.0,0.0,0.0,0.0,0.0,0.0,0.0,-0.119,-0.0865,-0.0359,0.0355,-0.0554,-0.0733,0.0,0.0,0.0,0.0,0.0,0.0,0.0,0.0,0.0,0.0,0.0,0.0,0.0,0.0,0.0,0.0,0.0,0.0,0.0,0.0,0.0,0.0,0.0,0.0,0.0,0.0,0.0,0.0,0.0,0.0,0.0,0.0,0.0,0.0,0.0,0.0,0.0,0.0,0.0,0.0,0.0,0.0,0.0,0.0,0.0,0.0,0.0,0.0,0.0,0.0,0.0,0.0,0.0,0.0,0.0,0.0,0.0,0.0,0.0,0.0,0.0,0.0,0.0,0.0,0.0,0.0,0.0,0.0,0.0,0.0,0.0,0.0,0.0,0.0,0.0,0.0,0.0,0.0,0.0,0.0,0.0,0.0,0.0,0.0,0.0,0.0,0.0,0.0,0.0,0.0,0.0,0.0,0.0,0.0,0.0,0.0,0.0,0.0,0.0,0.0,0.0,0.0,0.0,0.0,0.0,0.0,0.0,0.0,-0.2503,-0.194,-0.3014,-0.2466,-0.0095,-0.0768,-0.1014,0.0,0.0,0.0,0.0,0.0,0.0,0.0,0.0,0.0,0.0,0.0,0.0,0.0,0.0,0.0,0.0,0.0,0.0,0.0,0.0,0.0,0.0,0.0,0.0,0.0,0.0,0.0,0.0,0.0,0.0,0.0,0.0,0.0,0.0,0.0,0.0,0.0,0.0,0.0,0.0,0.0,0.0,0.0,0.0,0.0,0.0,0.0,0.0,0.0,0.0,0.0,0.0,0.0,0.0,0.0,0.0,0.0,0.0,0.0,0.0,0.0,0.0,0.0,0.0,0.0,0.0,0.0,0.0,0.0,0.0,0.0,0.0,0.0,0.0,0.0,0.0,0.0,0.0,0.0,0.0,0.0,0.0,0.0,0.0,0.0,0.0,0.0,0.0,0.0,0.0,0.0,0.0,0.0,0.0,0.0,0.0,0.0,0.0,0.0,0.0,0.0,0.0,0.0,0.0,0.0,0.0,0.0,0.0,-0.3095,-0.205,-0.4252,-0.3798,-0.0587,-0.0273,-0.0656,0.0,0.0,0.0,0.0,0.0,0.0,0.0,0.0,0.0,0.0,0.0,0.0,0.0,0.0,0.0,0.0,0.0,0.0,0.0,0.0,0.0,0.0,0.0,0.0,0.0,0.0,0.0,0.0,0.0,0.0,0.0,0.0,0.0,0.0,0.0,0.0,0.0,0.0,0.0,0.0,0.0,0.0,0.0,0.0,0.0,0.0,0.0,0.0,0.0,0.0,0.0,0.0,0.0,0.0,0.0,0.0,0.0,0.0,0.0,0.0,0.0,0.0,0.0,0.0,0.0,0.0,0.0,0.0,0.0,0.0,0.0,0.0,0.0,0.0,0.0,0.0,0.0,0.0,0.0,0.0,0.0,0.0,0.0,0.0,0.0,0.0,0.0,0.0,0.0,0.0,0.0,0.0,0.0,0.0,0.0,0.0,0.0,0.0,0.0,0.0,0.0,0.0,0.0,0.0,0.0,0.0,0.0,0.0,-0.271,-0.3299,-0.2988,-0.2882,-0.3032,-0.2026,-0.1182,0.0,0.0,0.0,0.0,0.0,0.0,0.0,0.0,0.0,0.0,0.0,0.0,0.0,0.0,0.0,0.0,0.0,0.0,0.0,0.0,0.0,0.0,0.0,0.0,0.0,0.0,0.0,0.0,0.0,0.0,0.0,0.0,0.0,0.0,0.0,0.0,0.0,0.0,0.0,0.0,0.0,0.0,0.0,0.0,0.0,0.0,0.0,0.0,0.3874,0.0,0.0,0.0,0.0,0.0,0.0,0.0,0.0,0.0,0.0,0.0,0.0,0.0,0.0,0.0,0.0,0.0,0.0,0.0,0.0,0.0,0.0,0.0,0.0,0.0,0.0,0.0,0.0,0.0,0.0,0.0,0.0,0.0,0.0,0.0,0.0,0.0,0.0,0.0,0.0,0.0,0.0,0.0,0.0,0.0,0.0,0.0,0.0,0.0,0.0,0.0,0.0,0.0,0.0,0.0,0.0,0.0,0.0,0.0,-0.2311,-0.2791,-0.2263,-0.2009,-0.1982,-0.142,-0.0957,0.0,0.0,0.0,0.0,0.0,0.0,0.0,0.0,0.0,0.0,0.0,0.0,0.0,0.0,0.0,0.0,0.0,0.0,0.0,0.0,0.0,0.0,0.0,0.0,0.0,0.0,0.0,0.0,0.0,0.0,0.0,0.0,0.0,0.0,0.0,0.0,0.0,0.0,0.0,0.0,0.0,0.0,0.0,0.0,0.0,0.0,0.0,0.0,0.0,0.0,0.0,0.0,0.0,0.0,0.0,0.0,0.0,0.0,0.0,0.0,0.0,0.0,0.0,0.0,0.0,0.0,0.0,0.0,0.0,0.0,0.0,0.0,0.0,0.0,0.0,0.0,0.0,0.0,0.0,0.0,0.0,0.0,0.0,0.0,0.0,0.0,0.0,0.0,0.0,0.0,0.0,0.0,0.0,0.0,0.0,0.0,0.0,0.0,0.0,0.0,0.0,0.0,0.0,0.0,0.0,0.0,0.0,-0.1709,-0.1703,-0.184,-0.1698,-0.111,0.0,0.0,-0.0444,-0.1294,0.0,0.0,0.0,0.0,0.0,0.0,0.0,0.0,0.0,0.0,0.0,0.0,0.0,0.0,0.0,0.0,0.0,0.0,0.0,0.0,0.0,0.0,0.0,0.0,0.0,0.0,0.0,0.0,0.0,0.0,0.0,0.0,0.0,0.0,0.0,0.0,0.0,0.0,0.3906,0.3313,0.0,0.0,0.0,0.0,0.0,0.0,0.0,0.0,0.2106,0.0,0.0,0.0,0.0,0.0,0.0,0.0,0.0,0.0,0.0,0.0,0.0,0.0,0.0,0.0,0.0,0.0,0.0,0.0,0.0,0.0,0.0,0.0,0.0,0.0,0.0,0.0,0.0,0.0,0.0,0.0,0.0,0.0,0.0,0.0,0.0,0.0,0.0,0.0,0.0,0.0,0.0,0.0,0.0,0.0,0.0,0.0,0.0,0.0,0.0,0.0,0.0,0.0,0.0,0.0,0.0,-0.1757,-0.0862,-0.0834,-0.1715,-0.0794,-0.0201,0.0,0.0,0.0175,0.0609,0.0,0.0,0.0,0.0,0.0,0.0,0.0,0.0,0.0,0.0,0.0,0.0,0.0,0.0,0.0,0.0,0.0,0.0,0.0,0.0,0.0,0.0,0.0,0.0,0.0,0.0,0.0,0.0,0.0,0.0,0.0,0.0,0.0,0.0,0.0,0.0,0.0,0.0,0.0,0.3904,0.3378,0.0,0.0,0.0,0.0,0.0,0.0,0.0,0.0,0.0304,0.0,0.0,0.0,0.0,0.0,0.0,0.0,0.0,0.0,0.0,0.0,0.0,0.0,0.0,0.0,0.0,0.0,0.0,0.0,0.0,0.0,0.0,0.0,0.0,0.0,0.0,0.0,0.0,0.0,0.0,0.0,0.0,0.0,0.0,0.0,0.0,0.0,0.0,0.0,0.0,0.0,0.0,0.0,0.0,0.0,0.0,0.0,0.0,0.0,0.0,0.0,0.0,0.0,0.0,0.0,-0.0776,-0.0321,-0.0259,-0.0867,-0.0293,0.0,0.0,0.0366,0.0925,0.0,0.0,0.0,0.0,0.0,0.0,0.0,0.0,0.0,0.0,0.0,0.0,0.0,0.0,0.0,0.0,0.0,0.0,0.0,0.0,0.0,0.0,0.0,0.0,0.0,0.0,0.0,0.0,0.0,0.0,0.0,0.0,0.0,0.0,0.0,0.0,0.0,0.0,0.0,0.0,0.4489,0.411,0.3529,0.0,0.0,0.0,0.0,0.0,0.0,0.0888,0.0,0.0,0.0,0.0,0.0,0.0,0.0,0.0,0.0,0.0,0.0,0.0,0.0,0.0,0.0,0.0,0.0,0.0,0.0,0.0,0.0,0.0,0.0,0.0,0.0,0.0,0.0,0.0,0.0,0.0,0.0,0.0,0.0,0.0,0.0,0.0,0.0,0.0,0.0,0.0,0.0,0.0,0.0,0.0,0.0,0.0,0.0,0.0,0.0,0.0,0.0,0.0,0.0,0.0,0.0,0.0,0.0,0.0,0.0,0.0,0.0,0.0096,0.0387,0.0885,0.1541,0.0,0.0,0.0,0.0,0.0,0.0,0.0,0.0,0.0,0.0,0.0,0.0,0.0,0.0,0.0,0.0,0.0,0.0,0.0,0.0,0.0,0.0,0.0,0.0,0.0,0.0,0.0,0.0,0.0,0.0,0.0,0.0,0.0,0.0,0.0,0.0,0.0,0.0,0.0,0.0,0.0,0.4425,0.3742,0.3213,0.0,0.0,0.0,0.0,0.1376,0.0596,0.0,0.0,0.0,0.0,0.0,0.0,0.0,0.0,0.0,0.0,0.0,0.0,0.0,0.0,0.0,0.0,0.0,0.0,0.0,0.0,0.0,0.0,0.0,0.0,0.0,0.0,0.0,0.0,0.0,0.0,0.0,0.0,0.0,0.0,0.0,0.0,0.0,0.0,0.0,0.0,0.0,0.0,0.0,0.0,0.0,0.0,0.0,0.0,0.0,0.0,0.0,0.0,0.0,0.0,0.0,0.0,0.0,0.0,0.0,0.0,0.0,0.0473,0.1581,0.1395,0.2093,0.0,0.0,0.0,0.0,0.0,0.0,0.0,0.0,0.0,0.0,0.0,0.0,0.0,0.0,0.0,0.0,0.0,0.0,0.0,0.0,0.0,0.0,0.0,0.0,0.0,0.0,0.0,0.0,0.0,0.0,0.0,0.0,0.0,0.0,0.0,0.0,0.0,0.0,0.0,0.0,0.0,0.3808,0.3617,0.2386,0.1553,0.0,0.0,0.1375,0.1497,0.0656,0.0,0.0,0.0,0.0,0.0,0.0,0.0,0.0,0.0,0.0,0.0,0.0,0.0,0.0,0.0,0.0,0.0,0.0,0.0,0.0,0.0,0.0,0.0,0.0,0.0,0.0,0.0,0.0,0.0,0.0,0.0,0.0,0.0,0.0,0.0,0.0,0.0,0.0,0.0,0.0,0.0,0.0,0.0,0.0,0.0,0.0,0.0,0.0,0.0,0.0,0.0,0.0,0.0,0.0,0.0,0.0251,0.0,0.0,0.0,0.0,0.0645,0.1281,0.1723,0.2495,0.3341,0.0,0.0,0.0,0.0,0.0,0.0,0.0,0.0,0.0,0.0,0.0,0.0,0.0,0.0,0.0,0.0,0.0,0.0,0.0,0.0,0.0,0.0,0.0,0.0,0.0,0.0,0.0,0.0,0.0,0.0,0.0,0.0,0.0,0.0,0.0,0.0,0.0,0.0,0.0,0.0,0.0,0.0,0.2702,0.1521,0.0,0.0,0.0,0.0578,0.0687,0.0,0.0,0.0,0.0,0.0,0.0,0.0,0.0,0.0,0.0,0.0,0.0,0.0,0.0,0.0,0.0,0.0,0.0,0.0,0.0,0.0,0.0,0.0,0.0,0.0,0.0,0.0,0.0,0.0,0.0,0.0,0.0,0.0,0.0,0.0,0.0,0.0,0.0,0.0,0.0,0.0,0.0,0.0,0.0,0.0,0.0,0.0,0.0,0.0,0.0,0.0,0.0,0.0,0.0,0.0,0.0,0.0,0.0,0.0,0.0,0.0,0.115,0.184,0.2021,0.3567,0.0,0.0,0.0,0.0,0.0,0.0,0.0,0.0,0.0,0.0,0.0,0.0,0.0,0.0,0.0,0.0,0.0,0.0,0.0,0.0,0.0,0.0,0.0,0.0,0.0,0.0,0.0,0.4082,0.0,0.0,0.0,0.0,0.0,0.0,0.0,0.0,0.0,0.0,0.0,0.0,0.0,0.0,0.1018,0.089,-0.0295,-0.0987,0.0,0.0,-0.0404,0.0,0.0,0.0,0.0,0.0,0.0,0.0,0.0,0.0,0.0,0.0,0.0,0.0,0.0,0.0,0.0,0.0,0.0,0.0,0.0,0.0,0.0,0.0,0.0,0.0,0.0,0.0,0.0,0.0,0.0,0.0,0.0,0.0,0.0,0.0,0.0,0.0,0.0,0.0,0.0,0.0,0.0,0.0,0.0,0.0,0.0,0.0,0.0,0.0,0.0,0.0,0.0,0.0,0.0,0.0,0.0,0.0,0.0,0.0,0.0,0.0,0.0,0.1081,0.2073,0.3191,0.4434,0.5367,0.0,0.0,0.0,0.0,0.0,0.0,0.0,0.0,0.0,0.0,0.0,0.0,0.0,0.0,0.0,0.0,0.0,0.0,0.0,0.0,0.0,0.0,0.0,0.0,0.0,0.0,0.0,0.0,0.0,0.0,0.0,0.0,0.0,0.0,0.0,0.0,0.0,0.0,0.0,0.0,0.0,-0.076,-0.2235,-0.3467,-0.3691,0.0,-0.204,-0.161,-0.0208,0.0,0.0,0.0,0.0,0.0,0.0,0.0,0.0,0.0,0.0,0.0,0.0,0.0,0.0,0.0,0.0,0.0,0.0,0.0,0.0,0.0,0.0,0.0,0.0,0.0,0.0,0.0,0.0,0.0,0.0,0.0,0.0,0.0,0.0,0.0,0.0,0.0,0.0,0.0,0.0,0.0,0.0,0.0,0.0,0.0,0.0,0.0,0.0,0.0,0.0,0.0,0.0,0.0,0.0,0.0,0.0,0.0714,0.0,0.0,0.0,0.0,0.1751,0.2895,0.3198,0.5287,0.653,0.0,0.0,0.0,0.0,0.0,0.0,0.0,0.0,0.0,0.0,0.0,0.0,0.0,0.0,0.0,0.0,0.0,0.0,0.0,0.0,0.0,0.0,0.0,0.0,0.0,0.0,0.0,0.0,0.2893,0.334,0.4376,0.0,0.0,0.0,0.0,0.0,0.0,0.0,0.0,0.0,0.0,-0.6588,-0.6461,-0.6746,0.0,0.0,-0.3334,-0.1949,-0.1375,-0.0529,0.0,0.0,0.0,0.0,0.0,0.0,0.0,0.0,0.0,0.0,0.0,0.0,0.0,0.0,0.0,0.0,0.0,0.0,0.0,0.0,0.0,0.0,0.0,0.0,0.0,0.0,0.0,0.0,0.0,0.0,0.0,0.0,0.0,0.0,0.0,0.0,0.0,0.0,0.0,0.0,0.0,0.0,0.0,0.0,0.0,0.0,0.0,0.0,0.0,0.0,0.0,0.0,0.0,0.0,0.0,0.0983,0.0346,0.0149,0.0157,0.0494,0.23,0.341,0.3565,0.5871,0.7,0.0,0.0,0.0,0.0,0.0,0.0,0.0,0.0,0.0,0.0,0.0,0.0,0.0,0.0,0.0,0.0,0.0,0.0,0.0,0.0,0.0,0.0,0.0,0.0,0.0,0.0,0.0,0.0,0.2379,0.297,0.4254,0.0,0.0,0.0,0.0,0.0,0.0,0.0,0.0,0.0,0.0,-1.0215,-0.9884,-0.9721,-0.9246,-0.7767,-0.5854,-0.4386,-0.3888,-0.2715,-0.1735,-0.1247,0.0,0.0,0.0,0.0,0.0,0.0,0.0,0.0,0.0,0.0,0.0,0.0,0.0,0.0,0.0,0.0,0.0,0.0,0.0,0.0,0.0,0.0,0.0,0.0,0.0,0.0,0.0,0.4208,0.0,0.0,0.1833,0.0,0.0,0.0,0.0,0.0,0.0,0.0,0.0,0.0,0.0,0.0,0.0,0.0,0.0,0.0,0.0,0.0,0.0,0.0,0.0,0.0,0.0,0.123,0.1074,0.0356,0.0449,0.149,0.2584,0.3557,0.4375,0.5944,0.6428,0.588,0.0,0.0,0.0,0.0,0.0,0.0,0.0,0.0,0.0,0.0,0.0,0.0,0.0,0.0,0.0,0.0,0.0,0.0,0.0,0.0,0.0,0.0,0.0,0.0,0.0,0.0,0.0998,0.1059,0.1462,0.0,0.0,0.0,0.0,0.0,0.0,0.0,0.0,0.0,0.0,-1.0031,-1.0761,-1.2014,-1.2263,-1.1868,-1.0376,-1.0067,-0.9484,-0.8076,-0.6847,-0.5546,0.0,0.0,0.0,0.0,0.0,0.0,0.0,0.0,0.0,0.0,0.0,0.0,0.0,0.0,0.0,0.0,0.0,0.0,0.0,0.0,0.0,0.0,0.0,0.0,0.0,0.0,0.0,0.1419,0.1875,0.0,0.0,0.0,0.0,0.0,0.0,0.0,0.0,0.0,0.0,0.0,-0.1227,-0.165,0.0,0.0,0.0,0.0,0.0,0.0,0.0,0.0,0.0,0.0,0.0,0.0,0.0728,0.0401,0.0142,0.0149,0.0548,0.2157,0.3107,0.3434,0.5621,0.6625,0.621,0.0,0.0,0.0,0.0,0.0,0.0,0.0,0.0,0.0,0.0,0.0,0.0,0.0,0.0,0.0,0.0,0.0,0.0,0.0,0.0,0.0,0.0,0.0,0.0,0.0,0.1569,0.0,0.0,0.0,0.0,0.0,0.0,0.0,0.0,0.0,0.0,0.0,-1.0135,-1.2305,-1.4235,-1.5422,-1.5524,-1.622,-1.622,0.0,0.0,0.0,0.0,0.0,0.0,0.0,0.0,0.0,0.0,0.0,0.0,0.0,0.0,0.0895,0.0846,0.135,0.17,0.1611,0.0,0.0,0.0,0.0,0.0,0.0,0.0,0.0,0.0,0.0,0.0,0.0,0.0,0.0,-0.1302,0.0,0.0338,0.0,0.0,0.0,0.0,0.0,0.0,0.0,0.0,-0.3318,-0.334,-0.2706,-0.3263,-0.2529,0.0,-0.206,-0.2428,0.0,0.0,0.0,0.0,0.0,0.0,0.0,0.0,0.0281,0.033,-0.014,-0.0147,0.061,0.2103,0.3031,0.3346,0.5267,0.601,0.5497,0.519,0.4737,0.0,0.0,0.0,0.0,0.0,0.0,0.0,0.0,0.0,0.0,0.0,0.0,0.0,0.0,0.0,0.0,0.0,0.0,0.0,0.0,0.0,0.0,0.0,0.0342,0.0,0.0,0.0,0.0,0.0,0.0,0.0,0.0,0.0,-1.0914,-1.1628,-1.2667,-1.449,-1.6198,-1.7376,-1.7701,0.0,0.0,0.0,0.0,0.0,0.0,0.0,-1.4536,-1.4389,-1.1448,-0.8748,-0.7529,-0.5229,-0.3201,-0.2742,0.0,0.0,-0.0106,0.0514,0.0819,0.0824,0.1605,0.1974,0.1081,0.1121,0.1041,0.0,0.0,0.0,0.0,0.0,0.0,0.0,0.0,-0.131,-0.4126,0.0,-0.3227,0.0,0.0,0.0,0.0,0.0,-0.3508,0.0,0.0,-0.5533,-0.5317,-0.4866,-0.4697,-0.3784,-0.2453,-0.4153,-0.5872,-0.7149,-0.4123,0.0,0.0,0.0,0.0,0.0,0.0,-0.0227,0.0837,-0.0613,-0.0425,0.1307,0.2322,0.3222,0.4114,0.4701,0.462,0.3761,0.392,0.3884,0.3475,0.3411,0.0,0.0,0.0,0.0,0.0,0.0,0.0,0.0,0.0,0.0,0.0,0.0,0.0,0.0,0.0,0.0,0.0,0.0,0.0,0.0,-0.1393,0.0,0.0,0.0,0.0,0.0,0.0,0.0,0.0,0.0,0.0,-1.4401,-1.3881,-1.4044,-1.6009,0.0,0.0,0.0,0.0,-1.9081,-2.0691,-2.2371,-2.3518,-2.3537,-2.2955,-2.2055,-2.0576,0.0,0.0,-0.8423,-0.6341,-0.48,-0.3196,-0.2918,-0.2244,-0.0513,-0.0123,0.0,0.0,0.0,0.0,0.0,0.0,0.0,1.8368,0.0,0.0,0.0,0.0,0.3311,0.1576,-0.0337,-0.269,-0.4837,-0.6816,-0.8609,0.0,0.0,0.0,0.0,0.0,0.0,-0.5908,-0.6852,-0.7342,-0.7715,-0.7926,-0.6748,-0.5449,-0.4222,-0.6418,-0.7633,-0.7862,-0.7715,-0.639,-0.4041,0.0,0.0,0.0,0.0,-0.2337,-0.171,-0.2057,-0.2038,-0.1497,0.0071,0.1599,0.3119,0.3268,0.298,0.2048,0.2111,0.1719,0.0949,0.1522,0.0,0.0,0.0,0.0,0.0,0.0,0.0,0.0,0.0,0.0,0.0,0.0,0.0,0.0,0.0,0.0,0.0,0.0,0.0,-0.0872,-0.1949,-0.2948,0.0,0.0,0.0,0.0,0.0,0.0,0.0,0.0,0.0,-1.5077,-1.5147,-1.5363,0.0,0.0,-1.796,-1.8626,-2.0419,-2.2011,-2.3158,-2.5391,0.0,-2.7354,-2.7114,-2.6428,-2.546,-2.1068,-1.635,-1.1922,-0.9718,-0.8201,-0.6682,-0.5461,-0.4072,-0.2246,-0.0899,0.0,0.0,0.0,0.0,0.0,0.0,0.0,1.979,1.5571,1.2203,0.8329,0.4417,0.28,0.0912,-0.1338,-0.3475,-0.5446,-0.7402,-1.0549,-1.2521,-1.3428,-1.1866,0.0,0.0,0.0,-0.7867,-0.9105,-0.9743,-1.0234,-1.0564,-1.0165,-0.8601,-0.6333,-0.9126,-1.032,-0.998,-1.0244,-0.9549,-0.7878,0.0,0.0,-0.4525,-0.4622,-0.438,-0.3779,-0.4102,-0.4104,-0.3717,-0.1982,-0.0338,0.1061,0.1181,0.0834,-0.0062,-0.0302,-0.0752,-0.1363,-0.0932,0.0148,0.0,0.0,0.0,0.0,0.0,0.0,0.0,0.0,0.0,0.0,0.0,0.0184,0.0544,0.0,0.0,0.0,-0.0924,-0.1755,-0.2651,-0.3872,0.0,0.0,0.0,0.0,0.0,0.0,0.0,-1.1884,-1.3632,-1.503,-1.5712,-1.6019,-1.6286,-1.658,-1.735,-1.8059,-1.8899,0.0,-2.2707,-2.3844,-2.6705,-2.8736,-2.9,-2.9151,-2.8731,-2.7103,-2.3178,-1.9203,-1.5957,-1.2978,-1.0612,-0.9059,-0.7429,-0.5859,-0.4021,-0.2892,-0.1553,0.0,0.0,0.0,0.0,0.0,0.0,2.0056,1.9891,1.4578,0.9325,0.4354,0.1994,-0.0162,-0.2117,-0.36,-0.5676,-0.8262,-0.9919,-1.254,-1.5478,-1.2178,0.0,-1.0181,-0.9222,-0.9901,-1.1966,-1.2522,-1.2916,-1.3145,-1.4337,-1.2777,-0.8877,-1.2051,-1.3493,-1.3083,-1.1991,-1.1755,-1.2282,-1.0181,-0.8355,-0.6916,-0.6948,-0.6569,-0.5755,-0.6506,-0.6465,-0.5531,-0.3825,-0.25,-0.1632,-0.1337,-0.1633,-0.2509,-0.3078,-0.3483,-0.3693,-0.3767,-0.3007,-0.1488,0.0,0.0,0.0,0.0,0.0,0.0,0.0,0.0,0.0,0.0,0.0,0.0,0.0,0.0,0.0,-0.2012,0.0,-0.5304,-0.6457,0.0,0.0,0.0,-1.0544,-1.0143,-1.2506,-1.3724,-1.2667,0.0,0.0,-1.6319,-1.6461,-1.6605,-1.6998,-1.6832,-1.7454,-1.9302,-2.0443,-2.1677,-2.332,-2.6427,-2.8582,-2.8497,-2.9239,-2.911,-2.6821,-2.3706,-2.1321,-1.9325,-1.5844,-1.2482,-1.0739,-0.9136,-0.75,-0.5872,-0.5471,-0.4554,-0.1207,0.0,0.0,0.0,0.0,0.0,1.9336,2.0997,1.4794,0.9447,0.5002,0.2841,0.0995,-0.0612,-0.2104,-0.3395,-0.4683,-0.7866,-0.9178,-0.8937,-0.919,-0.9768,-1.0631,-1.0838,-1.2006,-1.3838,-1.4789,-1.5917,-1.7127,-1.6833,-1.6207,-1.5342,-1.487,-1.4702,-1.4768,-1.3305,-1.3262,-1.4439,-1.3362,-1.1791,-0.9897,-1.0017,-0.9833,-0.922,-0.9418,-0.8747,-0.7205,-0.6185,-0.509,-0.4014,-0.3924,-0.4375,-0.5405,-0.5596,-0.6202,-0.734,-0.6385,-0.5606,-0.5251,-0.3581,0.0,0.0,0.0,0.0,0.0,0.0,0.0,0.0,0.0,-0.2252,-0.2258,0.0,-0.2934,0.0,-0.3672,-0.4516,-0.6336,-0.6876,0.0,0.0,-1.1407,-1.2039,-1.3568,-1.4361,-1.4714,-1.4578,-1.5279,-1.5858,-1.5959,-1.5388,-1.5155,-1.5524,-1.6639,-1.7853,-1.9095,-1.9725,-2.0641,-2.2289,-2.4161,-2.5588,-2.621,-2.761,-2.8404,-2.7777,-2.6055,-2.3751,-2.0034,-1.7482,-1.5064,-1.2624,-1.081,-0.9215,-0.7498,-0.7252,-0.6491,-0.4546,-0.3087,-0.1613,0.0,0.0,0.0,1.6243,1.5883,1.3567,1.0542,0.7045,0.4375,0.2327,0.0939,0.0438,-0.0216,-0.1108,-0.4237,-0.5589,-0.5736,-0.8278,-1.0105,-1.1258,-1.1877,-1.3347,-1.5415,-1.6225,-1.7652,-1.9594,-1.9081,-1.9061,-1.9358,-1.7809,-1.6483,-1.543,-1.4815,-1.4836,-1.5342,-1.4866,-1.4206,-1.3361,-1.3168,-1.3024,-1.2957,-1.2966,-1.2198,-1.065,-0.9599,-0.8488,-0.7163,-0.7091,-0.7391,-0.7964,-0.8298,-0.8862,-0.965,-0.8724,-0.7936,-0.7523,-0.6552,-0.5996,0.0,0.0,0.0,0.0,0.0,0.0,0.0,0.0,0.0,0.0,0.0,-0.5321,-0.5644,-0.5071,-0.5322,-0.6974,-0.8131,-0.9658,-1.198,-1.2843,-1.3814,-1.507,-1.5264,-1.5391,-1.5498,-1.5207,-1.491,-1.488,-1.4126,-1.3661,-1.4007,-1.4873,-1.5755,-1.6456,-1.718,-1.8053,-1.9038,-2.0462,-2.2012,-2.3319,-2.5495,-2.7053,-2.7125,-2.6553,-2.4974,-2.1842,-1.8816,-1.6198,-1.4052,-1.1783,-0.9966,-0.9071,-0.9018,-0.8418,-0.6889,-0.5738,-0.4154,-0.1746,-0.121,-0.1075,1.2175,0.8478,1.1379,1.1725,1.0038,0.7062,0.4754,0.3148,0.3753,0.3541,0.2544,-0.029,-0.3058,-0.5846,-0.9175,-1.1217,-1.2021,-1.2385,-1.383,-1.6173,-1.6918,-1.8495,-2.0694,-2.092,-2.1323,-2.1786,-2.0409,-1.8193,-1.5449,-1.5843,-1.5786,-1.5391,-1.5284,-1.5728,-1.6595,-1.5894,-1.5828,-1.6403,-1.6314,-1.5649,-1.4372,-1.3061,-1.1697,-1.0422,-1.0331,-1.0333,-1.0475,-1.0955,-1.1372,-1.1705,-1.1104,-1.0288,-0.9351,-0.9718,-0.998,0.0,-0.9456,0.0,0.0,0.0,0.0,0.0,0.0,0.0,0.0,-0.7588,-0.7968,-0.7171,-0.6172,-0.6095,-0.748,-0.9428,-1.1058,-1.2267,-1.4077,-1.5219,-1.5458,-1.549,-1.5534,-1.5439,-1.4364,-1.3602,-1.3353,-1.2589,-1.2158,-1.2123,-1.2002,-1.1981,-1.2285,-1.3597,-1.4893,-1.501,-1.6349,-1.84,-2.0528,-2.2954,-2.4817,-2.5513,-2.5937,-2.5436,-2.3599,-1.9981,-1.6569,-1.4927,-1.2086,-1.0073,-1.0222,-1.0348,-0.9909,-0.8367,-0.8047,-0.7053,-0.4019,-0.3088,-0.2418,0.9406,0.5607,0.8359,1.1256,1.3907,1.3266,1.1101,0.8086,0.8366,0.7983,0.6639,0.1078,-0.5844,-1.3151,-1.3466,-1.3401,-1.3163,-1.1756,-1.2319,-1.4541,-1.669,-1.8438,-1.9908,-2.1898,-2.2778,-2.2609,-2.0552,-1.8089,-1.5235,-1.4168,-1.4227,-1.5264,-1.4662,-1.5351,-1.7291,0.0,0.0,0.0,-1.6961,-1.6192,-1.5848,-1.4185,-1.2954,-1.2261,-1.1952,0.0,-1.3533,-1.3297,-1.3832,-1.5199,-1.4306,0.0,0.0,0.0,0.0,0.0,0.0,0.0,0.0,0.0,0.0,0.0,-1.3841,-1.2404,-0.9499,-0.9948,-0.9512,-0.7513,-0.6747,-0.6863,-0.8146,-0.8843,-1.0236,-1.2748,-1.3469,-1.4241,-1.5516,-1.4823,-1.4172,-1.3686,-1.2813,-1.196,-1.1334,-1.087,-1.026,-0.9267,-0.828,-0.7375,-0.6413,-0.9511,-1.221,-1.3465,-1.4049,-1.5528,-1.8245,-1.9347,-2.1038,-2.3143,-2.5013,-2.4576,-2.2479,-2.0295,-1.7627,-1.511,-1.2026,-0.9917,-1.0063,-1.0117,-1.0062,-0.9784,-0.9829,-0.8866,-0.5603,-0.4961,-0.4292,0.5254,0.163,0.5891,0.8704,0.0,1.2745,1.3405,1.2818,1.2398,1.2758,1.2941,0.3013,-0.8313,-1.9933,-1.7051,-1.6112,-1.6559,-1.5562,-1.6146,-1.8099,-1.8954,-2.0147,-2.1612,-2.2239,-2.279,-2.3144,-2.0372,-1.733,-1.4191,-1.369,-1.3742,-1.4159,-1.3742,-1.4309,-1.5867,-1.6254,-1.7126,-1.8643,-1.8235,-1.7836,-1.7476,-1.6106,-1.4911,-1.4047,-1.389,0.0,0.0,0.0,0.0,0.0,0.0,0.0,0.0,0.0,0.0,-1.4853,-1.441,-1.4487,-1.5299,-1.5496,-1.6094,-1.7309,-1.7446,-1.602,-1.2738,-1.1689,-1.0785,-0.9803,-0.8012,-0.7333,-0.8397,-0.8965,-0.9768,-1.1166,-1.2135,-1.2975,-1.3669,-1.3301,-1.2813,-1.2522,-1.1653,-1.0779,-1.0386,-0.8962,-0.7912,-0.7214,-0.6092,-0.4825,-0.3917,-0.5824,-0.8116,-0.8965,-1.0468,-1.1881,-1.3597,-1.5999,-1.7972,-2.0448,-2.2185,-2.2597,-2.1387,-1.9323,-1.699,-1.4646,-1.1906,-0.9852,-0.9917,-0.9995,-1.0076,-1.0154,-1.0229,-0.9924,-0.812,-0.7126,-0.6101,0.1144,-0.2138,0.2632,0.4595,0.4888,0.9551,1.2924,1.5139,0.0,0.0,0.0,0.3978,-1.0136,-2.3315,-1.9275,-1.8126,-1.9418,-1.9069,-1.9778,-2.122,-2.095,-2.1532,-2.2845,-2.2294,-2.2289,-2.2579,-1.9773,-1.6439,-1.2805,-1.3313,-1.3305,-1.281,-1.2765,-1.3158,-1.3886,-1.4664,-1.6033,-1.8024,-1.8919,-1.9181,-1.8802,-1.8027,-1.702,-1.5864,-1.5927,-1.599,-1.6021,-1.6397,-1.6781,-1.7115,-1.6519,-1.6453,-1.6972,-1.669,-1.6942,-1.7773,-1.7761,-1.8022,-1.8692,-1.8611,-1.8955,-1.9911,-2.008,-1.8862,-1.5928,-1.3743,-1.2452,-1.2374,-0.9888,-0.8558,-0.9016,-0.9298,-0.9617,-0.9802,-1.0915,-1.1653,-1.1848,-1.1653,-1.1556,-1.1458,-1.0386,-0.9509,-0.9205,-0.7422,-0.5727,-0.5233,-0.4172,-0.2877,-0.1753,-0.2975,-0.4262,-0.4309,-0.6431,-0.8367,-0.9669,-1.2119,-1.5287,-1.7315,-1.8877,-1.9773,-1.9255,-1.762,-1.5596,-1.3948,-1.1442,-0.9999,-0.9791,-0.9897,-1.0002,-1.0012,-1.0107,-1.0198,-1.0082,-0.9154,-0.7679,-0.1272,-0.407,-0.3264,-0.1501,0.1128,0.6159,0.9057,1.0499,1.2142,1.4053,1.5053,0.1405,-1.0412,-2.0065,-1.8319,-1.793,-1.8467,-1.6956,-1.6642,-1.7421,-1.9492,-2.0377,-2.0288,-2.2321,-2.1993,-1.9536,-1.8437,-1.5775,-1.1935,-1.1642,-1.1774,-1.1974,-1.1958,-1.2381,-1.3174,-1.3948,-1.4808,-1.5753,-1.7126,-1.8348,-1.9343,-1.8995,-1.8601,-1.829,-1.7956,-1.8001,-1.8377,-1.8051,-1.8271,-1.9185,-1.8734,-1.8484,-1.8569,-1.9009,-1.9193,-1.8915,-1.8844,-1.936,-2.0402,-2.0034,-2.0695,-2.2748,-2.2978,-2.1572,-1.8298,-1.7399,-1.5893,-1.3244,-1.2858,-1.2328,-1.0682,-0.9732,-0.9793,-1.0755,-1.0532,-1.0681,-1.1556,-1.0877,-1.0293,-1.0194,-0.9118,-0.7832,-0.6924,-0.6226,-0.5022,-0.3015,-0.1409,0.0303,0.1647,-0.0318,-0.1949,-0.1528,-0.3205,-0.6012,-0.814,-0.923,-1.1384,-1.3909,-1.5666,-1.6369,-1.5712,-1.4986,-1.4009,-1.2492,-1.1043,-0.9979,-0.9884,-0.9754,-0.9961,-0.9985,-1.0029,-0.9914,-0.9924,-0.9656,-0.9142,-0.4381,-0.5563,-0.5336,-0.4474,-0.2889,0.0999,0.3044,0.3731,0.3902,0.7041,1.0397,-0.1571,-1.1108,-1.7578,-1.799,-1.8806,-2.0111,-1.9575,-1.9698,-2.0423,-2.1696,-2.2343,-2.2488,-2.3212,-2.2584,-2.0625,-1.8639,-1.5807,-1.2465,-1.1557,-1.1294,-1.1563,-1.2112,-1.2594,-1.2945,-1.3707,-1.4664,-1.5731,-1.6914,-1.8221,-1.9559,-1.9549,-1.9522,-1.9408,-1.9195,-1.9023,-1.8869,-1.8945,-1.9207,-1.9675,-1.9479,-1.9509,-1.9849,-1.989,-1.9924,-2.0062,-2.0078,-2.0492,-2.1364,-2.178,-2.2896,-2.4955,-2.4801,-2.4303,-2.347,-2.0958,-1.8546,-1.6353,-1.5021,-1.3639,-1.248,-1.1066,-1.0145,-1.0168,-0.9875,-0.9786,-0.9686,-0.9312,-0.892,-0.8825,-0.8432,-0.7534,-0.6129,-0.5325,-0.3914,-0.1304,0.1303,0.3623,0.4776,0.2801,0.0957,0.0867,-0.0876,-0.32,-0.5996,-0.7235,-0.892,-1.1757,-1.2845,-1.3426,-1.3452,-1.3729,-1.3491,-1.2862,-1.2117,-1.1927,-1.2017,-1.1414,-1.1029,-1.1008,-1.0301,-0.994,-0.9832,-0.9883,-0.9627,-0.7095,-0.7058,-0.6357,-0.6234,-0.6328,-0.4177,-0.3109,-0.3232,-0.4711,-0.1549,0.3028,-0.5296,-1.2026,-1.6367,-1.7545,-1.9021,-2.0779,-2.1493,-2.2232,-2.317,-2.3699,-2.423,-2.4751,-2.4398,-2.3613,-2.2178,-1.9526,-1.6729,-1.4023,-1.2534,-1.2004,-1.2249,-1.3075,-1.3591,-1.3772,-1.4619,-1.5562,-1.6613,-1.772,-1.8875,-2.0079,-2.0462,-2.0519,-2.0316,-2.0292,-1.9924,-1.9205,-1.9479,-1.9639,-1.953,-1.9627,-1.993,-2.0488,-2.0387,-2.0602,-2.1218,-2.1295,-2.1516,-2.2047,-2.3038,-2.4455,-2.6326,-2.597,-2.6255,-2.726,-2.4383,-2.1323,-1.9431,-1.7108,-1.5357,-1.4364,-1.2707,-1.111,-0.9965,-0.951,-0.9127,-0.8206,-0.8038,-0.8038,-0.8038,-0.7736,-0.703,-0.5724,-0.4418,-0.251,0.0301,0.321,0.5022,0.5334,0.4373,0.3117,0.1706,0.0325,-0.1748,-0.4104,-0.5797,-0.7802,-1.0229,-1.1,-1.1669,-1.2569,-1.3103,-1.3402,-1.3327,-1.3481,-1.3429,-1.3839,-1.3119,-1.229,-1.1967,-1.1059,-1.0247,-0.9812,-0.9825,-0.9907,-0.8546,-0.8365,-0.7166,-0.73,-0.8347,-0.809,-0.8317,-0.9252,-1.1141,-1.026,-0.7158,-0.9915,-1.3053,-1.6206,-1.6612,-1.7427,-1.8678,-1.9434,-2.0527,-2.1996,-2.3371,-2.4266,-2.4922,-2.586,-2.5007,-2.2595,-2.1161,-1.9134,-1.6426,-1.4877,-1.4445,-1.4907,-1.506,-1.5666,-1.6688,-1.7463,-1.7996,-1.8154,-1.9594,-2.0675,-2.1438,-2.21,-2.2162,-2.155,-2.1501,-2.0929,-1.9707,-1.969,-1.9493,-1.9064,-1.944,-1.9763,-2.0094,-2.0947,-2.1845,-2.2467,-2.2526,-2.2563,-2.2653,-2.326,-2.4455,-2.6249,-2.6463,-2.6962,-2.8138,-2.746,-2.5094,-2.171,-2.0282,-1.8656,-1.5944,-1.4569,-1.3085,-1.1202,-1.0144,-0.9123,-0.8287,-0.8038,-0.8038,-0.8038,-0.7132,-0.5727,-0.462,-0.3215,-0.1307,0.0803,0.1908,0.2911,0.361,0.2608,0.1415,0.0207,-0.117,-0.2715,-0.448,-0.5753,-0.7436,-0.9013,-1.0343,-1.1202,-1.1864,-1.2743,-1.3305,-1.3386,-1.3592,-1.3755,-1.3618,-1.336,-1.3002,-1.2021,-1.1508,-1.107,-1.013,-0.9808,-0.988,-0.8811,-0.8778,-0.858,-0.9026,-0.9888,-0.9932,-1.0403,-1.1175,-1.189,-1.1782,-1.1331,-1.1935,-1.3064,-1.4406,-1.5115,-1.5768,-1.6279,-1.7306,-1.8547,-2.0043,-2.2155,-2.3887,-2.5253,-2.6619,-2.6145,-2.4278,-2.3188,-2.1189,-1.8602,-1.7058,-1.647,-1.6765,-1.7605,-1.8384,-1.9014,-1.9726,-2.0377,-2.0885,-2.1518,-2.215,-2.2682,-2.2745,-2.257,-2.2297,-2.1904,-2.1276,-2.0326,-1.9627,-1.9132,-1.8921,-1.9129,-1.9612,-2.0468,-2.1566,-2.2631,-2.3599,-2.3685,-2.3565,-2.3231,-2.3465,-2.4612,-2.6873,-2.7026,-2.7806,-2.9649,-2.977,-2.84,-2.5679,-2.3487,-2.1425,-1.9366,-1.7284,-1.5148,-1.3221,-1.1436,-1.009,-0.9046,-0.8379,-0.8038,-0.7939,-0.7537,-0.6728,-0.522,-0.331,-0.1704,-0.0401,0.02,0.0899,0.1396,-0.0199,-0.1595,-0.2616,-0.4838,-0.6208,-0.5977,-0.6029,-0.7492,-0.9399,-1.0509,-1.1061,-1.237,-1.3583,-1.4347,-1.3475,-1.3898,-1.4129,-1.3714,-1.2758,-1.2103,-1.159,-1.0868,-1.0215,-0.9782,-0.9696,-0.9761,-0.9017,-0.9404,-0.988,-1.0466,-1.1065,-1.1065,-1.1466,-1.208,-1.2129,-1.2415,-1.2877,-1.2908,-1.3087,-1.3449,-1.4003,-1.4367,-1.4801,-1.5679,-1.6864,-1.8437,-2.0641,-2.2789,-2.4872,-2.6232,-2.6327,-2.5337,-2.4547,-2.2848,-2.0425,-1.9264,-1.8788,-1.9089,-2.0251,-2.1077,-2.1469,-2.2221,-2.2834,-2.3318,-2.3287,-2.3361,-2.3651,-2.3101,-2.2644,-2.2398,-2.1949,-2.1306,-2.0468,-1.9418,-1.8803,-1.8664,-1.8838,-1.9455,-2.0611,-2.1829,-2.3145,-2.4405,-2.4465,-2.4225,-2.3837,-2.3666,-2.4612,-2.682,-2.7304,-2.8352,-3.0293,-3.123,-3.0821,-2.9249,-2.7018,-2.4987,-2.2104,-1.9918,-1.7527,-1.5319,-1.3428,-1.1871,-1.0533,-0.969,-0.9409,-0.9041,-0.8773,-0.8004,-0.66,-0.4694,-0.3293,-0.3483,-0.288,-0.2181,-0.2379,-0.4159,-0.5642,-0.5741,-0.8528,-0.9392,-0.7827,-0.8128,-0.9126,-1.035,-1.159,-1.26,-1.3545,-1.4663,-1.5281,-1.4399,-1.4748,-1.4589,-1.3744,-1.2505,-1.1582,-1.1297,-1.0482,-0.9514,-0.9523,-0.9544,-0.9588,-0.9523,-1.0661,-1.0718,-1.1116,-1.1765,-1.1765,-1.2187,-1.2774,-1.2822,-1.2871,-1.2909,-1.2914,-1.3517,-1.4526,-1.3752,-1.3668,-1.4584,-1.4744,-1.5734,-1.7436,-1.874,-2.0752,-2.3358,-2.4478,-2.4927,-2.4633,-2.4727,-2.3888,-2.2184,-2.1625,-2.164,-2.2145,-2.2781,-2.3504,-2.4162,-2.496,-2.5378,-2.4934,-2.4502,-2.431,-2.422,-2.3289,-2.246,-2.1909,-2.1724,-2.1111,-1.9967,-1.9228,-1.8717,-1.8185,-1.8672,-1.9356,-2.0154,-2.1669,-2.3383,-2.4863,-2.4697,-2.4389,-2.4282,-2.3864,-2.4498,-2.6259,-2.7052,-2.8214,-3.026,-3.1524,-3.1768,-3.1179,-3.0665,-2.858,-2.4412,-2.2437,-2.0379,-1.7744,-1.6263,-1.4749,-1.2823,-1.2693,-1.2395,-1.1347,-1.061,-0.9795,-0.822,-0.6657,-0.6839,-0.7517,-0.7609,-0.7504,-0.769,-0.8796,-0.9681,-1.0078,-1.1025,-1.1526,-1.0497,-1.0315,-1.1383,-1.2402,-1.3146,-1.4339,-1.4717,-1.4978,-1.5094,-1.4775,-1.3944,-1.3434,-1.3372,-1.2891,-1.1986,-1.135,-1.0152,-0.9446,-0.9378,-0.9388,-0.9432,-1.0241,-1.1427,-1.1434,-1.1832,-1.2461,-1.2501,-1.2676,-1.2891,-1.2891,-1.2899,-1.2887,-1.2902,-1.4003,-1.5835,-1.5418,-1.4773,-1.4165,-1.3752,-1.4323,-1.5697,-1.7049,-1.8711,-2.0568,-2.2321,-2.2935,-2.2718,-2.3405,-2.3557,-2.3118,-2.3073,-2.3494,-2.411,-2.4705,-2.5209,-2.5656,-2.6064,-2.6044,-2.5575,-2.5134,-2.4918,-2.4839,-2.4177,-2.3264,-2.2187,-2.1862,-2.147,-2.0976,-2.007,-1.9105,-1.8159,-1.8695,-1.9158,-1.9659,-2.2076,-2.4071,-2.5035,-2.5028,-2.4792,-2.4389,-2.3906,-2.4411,-2.6233,-2.6682,-2.7939,-3.0144,-3.13,-3.1665,-3.1647,-3.143,-3.0033,-2.8523,-2.601,-2.3553,-2.1377,-1.9543,-1.7817,-1.61,-1.5175,-1.4077,-1.2657,-1.2714,-1.3339,-1.2808,-1.2416,-1.2326,-1.2702,-1.2797,-1.2707,-1.2998,-1.388,-1.4571,-1.4948,-1.5852,-1.6317,-1.5172,-1.2959,-1.2307,-1.323,-1.4225,-1.495,-1.5512,-1.4873,-1.4774,-1.372,-1.2733,-1.1657,-1.1372,-1.1008,-1.0622,-1.0319,-0.9236,-0.9298,-0.9218,-0.9232,-0.9286,-1.1209,-1.1774,-1.208,-1.2442,-1.2881,-1.2891,-1.2891,-1.2929,-1.3104,-1.309,-1.2977,-1.332,-1.4641,-1.6269,-1.6523,-1.5625,-1.4118,-1.3467,-1.3627,-1.4391,-1.5407,-1.6718,-1.8226,-1.9686,-2.0439,-2.0671,-2.1839,-2.263,-2.3092,-2.3872,-2.46,-2.5206,-2.6165,-2.6711,-2.6867,-2.7183,-2.7157,-2.6612,-2.603,-2.5704,-2.5538,-2.4756,-2.3957,-2.3064,-2.2332,-2.1596,-2.1081,-2.0318,-1.9566,-1.8859,-1.9092,-1.9651,-2.0645,-2.3032,-2.4815,-2.5357,-2.5449,-2.5205,-2.4697,-2.4142,-2.445,-2.5737,-2.6313,-2.7612,-2.9825,-3.0757,-3.1309,-3.1523,-3.1433,-3.1255,-3.1094,-2.9376,-2.7187,-2.5203,-2.3178,-2.1257,-1.952,-1.8769,-1.7572,-1.619,-1.6084,-1.667,-1.7139,-1.6522,-1.635,-1.675,-1.6836,-1.6843,-1.7035,-1.752,-1.811,-1.821,-1.8609,-1.838,-1.7404,-1.5376,-1.4069,-1.4686,-1.4674,-1.5503,-1.5537,-1.4896,-1.3999,-1.2858,-1.1553,-1.0178,-0.929,-0.9027,-0.8937,-0.8933,-0.8974,-0.9042,-0.9066,-0.9079,-0.9137,-1.2398,-1.1981,-1.2559,-1.2832,-1.2891,-1.2891,-1.2891,-1.2978,-1.3457,-1.3412,-1.3279,-1.4136,-1.5217,-1.6308,-1.6515,-1.5846,-1.4754,-1.4061,-1.3779,-1.3815,-1.3909,-1.4866,-1.6393,-1.6752,-1.7715,-1.8903,-2.0336,-2.1485,-2.241,-2.3828,-2.4902,-2.5776,-2.7273,-2.7896,-2.7866,-2.8555,-2.8758,-2.7983,-2.722,-2.6737,-2.637,-2.5146,-2.4385,-2.4139,-2.3087,-2.1716,-2.0023,-1.9985,-1.9962,-1.9886,-1.9936,-2.1098,-2.3044,-2.4507,-2.5433,-2.5928,-2.6016,-2.5746,-2.5243,-2.4721,-2.4575,-2.5043,-2.5859,-2.7162,-2.8607,-3.0152,-3.1151,-3.1308,-3.1314,-3.1498,-3.2187,-3.2014,-3.0897,-2.8867,-2.6882,-2.5281,-2.3701,-2.3309,-2.3097,-2.1486,-2.0066,-1.9397,-2.0076,-1.9479,-1.8787,-1.9496,-1.953,-1.962,-1.9694,-1.9966,-1.9745,-1.9827,-2.0361,-2.0361,-1.9023,-1.7591,-1.685,-1.6218,-1.5797,-1.58,-1.5466,-1.4869,-1.3879,-1.2746,-1.1098,-0.9743,-0.9138,-0.8869,-0.891,-0.8916,-0.8927,-0.894,-0.8971,-0.8998,-0.8981,-1.2754,-1.2559,-1.2774,-1.2891,-1.2891,-1.2891,-1.2891,-1.2939,-1.3104,-1.3521,-1.4114,-1.4506,-1.5353,-1.6268,-1.648,-1.5997,-1.5108,-1.4616,-1.3967,-1.3286,-1.32,-1.3491,-1.4137,-1.49,-1.6166,-1.7612,-1.8387,-1.9751,-2.1657,-2.343,-2.5019,-2.6539,-2.7573,-2.8125,-2.8232,-2.8827,-2.8792,-2.8142,-2.7888,-2.7525,-2.6931,-2.6186,-2.5346,-2.4379,-2.3819,-2.288,-2.1465,-2.1034,-2.0752,-2.0527,-2.1072,-2.2337,-2.4108,-2.5078,-2.5855,-2.6621,-2.6768,-2.6589,-2.6095,-2.5648,-2.5289,-2.5408,-2.6307,-2.7397,-2.8326,-2.9597,-3.0761,-3.1387,-3.1414,-3.1613,-3.2507,-3.2575,-3.1861,-3.0586,-2.9966,-2.8608,-2.64,-2.5039,-2.4118,-2.3742,-2.3775,-2.4098,-2.3919,-2.2922,-2.2379,-2.2737,-2.2435,-2.2189,-2.2863,-2.2843,-2.3537,-2.4118,-2.3614,-2.2309,-2.0971,-1.9728,-1.884,-1.7475,-1.6669,-1.5933,-1.5473,-1.4673,-1.3791,-1.2656,-1.1034,-0.9953,-0.9255,-0.8917,-0.9061,-0.901,-0.8923,-0.893,-0.8937,-0.8937,-0.8937,-1.2715,-1.251,-1.2774,-1.2891,-1.2891,-1.2891,-1.2891,-1.2929,-1.3142,-1.3721,-1.447,-1.5119,-1.5742,-1.6348,-1.6352,-1.5921,-1.529,-1.4802,-1.3994,-1.3036,-1.2891,-1.3017,-1.3354,-1.4392,-1.5553,-1.6764,-1.7116,-1.8421,-2.069,-2.2532,-2.4365,-2.6121,-2.7333,-2.7937,-2.8203,-2.8672,-2.8682,-2.8349,-2.8345,-2.8179,-2.7755,-2.7362,-2.6608,-2.5579,-2.506,-2.4331,-2.3358,-2.2931,-2.2475,-2.2172,-2.2996,-2.4275,-2.5419,-2.6,-2.6588,-2.7175,-2.7425,-2.7315,-2.6854,-2.632,-2.5924,-2.5838,-2.6636,-2.7556,-2.8375,-2.9505,-3.0802,-3.1543,-3.1898,-3.2171,-3.2821,-3.3087,-3.2725,-3.217,-3.1855,-3.0807,-2.876,-2.6873,-2.6058,-2.6033,-2.6016,-2.6464,-2.6848,-2.5736,-2.5301,-2.5219,-2.4798,-2.4478,-2.521,-2.5368,-2.5964,-2.6224,-2.5525,-2.4214,-2.3075,-2.1938,-2.081,-1.9115,-1.7404,-1.6574,-1.5872,-1.4725,-1.3625,-1.283,-1.1527,-1.1335,-1.0666,-0.9968,-0.9723,-0.9479,-0.9208,-0.893,-0.8937,-0.8937,-0.8937,-1.2353,-1.1873,-1.251,-1.2715,-1.2774,-1.2774,-1.2822,-1.2978,-1.342,-1.381,-1.4415,-1.5482,-1.6304,-1.6372,-1.638,-1.5963,-1.5296,-1.4671,-1.4076,-1.3381,-1.3194,-1.3446,-1.4105,-1.4998,-1.5916,-1.6648,-1.6955,-1.804,-2.0103,-2.1759,-2.3224,-2.5142,-2.6695,-2.7464,-2.7531,-2.8199,-2.8461,-2.8243,-2.8495,-2.8627,-2.8607,-2.8458,-2.7972,-2.7264,-2.649,-2.5801,-2.5347,-2.5232,-2.4863,-2.425,-2.5469,-2.6399,-2.6822,-2.7254,-2.7656,-2.8003,-2.8178,-2.7985,-2.7508,-2.7057,-2.6505,-2.612,-2.7044,-2.7648,-2.8523,-3.0012,-3.1359,-3.1969,-3.2446,-3.2885,-3.3069,-3.3523,-3.3683,-3.3515,-3.2823,-3.1758,-3.048,-2.8784,-2.8093,-2.8203,-2.7318,-2.6538,-2.8672,-2.6843,-2.6199,-2.6225,-2.6278,-2.6019,-2.6461,-2.6543,-2.6637,-2.6719,-2.6883,-2.6097,-2.4946,-2.3517,-2.2397,-2.0891,-1.9107,-1.7762,-1.6473,-1.5229,-1.3992,-1.3111,-1.2657,-1.2486,-1.1899,-1.1128,-1.0412,-1.0166,-0.973,-0.9205,-0.8913,-0.8886,-0.8903,-1.1225,-1.1065,-1.1275,-1.1633,-1.203,-1.208,-1.2403,-1.2881,-1.3055,-1.3538,-1.4174,-1.4835,-1.5761,-1.6511,-1.6949,-1.655,-1.5444,-1.4676,-1.4579,-1.4561,-1.4281,-1.4499,-1.51,-1.5768,-1.6705,-1.7656,-1.8519,-1.9688,-2.0639,-2.2134,-2.3642,-2.4977,-2.5897,-2.6105,-2.5673,-2.6803,-2.7049,-2.6842,-2.7924,-2.843,-2.8436,-2.8751,-2.8544,-2.7867,-2.7227,-2.6839,-2.6675,-2.691,-2.6927,-2.6634,-2.7396,-2.8041,-2.8148,-2.8429,-2.8799,-2.9157,-2.9109,-2.8883,-2.847,-2.8076,-2.752,-2.7029,-2.8287,-2.9317,-2.9144,-3.0907,-3.2172,-3.2692,-3.2809,-3.2802,-3.3123,-3.3545,-3.3765,-3.3889,-3.3319,-3.2305,-3.1202,-3.0211,-2.9338,-2.8502,-2.7952,-2.7844,-2.7267,-2.7027,-2.6546,-2.6811,-2.6702,-2.6473,-2.7243,-2.7695,-2.7787,-2.8291,-2.8371,-2.7683,-2.6662,-2.5251,-2.3882,-2.2562,-2.098,-1.9405,-1.7848,-1.6183,-1.4949,-1.387,-1.3734,-1.356,-1.2668,-1.189,-1.1401,-1.1132,-1.027,-0.9735,-0.9068,-0.8757,-0.8818,-1.0618,-1.0415,-1.0661,-1.1166,-1.1765,-1.1814,-1.2236,-1.2832,-1.2929,-1.3294,-1.3971,-1.457,-1.5412,-1.648,-1.6584,-1.6216,-1.5372,-1.4842,-1.4779,-1.5265,-1.5824,-1.6264,-1.6706,-1.7142,-1.7764,-1.8419,-1.9529,-2.0384,-2.1097,-2.2258,-2.329,-2.4287,-2.5062,-2.5017,-2.4694,-2.5547,-2.6141,-2.6083,-2.7264,-2.8105,-2.8309,-2.904,-2.9276,-2.8875,-2.8477,-2.8272,-2.8347,-2.8558,-2.8577,-2.8536,-2.8845,-2.9124,-2.923,-2.9364,-2.9687,-3.0047,-2.9815,-2.9532,-2.9266,-2.8864,-2.8363,-2.8182,-2.939,-2.9898,-3.0173,-3.1593,-3.2952,-3.3075,-3.3075,-3.3105,-3.3255,-3.3708,-3.4209,-3.4506,-3.4096,-3.3212,-3.2038,-3.1144,-3.0451,-2.9685,-2.8981,-2.8106,-2.6752,-2.6993,-2.7323,-2.7566,-2.7471,-2.7675,-2.8239,-2.856,-2.8846,-2.9197,-2.9287,-2.8597,-2.7683,-2.6345,-2.502,-2.37,-2.2054,-2.0666,-1.8764,-1.703,-1.6001,-1.5051,-1.4848,-1.4496,-1.3757,-1.3199,-1.2841,-1.2364,-1.1294,-1.0348,-0.9617,-0.8931,-0.8894,-1.0269,-0.9769,-1.0364,-1.1015,-1.1616,-1.1715,-1.2138,-1.2822,-1.2891,-1.3278,-1.3888,-1.4471,-1.5202,-1.6373,-1.587,-1.5471,-1.5406,-1.5113,-1.5361,-1.6099,-1.7213,-1.8169,-1.8208,-1.8498,-1.8734,-1.9069,-1.9777,-2.0704,-2.1507,-2.1989,-2.2657,-2.3601,-2.4112,-2.4112,-2.3963,-2.4571,-2.5086,-2.5431,-2.6597,-2.7638,-2.8267,-2.9147,-2.9724,-2.988,-2.9675,-2.9632,-2.9741,-2.9874,-2.9798,-2.9744,-2.9793,-2.9805,-2.9924,-3.0011,-3.0133,-3.0241,-3.0109,-2.992,-2.987,-2.9267,-2.9001,-2.92,-2.9935,-3.0487,-3.1002,-3.2415,-3.3382,-3.3411,-3.3606,-3.355,-3.3484,-3.416,-3.4748,-3.5031,-3.5206,-3.4485,-3.3192,-3.2038,-3.1447,-3.1379,-3.0025,-2.8492,-2.7602,-2.7588,-2.8287,-2.758,-2.7656,-2.8026,-2.8447,-2.8805,-2.9232,-2.9611,-2.9534,-2.9365,-2.8371,-2.7371,-2.6036,-2.4671,-2.2872,-2.1212,-1.9131,-1.7677,-1.6943,-1.619,-1.5527,-1.5337,-1.528,-1.474,-1.4282,-1.3435,-1.2384,-1.1304,-1.0298,-0.9588,-0.922,-0.9159,-0.9008,-0.9166,-0.9909,-1.0914,-1.1015,-1.1733,-1.2881,-1.2891,-1.34,-1.3986,-1.368,-1.445,-1.59,-1.5558,-1.5395,-1.5447,-1.5632,-1.6287,-1.7627,-1.8788,-1.9393,-1.9393,-1.9458,-1.9534,-1.9838,-2.1156,-2.1935,-2.2282,-2.273,-2.3301,-2.3463,-2.326,-2.2831,-2.2563,-2.3113,-2.32,-2.3603,-2.5353,-2.6882,-2.7866,-2.8936,-2.9771,-3.0128,-3.0067,-3.0036,-3.01,-3.0046,-3.0075,-3.0202,-3.0221,-3.0207,-3.0241,-3.0273,-3.033,-3.033,-3.0182,-3.0013,-2.9954,-2.9784,-2.9814,-3.0414,-3.119,-3.2032,-3.2705,-3.3345,-3.3926,-3.3949,-3.3902,-3.3762,-3.3744,-3.4123,-3.476,-3.5243,-3.5381,-3.5249,-3.4595,-3.3296,-3.2266,-3.1422,-3.0644,-2.9428,-2.8011,-2.7736,-2.7913,-2.7627,-2.7733,-2.8059,-2.8473,-2.8925,-2.9264,-2.9515,-2.9526,-2.9359,-2.9028,-2.7867,-2.6367,-2.5126,-2.3414,-2.1845,-1.9852,-1.8226,-1.7498,-1.6662,-1.5825,-1.5832,-1.5832,-1.5648,-1.4998,-1.4219,-1.3453,-1.2193,-1.1093,-1.0302,-0.9225,-0.8804,-0.8804,-0.8804,-0.9569,-1.0669,-1.0813,-1.1592,-1.2773,-1.3105,-1.3481,-1.3872,-1.3682,-1.4291,-1.5246,-1.533,-1.5412,-1.5642,-1.6335,-1.7283,-1.8358,-1.9312,-1.9786,-1.9798,-1.9798,-1.9798,-2.0016,-2.0961,-2.198,-2.2786,-2.3033,-2.3069,-2.3143,-2.283,-2.2438,-2.1899,-2.2346,-2.2847,-2.34,-2.4884,-2.6385,-2.7315,-2.8526,-2.9597,-3.0136,-3.0265,-3.0296,-3.0317,-3.0271,-3.0283,-3.0359,-3.041,-3.0398,-3.0398,-3.0398,-3.0398,-3.0367,-3.0299,-3.0177,-3.0155,-3.0369,-3.0641,-3.1132,-3.2145,-3.2827,-3.3429,-3.3939,-3.4213,-3.4171,-3.3986,-3.386,-3.4016,-3.4594,-3.5107,-3.5556,-3.5942,-3.6015,-3.5634,-3.4462,-3.2917,-3.1977,-3.1407,-3.0451,-2.951,-2.8657,-2.7921,-2.7803,-2.7402,-2.7657,-2.7795,-2.826,-2.8787,-2.9076,-2.9252,-2.9262,-2.9279,-2.8199,-2.6449,-2.5126,-2.378,-2.2375,-2.0755,-1.9306,-1.7956,-1.703,-1.6015,-1.5825,-1.5825,-1.573,-1.5635,-1.5096,-1.4159,-1.291,-1.1762,-1.0834,-0.957,-0.8945,-0.8878,-0.8938,-0.9655,-1.0669,-1.0894,-1.1641,-1.2845,-1.3319,-1.3635,-1.3747,-1.4353,-1.4482,-1.4856,-1.5215,-1.5391,-1.5901,-1.662,-1.7598,-1.8377,-1.9153,-1.9475,-1.9527,-1.9695,-1.9798,-1.9914,-2.0623,-2.1689,-2.2337,-2.2737,-2.2543,-2.2498,-2.2406,-2.2067,-2.1899,-2.2239,-2.2772,-2.3531,-2.4869,-2.6071,-2.6928,-2.8139,-2.9216,-3.0121,-3.0421,-3.0491,-3.0477,-3.0463,-3.0472,-3.0436,-3.0406,-3.0394,-3.041,-3.0398,-3.0398,-3.0398,-3.0367,-3.047,-3.0727,-3.1057,-3.1412,-3.166,-3.2773,-3.3561,-3.3903,-3.4222,-3.4355,-3.4265,-3.4093,-3.3961,-3.4208,-3.474,-3.5454,-3.6039,-3.6673,-3.6754,-3.6474,-3.5542,-3.4071,-3.2648,-3.213,-3.139,-3.0288,-2.9324,-2.8607,-2.7934,-2.7503,-2.7231,-2.7394,-2.7632,-2.8172,-2.8725,-2.8938,-2.9377,-2.9434,-2.8664,-2.6837,-2.5546,-2.4221,-2.2804,-2.1462,-1.9943,-1.8495,-1.703,-1.6197,-1.592,-1.5825,-1.5825,-1.573,-1.554,-1.5064,-1.3931,-1.2748,-1.1365,-1.022,-0.9603,-0.9277,-0.9475,-1.0031,-1.0695,-1.1086,-1.1814,-1.2859,-1.3323,-1.3936,-1.4512,-1.4342,-1.4696,-1.5148,-1.5342,-1.57,-1.6197,-1.6708,-1.7146,-1.7907,-1.8555,-1.8874,-1.9097,-1.9475,-1.9747,-1.9952,-2.0383,-2.0769,-2.0935,-2.1329,-2.1805,-2.1758,-2.15,-2.1355,-2.1615,-2.1932,-2.2653,-2.3631,-2.4831,-2.5832,-2.6707,-2.7788,-2.8948,-3.0027,-3.035,-3.0523,-3.0575,-3.0565,-3.054,-3.049,-3.0479,-3.0453,-3.0475,-3.0467,-3.0595,-3.0609,-3.066,-3.0929,-3.1398,-3.1635,-3.2417,-3.3333,-3.3969,-3.4453,-3.4833,-3.4899,-3.4737,-3.4551,-3.4334,-3.4171,-3.42,-3.4711,-3.5569,-3.6293,-3.6544,-3.6608,-3.6987,-3.6531,-3.5586,-3.4252,-3.338,-3.2281,-3.1202,-3.0107,-2.915,-2.8233,-2.7465,-2.7208,-2.7143,-2.7318,-2.7607,-2.816,-2.8662,-2.9189,-2.9614,-2.8694,-2.7383,-2.6284,-2.4957,-2.3414,-2.1994,-2.0387,-1.894,-1.8025,-1.6749,-1.592,-1.5825,-1.5825,-1.5825,-1.573,-1.5343,-1.5051,-1.3686,-1.2425,-1.2139,-0.9816,-0.9686,-0.9686,-1.007,-1.0657,-1.0908,-1.1746,-1.285,-1.3386,-1.4003,-1.4615,-1.4781,-1.4974,-1.5313,-1.542,-1.5806,-1.6312,-1.6492,-1.6933,-1.7578,-1.795,-1.8394,-1.8608,-1.9097,-1.9475,-1.9734,-2.008,-2.0154,-1.9922,-2.0797,-2.1183,-2.1245,-2.121,-2.1293,-2.152,-2.2229,-2.2966,-2.3952,-2.4964,-2.5875,-2.6606,-2.7639,-2.8716,-2.9505,-3.0171,-3.0447,-3.0586,-3.0643,-3.0608,-3.0646,-3.0989,-3.0856,-3.0848,-3.1248,-3.1742,-3.1691,-3.1641,-3.1795,-3.2352,-3.2679,-3.343,-3.4026,-3.4564,-3.5026,-3.5325,-3.5266,-3.5032,-3.4755,-3.4632,-3.4529,-3.4695,-3.4813,-3.5666,-3.6802,-3.6808,-3.7008,-3.7544,-3.7381,-3.6671,-3.5771,-3.4712,-3.3505,-3.2099,-3.0954,-2.9742,-2.8707,-2.7657,-2.722,-2.7031,-2.7017,-2.7168,-2.767,-2.821,-2.8699,-2.9151,-2.8582,-2.7779,-2.6735,-2.5714,-2.417,-2.2707,-2.1194,-2.0486,-1.9935,-1.8388,-1.6466,-1.5825,-1.5825,-1.5825,-1.5825,-1.5724,-1.5337,-1.4459,-1.359,-1.3482,-0.9991,-1.0123,-0.9932,-1.02,-1.0639,-1.074,-1.1622,-1.2807,-1.3387,-1.4119,-1.4904,-1.5234,-1.5391,-1.542,-1.5468,-1.569,-1.6265,-1.6265,-1.6528,-1.6968,-1.7302,-1.7743,-1.8328,-1.8715,-1.9097,-1.9747,-1.985,-1.9788,-1.9863,-2.0343,-2.0521,-2.0633,-2.1086,-2.1328,-2.1328,-2.2229,-2.3372,-2.4483,-2.5102,-2.5908,-2.6606,-2.7449,-2.8282,-2.9045,-2.9768,-3.0241,-3.0479,-3.0644,-3.0836,-3.1062,-3.1415,-3.163,-3.1381,-3.2473,-3.3269,-3.3223,-3.3064,-3.2987,-3.3295,-3.3641,-3.4103,-3.4584,-3.5122,-3.5411,-3.546,-3.5383,-3.5223,-3.4925,-3.4793,-3.4851,-3.4992,-3.5117,-3.5892,-3.6795,-3.711,-3.7136,-3.7608,-3.7637,-3.7365,-3.6551,-3.5769,-3.4798,-3.3562,-3.1789,-3.0558,-2.9219,-2.8179,-2.7162,-2.6929,-2.6684,-2.6804,-2.7256,-2.7733,-2.816,-2.845,-2.8509,-2.7783,-2.7001,-2.6151,-2.5031,-2.3577,-2.2189,-2.1649,-2.0926,-1.9115,-1.7296,-1.6655,-1.6008,-1.6103,-1.6197,-1.6204,-1.6278,-1.6236,-1.594,-1.5745,-1.0524,-1.0517,-1.051,-1.0524,-1.0636,-1.0866,-1.175,-1.2922,-1.3406,-1.4239,-1.5283,-1.5371,-1.542,-1.542,-1.542,-1.5468,-1.5526,-1.5642,-1.5748,-1.6026,-1.6415,-1.7079,-1.7786,-1.8436,-1.9032,-1.9683,-1.9798,-1.9786,-1.9952,-2.0054,-1.9952,-2.0042,-2.0283,-2.0521,-2.152,-2.2249,-2.301,-2.4641,-2.4839,-2.5176,-2.6019,-2.6865,-2.7614,-2.8383,-2.9302,-3.0144,-3.0639,-3.0938,-3.1211,-3.1809,-3.1898,-3.2255,-3.2829,-3.3581,-3.4144,-3.4077,-3.3704,-3.3237,-3.3897,-3.4257,-3.4603,-3.5045,-3.543,-3.5488,-3.546,-3.5354,-3.5273,-3.5432,-3.5203,-3.5111,-3.5225,-3.5364,-3.599,-3.6449,-3.6763,-3.6767,-3.7061,-3.7578,-3.7345,-3.7399,-3.6624,-3.612,-3.5205,-3.3223,-3.1364,-2.9997,-2.8702,-2.7683,-2.685,-2.6645,-2.6571,-2.6954,-2.7205,-2.7607,-2.7996,-2.7978,-2.7645,-2.7046,-2.6565,-2.576,-2.4482,-2.3189,-2.218,-2.1185,-1.9563,-1.8572,-1.8118,-1.7483,-1.6936,-1.6936,-1.7304,-1.8126,-1.8856,-1.8464,-1.7624,-1.0618,-1.0618,-1.0618,-1.0618,-1.0604,-1.0774,-1.1645,-1.283,-1.3203,-1.4051,-1.5216,-1.542,-1.542,-1.542,-1.542,-1.541,-1.542,-1.542,-1.542,-1.542,-1.5806,-1.6528,-1.7468,-1.8015,-1.8608,-1.9579,-1.9913,-2.0307,-2.0332,-2.0128,-1.9798,-1.99,-2.022,-2.0818,-2.1828,-2.2798,-2.397,-2.5129,-2.5753,-2.6188,-2.672,-2.7372,-2.8172,-2.8895,-3.0044,-3.0905,-3.1526,-3.2016,-3.2311,-3.283,-3.2996,-3.3165,-3.3472,-3.4066,-3.4722,-3.4585,-3.4263,-3.4211,-3.4626,-3.4803,-3.5114,-3.5334,-3.5507,-3.5507,-3.546,-3.5398,-3.5335,-3.546,-3.5438,-3.538,-3.5396,-3.5532,-3.6084,-3.6466,-3.6471,-3.669,-3.6844,-3.7024,-3.7268,-3.7417,-3.7549,-3.6999,-3.6484,-3.5215,-3.3226,-3.1364,-2.9937,-2.8675,-2.7617,-2.6769,-2.6721,-2.6678,-2.6854,-2.7017,-2.7394,-2.7601,-2.7373,-2.6988,-2.7167,-2.6256,-2.5404,-2.4284,-2.3216,-2.2397,-2.1435,-2.0549,-1.9753,-1.8948,-1.8218,-1.8403,-1.868,-1.9314,-1.9861,-1.9405,-1.8564,-1.0618,-1.0618,-1.0618,-1.0618,-1.0618,-1.0618,-1.1351,-1.2634,-1.2931,-1.3786,-1.4874,-1.5294,-1.542,-1.542,-1.542,-1.542,-1.542,-1.542,-1.542,-1.542,-1.5584,-1.6291,-1.7191,-1.7743,-1.8447,-1.9823,-2.0049,-2.0522,-2.0868,-2.079,-2.0351,-2.0225,-2.0757,-2.1323,-2.2122,-2.3197,-2.4366,-2.4987,-2.5708,-2.6114,-2.6467,-2.7324,-2.8289,-2.9382,-3.0619,-3.1839,-3.2586,-3.2951,-3.3165,-3.3715,-3.3965,-3.4044,-3.4178,-3.4654,-3.4843,-3.4698,-3.4469,-3.4547,-3.4811,-3.5024,-3.5383,-3.5493,-3.5507,-3.5507,-3.5507,-3.5507,-3.5507,-3.5507,-3.5543,-3.5581,-3.563,-3.5659,-3.5959,-3.6221,-3.6311,-3.665,-3.6862,-3.6825,-3.6887,-3.7071,-3.731,-3.7809,-3.729,-3.6826,-3.5214,-3.2958,-3.1252,-2.9725,-2.837,-2.7149,-2.6752,-2.6647,-2.6697,-2.6798,-2.6917,-2.7089,-2.6833,-2.6845,-2.704,-2.6853,-2.5905,-2.5126,-2.4189,-2.3539,-2.292,-2.26,-2.1887,-2.0738,-1.9588,-1.9761,-2.0034,-2.0223,-2.0404,-2.0042,-1.9497,-1.0618,-1.0618,-1.0618,-1.0618,-1.0618,-1.0618,-1.1108,-1.2012,-1.2696,-1.3485,-1.4529,-1.505,-1.542,-1.542,-1.542,-1.542,-1.542,-1.542,-1.542,-1.542,-1.5526,-1.6332,-1.7267,-1.7954,-1.8433,-1.9803,-2.0363,-2.0967,-2.1422,-2.1483,-2.1335,-2.1423,-2.1373,-2.1802,-2.2432,-2.3326,-2.4205,-2.4742,-2.5131,-2.5087,-2.5518,-2.6332,-2.7527,-2.8851,-3.0184,-3.1408,-3.234,-3.3018,-3.3662,-3.4397,-3.4571,-3.4849,-3.5048,-3.5098,-3.4958,-3.4598,-3.4551,-3.4532,-3.4555,-3.4907,-3.5223,-3.5398,-3.5507,-3.5488,-3.5416,-3.5488,-3.5507,-3.5515,-3.5568,-3.5627,-3.5675,-3.5749,-3.5909,-3.5936,-3.599,-3.5955,-3.6136,-3.6241,-3.6348,-3.6615,-3.7028,-3.7507,-3.7988,-3.7478,-3.6531,-3.4309,-3.189,-3.0338,-2.8575,-2.7351,-2.6905,-2.6683,-2.6559,-2.6609,-2.6634,-2.6677,-2.6834,-2.688,-2.6956,-2.6878,-2.647,-2.5712,-2.505,-2.4428,-2.3897,-2.3975,-2.3664,-2.1975,-2.0828,-2.1025,-2.1302,-2.14,-2.14,-2.1123,-2.0395,-1.0618,-1.0618,-1.0618,-1.0618,-1.0618,-1.0618,-1.1045,-1.1772,-1.2135,-1.3346,-1.4956,-1.5283,-1.542,-1.542,-1.542,-1.542,-1.542,-1.542,-1.543,-1.542,-1.5594,-1.6524,-1.7497,-1.8407,-1.8946,-2.0286,-2.0986,-2.1686,-2.2419,-2.211,-2.2304,-2.2246,-2.187,-2.195,-2.2523,-2.342,-2.4279,-2.4955,-2.5365,-2.5601,-2.601,-2.7364,-2.8699,-2.982,-3.1306,-3.2667,-3.3726,-3.4164,-3.467,-3.504,-3.5197,-3.5429,-3.556,-3.5338,-3.4939,-3.4494,-3.4489,-3.4379,-3.436,-3.4755,-3.5138,-3.5239,-3.5383,-3.5435,-3.5306,-3.5397,-3.5488,-3.5528,-3.5601,-3.5663,-3.5646,-3.5745,-3.5859,-3.5773,-3.5685,-3.5554,-3.5512,-3.568,-3.5551,-3.5722,-3.6531,-3.7257,-3.7717,-3.8062,-3.6984,-3.5624,-3.3171,-3.0921,-2.9288,-2.7855,-2.7471,-2.7027,-2.6905,-2.6726,-2.6696,-2.6779,-2.6873,-2.6876,-2.6828,-2.676,-2.6663,-2.6463,-2.5789,-2.5214,-2.4431,-2.3815,-2.3172,-2.2417,-2.2073,-2.2101,-2.2296,-2.2492,-2.2394,-2.2031,-2.0935,-1.0618,-1.0618,-1.0618,-1.0618,-1.0618,-1.0618,-1.0919,-1.1406,-1.171,-1.3128,-1.5358,-1.5381,-1.542,-1.542,-1.542,-1.542,-1.5469,-1.5547,-1.5605,-1.5753,-1.6087,-1.7021,-1.8118,-1.9034,-1.9678,-2.0958,-2.1613,-2.2242,-2.2917,-2.2677,-2.2723,-2.2711,-2.2422,-2.2394,-2.2708,-2.3464,-2.4363,-2.5066,-2.5508,-2.6,-2.6279,-2.7926,-2.9529,-3.0565,-3.1986,-3.3316,-3.4262,-3.4802,-3.5123,-3.5447,-3.5619,-3.5698,-3.5603,-3.5374,-3.4981,-3.4699,-3.4451,-3.4357,-3.4489,-3.4675,-3.5016,-3.5157,-3.5122,-3.517,-3.5201,-3.5339,-3.5501,-3.5531,-3.5638,-3.5688,-3.5636,-3.58,-3.5872,-3.582,-3.5717,-3.5589,-3.5319,-3.5304,-3.4964,-3.4837,-3.5702,-3.6485,-3.7254,-3.765,-3.7248,-3.5942,-3.3874,-3.1803,-3.0335,-2.9073,-2.8233,-2.7789,-2.7471,-2.7162,-2.693,-2.6828,-2.6779,-2.6666,-2.6726,-2.6789,-2.6729,-2.6468,-2.6174,-2.5486,-2.4533,-2.3494,-2.2848,-2.2432,-2.2582,-2.2921,-2.294,-2.2765,-2.2677,-2.2129,-2.0944,-1.0618,-1.0618,-1.0618,-1.0618,-1.0618,-1.0618,-1.0618,-1.0863,-1.1593,-1.3128,-1.5012,-1.5293,-1.542,-1.542,-1.542,-1.5576,-1.5762,-1.5959,-1.6187,-1.6497,-1.6827,-1.7911,-1.8868,-1.9679,-2.0439,-2.1681,-2.221,-2.2576,-2.3109,-2.2993,-2.3062,-2.304,-2.2912,-2.2849,-2.3037,-2.3135,-2.3577,-2.4221,-2.4452,-2.5063,-2.6011,-2.7663,-2.9295,-3.0666,-3.2049,-3.3378,-3.448,-3.4924,-3.5189,-3.5502,-3.5638,-3.5675,-3.5615,-3.5435,-3.5229,-3.5096,-3.4812,-3.4695,-3.4733,-3.4733,-3.4813,-3.4981,-3.4963,-3.4867,-3.5074,-3.5287,-3.547,-3.5454,-3.5628,-3.5669,-3.5734,-3.5819,-3.5847,-3.5817,-3.5698,-3.5496,-3.5237,-3.498,-3.4698,-3.4647,-3.4899,-3.5422,-3.6399,-3.7067,-3.7095,-3.6076,-3.4286,-3.2704,-3.1297,-3.0274,-2.9324,-2.8684,-2.8233,-2.767,-2.7351,-2.6837,-2.6683,-2.6533,-2.6596,-2.6653,-2.6309,-2.5708,-2.551,-2.5347,-2.4359,-2.2929,-2.2666,-2.2533,-2.2621,-2.2619,-2.2785,-2.2677,-2.2589,-2.1952,-2.0584,-1.0618,-1.0618,-1.0618,-1.0618,-1.0618,-1.0618,-1.0618,-1.0863,-1.1965,-1.3086,-1.3916,-1.4824,-1.542,-1.542,-1.5585,-1.5918,-1.6591,-1.6158,-1.6427,-1.8094,-1.7935,-1.901,-1.998,-2.0606,-2.1348,-2.2393,-2.2836,-2.2777,-2.3106,-2.304,-2.3053,-2.3125,-2.3125,-2.3125,-2.3113,-2.3185,-2.3484,-2.4279,-2.4781,-2.5439,-2.6254,-2.7939,-2.9507,-3.0678,-3.195,-3.3229,-3.4513,-3.4774,-3.507,-3.5441,-3.5591,-3.5636,-3.5611,-3.5486,-3.5418,-3.527,-3.5007,-3.4981,-3.4832,-3.4715,-3.451,-3.4675,-3.4715,-3.4578,-3.4602,-3.4904,-3.5117,-3.5356,-3.5558,-3.5618,-3.5675,-3.574,-3.5758,-3.5706,-3.5576,-3.5324,-3.5072,-3.4863,-3.4685,-3.4822,-3.5055,-3.5807,-3.6655,-3.7411,-3.752,-3.6935,-3.5341,-3.3778,-3.2338,-3.1387,-3.0453,-2.9723,-2.9129,-2.8427,-2.7789,-2.7417,-2.6905,-2.6714,-2.6589,-2.6571,-2.5951,-2.5314,-2.4737,-2.4572,-2.3449,-2.2359,-2.21,-2.1969,-2.206,-2.2181,-2.1988,-2.1961,-2.185,-2.098,-1.9679,-1.0618,-1.0618,-1.0618,-1.0618,-1.0618,-1.0618,-1.0744,-1.1233,-1.2389,-1.2984,-1.3374,-1.466,-1.542,-1.5576,-1.6085,-1.643,-1.736,-1.7256,-1.7298,-1.8995,-1.8823,-1.956,-2.0546,-2.1464,-2.2085,-2.2867,-2.2823,-2.2689,-2.2592,-2.2677,-2.2811,-2.3005,-2.3125,-2.3125,-2.3125,-2.3185,-2.3484,-2.4279,-2.4951,-2.5673,-2.6663,-2.8066,-2.944,-3.0446,-3.1602,-3.2871,-3.4022,-3.4676,-3.4944,-3.534,-3.5554,-3.5611,-3.5611,-3.5603,-3.5544,-3.5388,-3.5287,-3.5197,-3.4999,-3.4695,-3.4532,-3.4508,-3.4464,-3.4334,-3.4218,-3.4405,-3.4824,-3.5133,-3.5454,-3.5582,-3.5646,-3.5717,-3.5714,-3.5667,-3.5464,-3.5224,-3.4947,-3.4737,-3.451,-3.4674,-3.5018,-3.5899,-3.6872,-3.7656,-3.8165,-3.7343,-3.6441,-3.4851,-3.3308,-3.2369,-3.1432,-3.0659,-3.0086,-2.938,-2.8671,-2.7986,-2.7537,-2.7027,-2.6782,-2.6658,-2.6107,-2.5538,-2.4659,-2.3672,-2.2853,-2.2097,-2.1501,-2.1279,-2.1553,-2.1237,-2.0674,-2.0725,-2.1022,-1.9906,-1.8533,-1.0618,-1.0618,-1.0618,-1.0618,-1.0618,-1.0681,-1.1108,-1.1896,-1.2696,-1.3047,-1.3093,-1.4662,-1.5498,-1.586,-1.7196,-1.783,-1.7852,-1.83,-1.8878,-1.9206,-1.98,-2.0427,-2.1055,-2.1922,-2.2548,-2.2627,-2.2628,-2.2445,-2.2063,-2.2322,-2.2689,-2.3053,-2.3185,-2.3245,-2.3245,-2.3245,-2.3708,-2.4439,-2.5063,-2.5892,-2.6886,-2.7898,-2.9098,-3.0154,-3.1202,-3.2563,-3.3691,-3.4496,-3.4962,-3.5326,-3.555,-3.5568,-3.5624,-3.5701,-3.5684,-3.571,-3.5745,-3.5551,-3.5499,-3.5249,-3.4891,-3.4832,-3.4303,-3.4129,-3.4074,-3.4128,-3.4471,-3.5057,-3.5505,-3.5617,-3.5703,-3.5738,-3.5756,-3.5605,-3.5427,-3.5143,-3.4827,-3.4561,-3.4269,-3.4352,-3.4587,-3.5349,-3.6486,-3.7406,-3.8318,-3.7685,-3.6777,-3.5555,-3.4154,-3.313,-3.2195,-3.1306,-3.0777,-3.0389,-2.9628,-2.8862,-2.8038,-2.7471,-2.704,-2.6782,-2.6289,-2.5721,-2.485,-2.3891,-2.2776,-2.1925,-2.1192,-2.0967,-2.1143,-2.0674,-1.9976,-1.973,-1.9965,-1.8608,-1.7365,-1.0618,-1.0618,-1.0618,-1.0618,-1.0681,-1.1226,-1.1896,-1.2696,-1.3485,-1.3588,-1.3076,-1.4696,-1.579,-1.6467,-1.8123,-1.8873,-1.9215,-1.9605,-2.0661,-2.1082,-2.1113,-2.1711,-2.2189,-2.2577,-2.2952,-2.2942,-2.2823,-2.2567,-2.2689,-2.2689,-2.304,-2.3826,-2.3424,-2.3543,-2.3543,-2.3424,-2.4118,-2.4765,-2.5286,-2.6068,-2.7086,-2.8122,-2.9087,-3.0077,-3.1113,-3.2495,-3.3707,-3.4451,-3.4963,-3.5379,-3.5495,-3.5547,-3.5611,-3.6114,-3.6515,-3.7186,-3.6949,-3.6619,-3.6765,-3.5628,-3.5066,-3.5623,-3.5243,-3.4493,-3.4284,-3.4237,-3.4389,-3.5059,-3.5544,-3.5645,-3.5826,-3.5922,-3.5899,-3.5764,-3.5565,-3.527,-3.4939,-3.4457,-3.4228,-3.4428,-3.4642,-3.5475,-3.6549,-3.7552,-3.8267,-3.7808,-3.7046,-3.5941,-3.4835,-3.3756,-3.2664,-3.1724,-3.1292,-3.0837,-3.045,-2.9752,-2.8798,-2.8051,-2.755,-2.6973,-2.644,-2.5804,-2.5063,-2.4108,-2.2999,-2.1897,-2.0819,-2.082,-2.0898,-2.0263,-1.958,-1.9262,-1.8658,-1.7364,-1.6472,-1.0618,-1.0618,-1.0618,-1.0926,-1.16,-1.2089,-1.287,-1.3855,-1.4145,-1.4031,-1.4069,-1.4974,-1.6557,-1.8625,-1.9503,-2.0004,-2.0407,-2.0634,-2.1334,-2.1735,-2.2199,-2.2187,-2.2506,-2.2944,-2.3053,-2.3065,-2.2823,-2.2445,-2.2689,-2.275,-2.304,-2.4176,-2.3721,-2.3943,-2.4002,-2.3969,-2.4509,-2.5181,-2.5814,-2.6383,-2.7395,-2.8532,-2.9373,-3.0266,-3.1392,-3.2722,-3.387,-3.4475,-3.4964,-3.5324,-3.5383,-3.5718,-3.6042,-3.6784,-3.7357,-3.7867,-3.7637,-3.7441,-3.742,-3.6684,-3.6498,-3.6543,-3.6323,-3.5949,-3.523,-3.4974,-3.513,-3.5449,-3.5572,-3.5727,-3.5951,-3.6131,-3.6052,-3.5986,-3.5736,-3.5479,-3.4981,-3.4445,-3.447,-3.4651,-3.519,-3.5985,-3.6906,-3.7812,-3.83,-3.7877,-3.7287,-3.6383,-3.5217,-3.4055,-3.2848,-3.1724,-3.1452,-3.1278,-3.0896,-3.045,-2.9566,-2.862,-2.7868,-2.7284,-2.6633,-2.6094,-2.5581,-2.448,-2.322,-2.2188,-2.1221,-2.0712,-2.0576,-1.9967,-1.9476,-1.8959,-1.8112,-1.6662,-1.5875,-1.0618,-1.0618,-1.0618,-1.1476,-1.2887,-1.2948,-1.3846,-1.5245,-1.4684,-1.4715,-1.5245,-1.5391,-1.7616,-2.0428,-2.0795,-2.0747,-2.1113,-2.1493,-2.1747,-2.2013,-2.2249,-2.2322,-2.2506,-2.2702,-2.3065,-2.2823,-2.2628,-2.2506,-2.2187,-2.2543,-2.3386,-2.4337,-2.4394,-2.462,-2.4983,-2.4767,-2.5354,-2.6453,-2.6539,-2.6844,-2.8032,-2.9076,-3.0022,-3.0859,-3.2013,-3.3266,-3.4051,-3.4587,-3.4983,-3.524,-3.5665,-3.6224,-3.7058,-3.7591,-3.8111,-3.8412,-3.8391,-3.8366,-3.8187,-3.759,-3.7336,-3.7276,-3.7145,-3.7178,-3.6742,-3.5897,-3.5924,-3.5977,-3.6148,-3.6257,-3.6458,-3.6806,-3.6893,-3.664,-3.6325,-3.5875,-3.5287,-3.4817,-3.4569,-3.4724,-3.4963,-3.575,-3.6421,-3.7259,-3.798,-3.7773,-3.725,-3.6475,-3.5555,-3.4396,-3.3171,-3.1864,-3.1567,-3.1467,-3.1278,-3.0837,-3.0147,-2.9317,-2.8441,-2.767,-2.7095,-2.6564,-2.6094,-2.4992,-2.3818,-2.2776,-2.1886,-2.1375,-2.0857,-2.0342,-1.9701,-1.8833,-1.7713,-1.6515,-1.5665,-1.0618,-1.0618,-1.0618,-1.1545,-1.2887,-1.3009,-1.3914,-1.5381,-1.5592,-1.5544,-1.5449,-1.575,-1.8115,-2.1946,-2.1152,-2.0971,-2.164,-2.182,-2.231,-2.258,-2.2702,-2.2628,-2.2763,-2.2944,-2.3125,-2.3078,-2.2884,-2.2811,-2.2932,-2.3386,-2.4079,-2.5034,-2.5244,-2.5577,-2.6456,-2.6202,-2.6537,-2.7669,-2.7869,-2.84,-2.9817,-3.0192,-3.0828,-3.1892,-3.311,-3.3984,-3.4875,-3.5843,-3.6054,-3.6213,-3.7018,-3.78,-3.8638,-3.8709,-3.9176,-3.9676,-3.9406,-3.9328,-3.9202,-3.8677,-3.8274,-3.8474,-3.8515,-3.8486,-3.8067,-3.7149,-3.6677,-3.6723,-3.6779,-3.6873,-3.7077,-3.7456,-3.7676,-3.7319,-3.6877,-3.6255,-3.5603,-3.5139,-3.4747,-3.4734,-3.4824,-3.5313,-3.595,-3.6648,-3.7363,-3.736,-3.6865,-3.6246,-3.5591,-3.4595,-3.3588,-3.2415,-3.1739,-3.1524,-3.1409,-3.1219,-3.0584,-2.9889,-2.9066,-2.8298,-2.7471,-2.6824,-2.6176,-2.5441,-2.4492,-2.3588,-2.2702,-2.1952,-2.1441,-2.0837,-2.001,-1.9225,-1.8575,-1.7598,-1.6324,-1.0618,-1.0618,-1.0618,-1.1545,-1.285,-1.3174,-1.4223,-1.5592,-1.6172,-1.623,-1.5906,-1.5979,-1.824,-2.2322,-2.1303,-2.1038,-2.1756,-2.1877,-2.2075,-2.2445,-2.2884,-2.3065,-2.3065,-2.3065,-2.3125,-2.3138,-2.3641,-2.3819,-2.376,-2.4421,-2.5174,-2.6119,-2.6397,-2.6818,-2.7818,-2.7541,-2.7798,-2.8785,-2.9088,-3.0212,-3.1549,-3.1779,-3.195,-3.2994,-3.3928,-3.4806,-3.5393,-3.6278,-3.6499,-3.6896,-3.7714,-3.8172,-3.8746,-3.9032,-3.9599,-3.9983,-4.003,-4.0034,-4.0047,-3.9753,-3.9143,-3.9403,-3.973,-3.9625,-3.9243,-3.8365,-3.7784,-3.7773,-3.7516,-3.7582,-3.7949,-3.8332,-3.8344,-3.8103,-3.7382,-3.6649,-3.5721,-3.4913,-3.4479,-3.4154,-3.4395,-3.4886,-3.5563,-3.6242,-3.6796,-3.677,-3.6326,-3.6041,-3.5361,-3.4521,-3.3582,-3.2751,-3.1925,-3.1534,-3.1467,-3.1336,-3.1029,-3.0329,-2.9648,-2.8427,-2.7351,-2.685,-2.6245,-2.5734,-2.5229,-2.4564,-2.3745,-2.285,-2.2103,-2.1507,-2.0595,-1.9618,-1.9036,-1.855,-1.7524,-1.0618,-1.0618,-1.0665,-1.1575,-1.296,-1.3509,-1.4577,-1.6011,-1.6592,-1.6733,-1.6612,-1.6061,-1.8792,-2.0795,-2.1116,-2.1288,-2.1346,-2.1164,-2.1428,-2.1865,-2.231,-2.2506,-2.2702,-2.2884,-2.2944,-2.3318,-2.3949,-2.4262,-2.4445,-2.5322,-2.6398,-2.7377,-2.7842,-2.8086,-2.845,-2.8753,-2.9071,-2.984,-3.0567,-3.1723,-3.2599,-3.319,-3.3387,-3.4006,-3.4755,-3.5496,-3.5845,-3.6276,-3.6665,-3.7093,-3.7932,-3.845,-3.8804,-3.9176,-3.9523,-3.9898,-4.0028,-4.0121,-4.029,-4.0331,-4.0109,-4.0193,-4.0512,-4.0372,-3.9869,-3.9431,-3.8839,-3.8546,-3.8294,-3.839,-3.8777,-3.9076,-3.9045,-3.8728,-3.7913,-3.6994,-3.5913,-3.4922,-3.4423,-3.3976,-3.4207,-3.4676,-3.4984,-3.5675,-3.5802,-3.5826,-3.5735,-3.5536,-3.5098,-3.4057,-3.3062,-3.2352,-3.1665,-3.1454,-3.1369,-3.1155,-3.0878,-3.0631,-2.9768,-2.8397,-2.7232,-2.6646,-2.6332,-2.6383,-2.5804,-2.5193,-2.4541,-2.3734,-2.2925,-2.2103,-2.1354,-2.0518,-1.9756,-1.9274,-1.8709,-1.0618,-1.0638,-1.0815,-1.1731,-1.2964,-1.3702,-1.4843,-1.6108,-1.6924,-1.7086,-1.6927,-1.753,-1.9071,-2.0951,-1.9286,-1.9318,-2.0696,-2.0409,-2.0462,-2.0846,-2.129,-2.1616,-2.2087,-2.2445,-2.2641,-2.3283,-2.4112,-2.4596,-2.5428,-2.6498,-2.7396,-2.8194,-2.8906,-2.9326,-2.9844,-3.0051,-3.0186,-3.0774,-3.1524,-3.261,-3.3308,-3.3924,-3.4622,-3.5206,-3.5831,-3.6108,-3.6531,-3.737,-3.7412,-3.7488,-3.775,-3.8471,-3.8895,-3.9146,-3.9392,-3.9624,-3.9757,-3.9852,-3.999,-4.0202,-4.0071,-3.998,-4.0108,-4.005,-3.9696,-3.9539,-3.9122,-3.901,-3.892,-3.9161,-3.9507,-3.9886,-3.9927,-3.9251,-3.8482,-3.7355,-3.6236,-3.553,-3.4924,-3.4547,-3.4425,-3.4323,-3.3977,-3.4369,-3.4404,-3.4387,-3.4381,-3.4213,-3.4295,-3.3395,-3.2548,-3.1967,-3.1377,-3.0922,-3.0664,-3.0657,-3.0473,-3.0365,-2.9883,-2.8443,-2.7299,-2.6343,-2.6072,-2.6013,-2.6127,-2.5775,-2.5075,-2.4376,-2.3661,-2.284,-2.2178,-2.142,-2.0682,-2.0001,-1.9432]},{"header":{"parameterUnit":"m.s-1","parameterCategory":1,"la1":31.0,"la2":29.5877,"lo1":-88.7671,"lo2":-86.6584,"dy":0.0162,"dx":0.0185,"nx":115,"ny":88,"refTime":"2024-09-15T18:00:00:Z","depth":0,"parameterNumber":3,"parameterNumberName":"V-component_of_WINDS"},"data":[0.0,0.0,0.0,0.0,0.0,0.0,0.0,0.0,0.0,0.0,0.0,0.0,0.0,0.0,0.0,0.0,0.0,0.0,0.0,0.0,0.0,0.0,0.0,0.0,0.0,0.0,0.0,0.0,0.0,0.0,0.0,0.0,0.0,0.0,0.0,0.0,0.0,0.0,0.0,0.0,0.0,0.0,0.0,0.0,0.0,0.0,0.0,0.0,0.0,0.0,0.0,0.0,0.0,0.0,0.0,0.0,0.0,0.0,0.0,0.0,0.0,0.0,0.0,0.0,0.0,0.0,0.0,0.0,0.0,0.0,0.0,0.0,0.0,0.0,0.0,0.0,0.0,0.0,0.0,0.0,0.0,0.0,0.0,0.0,0.0,0.0,0.0,0.0,0.0,0.0,0.0,0.0,0.0,0.0,0.0,0.0,0.0,0.0,0.0,0.0,0.0,0.0,0.0,0.0,0.0,0.0,0.0,0.0,0.0,0.0,0.0,0.0,0.0,0.0,0.0,0.0,0.0,0.0,0.0,0.0,0.0,0.0,0.0,0.0,0.0,0.0,0.0,0.0,0.0,0.0,0.0,0.0,0.0,0.0,0.0,0.0,0.0,0.0,0.0,0.0,0.0,0.0,0.0,0.0,0.0,0.0,0.0,0.0,0.0,0.0,0.0,0.0,0.0,0.0,0.0,0.0,0.0,0.0,0.0,0.0,0.0,0.0,0.0,0.0,0.0,0.0,0.0,0.0,0.0,0.0,0.0,0.0,0.0,0.0,0.0,0.0,0.0,0.0,0.0,0.0,0.0,0.0,0.0,0.0,0.0,0.0,0.0,0.0,0.0,0.0,0.0,0.0,0.0,0.0,0.0,0.0,0.0,0.0,0.0,0.0,0.0,0.0,0.0,0.0,0.0,0.0,0.0,0.0,0.0,0.0,0.0,0.0,0.0,0.0,0.0,0.0,0.0,0.0,0.0,0.0,0.0,0.0,0.0,0.0,0.0,0.0,0.0,0.0,0.0,0.0,0.0,0.0,0.0,0.0,0.0,0.0,0.0,0.0,0.0,0.0,0.0,0.0,0.0,0.0,0.0,0.0,0.0,0.0,0.0,0.0,0.0,0.0,0.0,0.0,0.0,0.0,0.0,0.0,0.0,0.0,0.0,0.0,0.0,0.0,0.0,0.0,0.0,0.0,0.0,0.0,0.0,0.0,0.0,0.0,0.0,0.0,0.0,0.0,0.0,0.0,0.0,0.0,0.0,0.0,0.0,0.0,0.0,0.0,0.0,0.0,0.0,0.0,0.0,0.0,0.0,0.0,0.0,0.0,0.0,0.0,0.0,0.0,0.0,0.0,0.0,0.0,0.0,0.0,0.0,0.0,0.0,0.0,0.0,0.0,0.0,0.0,0.0,0.0,0.0,0.0,0.0,0.0,0.0,0.0,0.0,0.0,0.0,0.0,0.0,0.0,0.0,0.0,0.0,0.0,0.0,0.0,0.0,0.0,0.0,0.0,0.0,0.0,0.0,0.0,0.0,0.0,0.0,0.0,0.0,0.0,0.0,0.0,0.0,0.0,0.0,0.0,0.0,0.0,0.0,0.0,0.0,0.0,0.0,0.0,0.0,0.0,0.0,0.0,0.0,0.0,0.0,0.0,0.0,0.0,0.0,0.0,0.0,0.0,0.0,0.0,0.0,0.0,0.0,0.0,0.0,0.0,0.0,0.0,0.0,0.0,0.0,0.0,0.0,0.0,0.0,0.0,0.0,0.0,0.0,0.0,0.0,0.0,0.0,0.0,0.0,0.0,0.0,0.0,0.0,0.0,0.0,0.0,0.0,0.0,0.0,0.0,0.0,0.0,0.0,0.0,0.0,0.0,0.0,0.0,0.0,0.0,0.0,0.0,0.0,0.0,0.0,0.0,0.0,0.0,0.0,0.0,0.0,0.0,0.0,0.0,0.0,0.0,0.0,0.0,0.0,0.0,0.0,0.0,0.0,0.0,0.0,0.0,0.0,0.0,0.0,0.0,0.0,0.0,0.0,0.0,0.0,0.0,0.0,0.0,0.0,0.0,0.0,0.0,0.0,0.0,0.0,0.0,0.0,0.0,0.0,0.0,0.0,0.0,0.0,0.0,0.0,0.0,0.0,0.0,0.0,0.0,0.0,0.0,0.0,0.0,0.0,0.0,0.0,0.0,0.0,0.0,0.0,0.0,0.0,0.0,0.0,0.0,0.0,0.0,0.0,0.0,0.0,0.0,0.0,0.0,0.0,0.0,0.0,0.0,0.0,0.0,0.0,0.0,0.0,0.0,0.0,0.0,0.0,0.0,0.0,0.0,0.0,0.0,0.0,0.0,0.0,0.0,0.0,0.0,0.0,0.0,0.0,0.0,0.0,0.0,0.0,0.0,0.0,0.0,0.0,0.0,0.0,0.0,0.0,0.0,0.0,0.0,0.0,0.0,0.0,0.0,0.0,0.0,0.0,0.0,0.0,0.0,0.0,0.0,0.0,0.0,0.0,0.0,0.0,0.0,0.0,0.0,0.0,0.0,0.0,0.0,0.0,0.0,0.0,0.0,0.0,0.0,0.0,0.0,0.0,0.0,0.0,0.0,0.0,0.0,0.0,0.0,0.0,0.0,0.0,0.0,0.0,0.0,0.0,0.0,0.0,0.0,0.0,0.0,0.0,0.0,0.0,0.0,0.0,0.0,0.0,0.0,0.0,0.0,0.0,0.0,0.0,0.0,0.0,0.0,0.0,0.0,0.0,0.0,0.0,0.0,0.0,0.0,0.0,0.0,0.0,0.0,0.0,0.0,0.0,0.0,0.0,0.0,0.0,0.0,0.0,0.0,0.0,0.0,0.0,0.0,0.0,0.0,0.0,0.0,0.0,0.0,0.0,0.0,0.0,0.0,0.0,0.0,0.0,0.0,0.0,0.0,0.0,0.0,0.0,0.0,0.0,0.0,0.0,0.0,0.0,0.0,0.0,0.0,0.0,0.0,0.0,0.0,0.0,0.0,0.0,0.0,0.0,0.0,0.0,0.0,0.0,0.0,0.0,0.0,0.0,0.0,0.0,0.0,0.0,0.0,0.0,0.0,0.0,0.0,0.0,0.0,0.0,0.0,0.0,0.0,0.0,0.0,0.0,0.0,0.0,0.0,0.0,0.0,0.0,0.0,0.0,0.0,0.0,0.0,0.0,0.0,0.0,0.0,0.0,0.0,0.0,0.0,0.0,0.0,0.0,0.0,0.0,0.0,0.0,0.0,0.0,0.0,0.0,0.0,0.0,0.0,0.0,0.0,0.0,0.0,0.0,0.0,0.0,0.0,0.0,0.0,0.0,0.0,0.0,0.0,0.0,0.0,0.0,0.0,0.0,0.0,0.0,0.0,0.0,0.0,0.0,0.0,0.0,0.0,0.0,0.0,0.0,0.0,0.0,0.0,0.0,0.0,0.0,0.0,0.0,0.0,0.0,0.0,0.0,0.0,0.0,0.0,0.0,0.0,0.0,0.0,0.0,0.0,0.0,0.0,0.0,0.0,0.0,0.0,0.0,0.0,0.0,0.0,0.0,0.0,0.0,0.0,0.0,0.0,0.0,0.0,0.0,0.0,0.0,0.0,0.0,0.0,0.0,0.0,0.0,0.0,0.0,0.0,0.0,0.0,0.0,0.0,0.0,0.0,0.0,0.0,0.0,0.0,0.0,0.0,0.0,0.0,0.0,0.0,0.0,0.0,0.0,0.0,0.0,0.0,0.0,0.0,0.0,0.0,0.0,0.0,0.0,0.0,0.0,0.0,0.0,0.0,0.0,0.0,0.0,0.0,0.0,0.0,0.0,0.0,0.0,0.0,0.0,0.0,0.0,0.0,0.0,0.0,0.0,0.0,0.0,0.0,0.0,0.0,0.0,0.0,0.0,0.0,0.0,0.0,0.0,0.0,0.0,0.0,0.0,0.0,0.0,0.0,0.0,0.0,0.0,0.0,0.0,0.0,0.0,0.0,0.0,0.0,0.0,0.0,0.0,0.0,0.0,0.0,0.0,0.0,0.0,0.0,0.0,0.0,0.0,0.0,0.0,0.0,0.0,0.0,0.0,0.0,0.0,0.0,0.0,0.0,0.0,0.0,0.0,0.0,0.0,0.0,0.0,0.0,0.0,0.0,0.0,0.0,0.0,0.0,0.0,0.0,0.0,0.0,0.0,0.0,0.0,0.0,0.0,0.0,0.0,0.0,0.0,0.0,0.0,0.0,0.0,0.0,0.0,0.0,0.0,0.0,0.0,0.0,2.5762,0.0,0.0,0.0,0.0,0.0,0.0,0.0,0.0,0.0,0.0,0.0,0.0,0.0,0.0,0.0,0.0,0.0,0.0,0.0,0.0,0.0,0.0,0.0,0.0,0.0,0.0,0.0,0.0,0.0,0.0,0.0,0.0,0.0,0.0,0.0,0.0,0.0,0.0,0.0,0.0,0.0,0.0,0.0,0.0,0.0,0.0,0.0,0.0,0.0,0.0,0.0,0.0,0.0,0.0,0.0,0.0,0.0,0.0,0.0,0.0,0.0,0.0,0.0,0.0,0.0,0.0,0.0,0.0,0.0,0.0,0.0,0.0,0.0,0.0,0.0,0.0,0.0,0.0,0.0,0.0,0.0,0.0,0.0,0.0,0.0,0.0,0.0,0.0,0.0,0.0,0.0,0.0,0.0,0.0,0.0,0.0,0.0,0.0,0.0,0.0,0.0,0.0,0.0,0.0,0.0,0.0,0.0,0.0,0.0,0.0,2.7,2.6247,2.6716,2.6602,2.5781,0.0,0.0,0.0,0.0,0.0,0.0,0.0,0.0,0.0,0.0,0.0,0.0,0.0,0.0,0.0,0.0,0.0,0.0,0.0,0.0,0.0,0.0,0.0,0.0,0.0,0.0,0.0,0.0,0.0,0.0,0.0,0.0,0.0,0.0,0.0,0.0,0.0,0.0,0.0,0.0,0.0,0.0,0.0,0.0,0.0,0.0,0.0,0.0,0.0,0.0,0.0,0.0,0.0,0.0,0.0,0.0,0.0,0.0,0.0,0.0,0.0,0.0,0.0,0.0,0.0,0.0,0.0,0.0,0.0,0.0,0.0,0.0,0.0,0.0,0.0,0.0,0.0,0.0,0.0,0.0,0.0,0.0,0.0,0.0,0.0,0.0,0.0,0.0,0.0,0.0,0.0,0.0,0.0,0.0,0.0,0.0,0.0,0.0,0.0,0.0,0.0,0.0,0.0,0.0,0.0,0.0,0.0,0.0,0.0,0.0,0.0,0.0,2.7085,2.7676,2.7246,0.0,0.0,0.0,0.0,0.0,0.0,0.0,0.0,0.0,0.0,0.0,0.0,0.0,0.0,0.0,0.0,0.0,0.0,0.0,0.0,0.0,0.0,0.0,0.0,0.0,0.0,0.0,0.0,0.0,0.0,0.0,0.0,0.0,0.0,0.0,0.0,0.0,0.0,0.0,0.0,0.0,0.0,0.0,0.0,0.0,0.0,0.0,0.0,0.0,0.0,0.0,0.0,0.0,0.0,0.0,0.0,0.0,0.0,0.0,0.0,0.0,0.0,0.0,0.0,0.0,0.0,0.0,0.0,0.0,0.0,0.0,0.0,0.0,0.0,0.0,0.0,0.0,0.0,0.0,0.0,0.0,0.0,0.0,0.0,0.0,0.0,0.0,0.0,0.0,0.0,0.0,0.0,0.0,0.0,0.0,0.0,0.0,0.0,0.0,0.0,0.0,0.0,0.0,0.0,0.0,0.0,0.0,0.0,0.0,0.0,2.5615,2.5659,2.8793,0.0,3.1543,0.0,0.0,0.0,0.0,0.0,0.0,0.0,0.0,0.0,0.0,0.0,0.0,0.0,0.0,0.0,0.0,0.0,0.0,0.0,0.0,0.0,0.0,0.0,0.0,0.0,0.0,0.0,0.0,0.0,0.0,0.0,0.0,0.0,0.0,0.0,0.0,0.0,0.0,0.0,0.0,0.0,0.0,0.0,0.0,0.0,0.0,0.0,0.0,0.0,0.0,0.0,0.0,0.0,0.0,0.0,0.0,0.0,0.0,0.0,0.0,0.0,0.0,0.0,0.0,0.0,0.0,0.0,0.0,0.0,0.0,0.0,0.0,0.0,0.0,0.0,0.0,0.0,0.0,0.0,0.0,0.0,0.0,0.0,0.0,0.0,0.0,0.0,0.0,0.0,0.0,0.0,0.0,0.0,0.0,0.0,0.0,0.0,0.0,0.0,0.0,0.0,0.0,0.0,0.0,0.0,0.0,0.0,0.0,0.0,0.0,2.7984,2.8602,2.9597,3.0293,0.0,0.0,0.0,0.0,0.0,0.0,0.0,0.0,0.0,0.0,0.0,0.0,0.0,0.0,0.0,0.0,0.0,0.0,0.0,0.0,0.0,0.0,0.0,0.0,0.0,0.0,0.0,0.0,0.0,0.0,0.0,0.0,0.0,0.0,0.0,0.0,0.0,0.0,0.0,0.0,0.0,0.0,0.0,0.0,0.0,0.0,0.0,0.0,0.0,0.0,0.0,0.0,0.0,0.0,0.0,0.0,0.0,0.0,0.0,0.0,0.0,0.0,0.0,0.0,0.0,0.0,0.0,0.0,0.0,0.0,0.0,0.0,0.0,0.0,0.0,0.0,0.0,0.0,0.0,0.0,0.0,0.0,0.0,0.0,0.0,0.0,0.0,0.0,0.0,0.0,0.0,0.0,0.0,0.0,0.0,0.0,0.0,0.0,0.0,0.0,0.0,0.0,0.0,0.0,0.0,0.0,0.0,0.0,0.0,0.0,2.8348,3.0021,3.1627,3.128,3.0684,2.998,0.0,0.0,0.0,0.0,0.0,0.0,0.0,0.0,0.0,0.0,0.0,0.0,0.0,0.0,0.0,0.0,0.0,0.0,0.0,0.0,0.0,0.0,0.0,0.0,0.0,0.0,0.0,0.0,0.0,0.0,0.0,0.0,0.0,0.0,0.0,0.0,0.0,0.0,0.0,0.0,0.0,0.0,0.0,0.0,0.0,0.0,0.0,0.0,0.0,0.0,0.0,0.0,0.0,0.0,0.0,0.0,0.0,0.0,0.0,0.0,0.0,0.0,0.0,0.0,0.0,0.0,0.0,0.0,0.0,0.0,0.0,0.0,0.0,0.0,0.0,0.0,0.0,0.0,0.0,0.0,0.0,0.0,0.0,0.0,0.0,0.0,0.0,0.0,0.0,0.0,0.0,0.0,0.0,0.0,0.0,0.0,0.0,0.0,0.0,0.0,0.0,0.0,0.0,0.0,0.0,0.0,0.0,0.0,0.0,2.9506,3.0877,3.4265,3.4428,3.332,0.0,0.0,0.0,0.0,0.0,0.0,0.0,0.0,0.0,0.0,0.0,0.0,0.0,0.0,0.0,0.0,0.0,0.0,0.0,0.0,0.0,0.0,0.0,0.0,0.0,0.0,0.0,0.0,0.0,0.0,0.0,0.0,0.0,0.0,0.0,0.0,0.0,0.0,0.0,0.0,0.0,0.0,0.0,0.0,0.0,0.0,0.0,0.0,0.0,0.0,0.0,0.0,0.0,0.0,0.0,0.0,0.0,0.0,0.0,0.0,0.0,0.0,0.0,0.0,0.0,0.0,0.0,0.0,0.0,0.0,0.0,0.0,0.0,0.0,0.0,0.0,0.0,0.0,0.0,0.0,0.0,0.0,0.0,0.0,0.0,0.0,0.0,0.0,0.0,0.0,0.0,0.0,0.0,0.0,0.0,0.0,0.0,0.0,0.0,0.0,0.0,0.0,0.0,0.0,0.0,0.0,0.0,0.0,0.0,2.7138,2.905,3.2018,3.583,3.3077,3.1715,0.0,0.0,0.0,0.0,0.0,0.0,0.0,0.0,0.0,0.0,0.0,0.0,0.0,0.0,0.0,0.0,0.0,0.0,0.0,0.0,0.0,0.0,0.0,0.0,0.0,0.0,0.0,0.0,0.0,0.0,0.0,0.0,0.0,0.0,0.0,0.0,0.0,0.0,0.0,0.0,0.0,0.0,0.0,0.0,0.0,0.0,0.0,0.0,0.0,0.0,0.0,0.0,0.0,0.0,0.0,0.0,0.0,0.0,0.0,0.0,0.0,0.0,0.0,0.0,0.0,0.0,0.0,0.0,0.0,0.0,0.0,0.0,0.0,0.0,0.0,0.0,0.0,0.0,0.0,0.0,0.0,0.0,0.0,0.0,0.0,0.0,0.0,0.0,0.0,0.0,0.0,0.0,0.0,0.0,0.0,0.0,0.0,0.0,0.0,0.0,0.0,0.0,0.0,0.0,0.0,0.0,0.0,0.0,0.0,2.6986,0.0,3.2967,0.0,3.2093,3.0495,0.0,0.0,0.0,0.0,0.0,0.0,0.0,0.0,0.0,0.0,0.0,0.0,0.0,0.0,0.0,0.0,0.0,0.0,0.0,0.0,0.0,0.0,0.0,0.0,0.0,0.0,0.0,0.0,0.0,0.0,0.0,0.0,0.0,0.0,0.0,0.0,0.0,0.0,0.0,0.0,0.0,0.0,0.0,0.0,0.0,0.0,0.0,0.0,0.0,0.0,0.0,0.0,0.0,0.0,0.0,0.0,0.0,0.0,0.0,0.0,0.0,0.0,0.0,0.0,0.0,0.0,0.0,0.0,0.0,0.0,0.0,0.0,0.0,0.0,0.0,0.0,0.0,0.0,0.0,0.0,0.0,0.0,0.0,0.0,0.0,0.0,0.0,0.0,0.0,0.0,0.0,0.0,0.0,0.0,0.0,0.0,0.0,0.0,0.0,0.0,0.0,0.0,0.0,0.0,0.0,0.0,0.0,0.0,2.6188,3.016,3.2789,3.3499,3.2069,3.1938,3.0018,0.0,0.0,0.0,0.0,0.0,0.0,0.0,0.0,0.0,0.0,0.0,0.0,0.0,0.0,0.0,0.0,0.0,0.0,0.0,0.0,0.0,0.0,0.0,0.0,0.0,0.0,0.0,0.0,0.0,0.0,0.0,0.0,0.0,0.0,0.0,0.0,0.0,0.0,0.0,0.0,0.0,0.0,0.0,0.0,0.0,0.0,0.0,0.0,0.0,0.0,0.0,0.0,0.0,0.0,0.0,0.0,0.0,0.0,0.0,0.0,0.0,0.0,0.0,0.0,0.0,0.0,0.0,0.0,0.0,0.0,0.0,0.0,0.0,0.0,0.0,0.0,0.0,0.0,0.0,0.0,0.0,0.0,0.0,0.0,0.0,0.0,0.0,0.0,0.0,0.0,0.0,0.0,0.0,0.0,0.0,0.0,0.0,0.0,0.0,0.0,0.0,0.0,0.0,0.0,0.0,0.0,0.0,0.0,0.0,2.8769,3.1343,3.3646,3.5323,3.1529,3.0183,0.0,0.0,0.0,0.0,0.0,0.0,0.0,0.0,0.0,0.0,0.0,0.0,0.0,0.0,0.0,0.0,0.0,0.0,0.0,0.0,0.0,0.0,0.0,0.0,0.0,0.0,0.0,0.0,0.0,0.0,0.0,0.0,0.0,0.0,0.0,0.0,0.0,0.0,0.0,0.0,0.0,0.0,0.0,0.0,0.0,0.0,0.0,0.0,0.0,0.0,0.0,0.0,0.0,0.0,0.0,0.0,0.0,0.0,0.0,0.0,0.0,0.0,0.0,0.0,0.0,0.0,0.0,0.0,0.0,0.0,0.0,0.0,0.0,0.0,0.0,0.0,0.0,0.0,0.0,0.0,0.0,0.0,0.0,0.0,0.0,0.0,0.0,0.0,0.0,0.0,0.0,0.0,0.0,0.0,0.0,0.0,0.0,0.0,0.0,0.0,0.0,0.0,0.0,0.0,0.0,0.0,0.0,0.0,0.0,3.0525,3.2672,3.4759,3.6677,3.2104,3.0456,3.2129,0.0,0.0,0.0,0.0,0.0,0.0,0.0,0.0,0.0,0.0,0.0,0.0,0.0,0.0,0.0,0.0,0.0,0.0,0.0,0.0,0.0,0.0,0.0,0.0,0.0,0.0,0.0,0.0,0.0,0.0,0.0,0.0,0.0,0.0,0.0,0.0,0.0,0.0,0.0,0.0,0.0,0.0,0.0,0.0,0.0,0.0,0.0,0.0,0.0,0.0,0.0,0.0,0.0,0.0,0.0,0.0,0.0,0.0,0.0,0.0,0.0,0.0,0.0,0.0,0.0,0.0,0.0,0.0,0.0,0.0,0.0,0.0,0.0,0.0,0.0,0.0,0.0,0.0,0.0,0.0,0.0,0.0,0.0,0.0,0.0,0.0,0.0,0.0,0.0,0.0,0.0,0.0,0.0,0.0,0.0,0.0,0.0,0.0,0.0,0.0,0.0,0.0,0.0,0.0,0.0,0.0,0.0,0.0,3.4715,3.6441,3.7035,3.6336,3.3623,3.106,0.0,0.0,0.0,0.0,0.0,0.0,0.0,0.0,0.0,0.0,0.0,0.0,0.0,0.0,0.0,0.0,0.0,0.0,0.0,0.0,0.0,0.0,0.0,0.0,0.0,0.0,0.0,0.0,0.0,0.0,0.0,0.0,0.0,0.0,0.0,0.0,0.0,0.0,0.0,0.0,0.0,0.0,0.0,0.0,0.0,0.0,0.0,0.0,0.0,0.0,0.0,0.0,0.0,0.0,0.0,0.0,0.0,0.0,0.0,0.0,0.0,0.0,0.0,0.0,0.0,0.0,0.0,0.0,0.0,0.0,0.0,0.0,0.0,0.0,0.0,0.0,0.0,0.0,0.0,0.0,0.0,0.0,0.0,0.0,0.0,0.0,0.0,0.0,0.0,0.0,0.0,0.0,0.0,0.0,0.0,0.0,0.0,0.0,0.0,0.0,0.0,0.0,0.0,0.0,0.0,0.0,0.0,0.0,0.0,3.6348,3.9658,4.1151,4.0623,3.6265,3.3605,0.0,0.0,0.0,0.0,0.0,0.0,0.0,0.0,0.0,0.0,0.0,0.0,0.0,0.0,0.0,0.0,0.0,0.0,0.0,0.0,0.0,0.0,0.0,0.0,0.0,0.0,0.0,0.0,0.0,0.0,0.0,0.0,0.0,0.0,0.0,0.0,0.0,0.0,0.0,0.0,0.0,0.0,0.0,0.0,0.0,0.0,0.0,0.0,0.0,0.0,0.0,0.0,0.0,0.0,0.0,0.0,0.0,0.0,0.0,0.0,0.0,0.0,0.0,0.0,0.0,0.0,0.0,0.0,0.0,0.0,0.0,0.0,0.0,0.0,0.0,0.0,0.0,0.0,0.0,0.0,0.0,0.0,0.0,0.0,0.0,0.0,0.0,0.0,0.0,0.0,0.0,0.0,0.0,0.0,0.0,0.0,0.0,0.0,0.0,0.0,0.0,0.0,0.0,0.0,0.0,0.0,0.0,0.0,3.2717,3.8623,4.1786,4.3426,4.3496,3.9133,3.5747,0.0,0.0,0.0,0.0,0.0,0.0,0.0,0.0,0.0,0.0,0.0,0.0,0.0,0.0,0.0,0.0,0.0,0.0,0.0,0.0,0.0,0.0,0.0,0.0,0.0,0.0,0.0,0.0,0.0,0.0,0.0,0.0,0.0,0.0,0.0,0.0,0.0,0.0,0.0,0.0,0.0,0.0,0.0,0.0,0.0,0.0,0.0,0.0,0.0,0.0,0.0,0.0,0.0,0.0,0.0,0.0,0.0,0.0,0.0,0.0,0.0,0.0,0.0,0.0,0.0,0.0,0.0,0.0,0.0,0.0,0.0,0.0,0.0,0.0,0.0,0.0,0.0,0.0,0.0,0.0,0.0,0.0,0.0,0.0,0.0,0.0,0.0,0.0,0.0,0.0,0.0,0.0,0.0,0.0,0.0,0.0,0.0,0.0,0.0,0.0,0.0,0.0,0.0,0.0,0.0,0.0,0.0,0.0,3.451,4.0827,4.317,4.4526,4.4859,4.1737,3.7592,0.0,0.0,0.0,0.0,0.0,0.0,0.0,0.0,0.0,0.0,0.0,0.0,0.0,0.0,0.0,0.0,0.0,0.0,0.0,0.0,0.0,0.0,0.0,0.0,0.0,0.0,0.0,0.0,0.0,0.0,0.0,0.0,0.0,0.0,0.0,0.0,0.0,0.0,0.0,0.0,0.0,0.0,0.0,0.0,0.0,0.0,0.0,0.0,0.0,0.0,0.0,0.0,0.0,0.0,0.0,0.0,0.0,0.0,0.0,0.0,0.0,0.0,0.0,0.0,0.0,0.0,0.0,0.0,0.0,0.0,0.0,0.0,0.0,0.0,0.0,0.0,0.0,0.0,0.0,0.0,0.0,0.0,0.0,0.0,0.0,0.0,0.0,0.0,0.0,0.0,0.0,0.0,0.0,0.0,0.0,0.0,0.0,0.0,0.0,0.0,0.0,0.0,0.0,0.0,0.0,0.0,0.0,0.0,3.7578,4.0785,4.4118,4.5495,4.4761,4.2178,3.8673,0.0,0.0,0.0,0.0,0.0,0.0,0.0,0.0,0.0,0.0,0.0,0.0,0.0,0.0,0.0,0.0,0.0,0.0,0.0,0.0,0.0,0.0,0.0,0.0,0.0,0.0,0.0,0.0,0.0,0.0,0.0,0.0,0.0,0.0,0.0,0.0,0.0,0.0,0.0,0.0,0.0,0.0,0.0,0.0,0.0,0.0,0.0,0.0,3.2131,0.0,0.0,0.0,0.0,0.0,0.0,0.0,0.0,0.0,0.0,0.0,0.0,0.0,0.0,0.0,0.0,0.0,0.0,0.0,0.0,0.0,0.0,0.0,0.0,0.0,0.0,0.0,0.0,0.0,0.0,0.0,0.0,0.0,0.0,0.0,0.0,0.0,0.0,0.0,0.0,0.0,0.0,0.0,0.0,0.0,0.0,0.0,0.0,0.0,0.0,0.0,0.0,0.0,0.0,0.0,0.0,0.0,0.0,0.0,3.7781,4.2584,4.506,4.6011,4.5406,4.3375,3.9852,0.0,0.0,0.0,0.0,0.0,0.0,0.0,0.0,0.0,0.0,0.0,0.0,0.0,0.0,0.0,0.0,0.0,0.0,0.0,0.0,0.0,0.0,0.0,0.0,0.0,0.0,0.0,0.0,0.0,0.0,0.0,0.0,0.0,0.0,0.0,0.0,0.0,0.0,0.0,0.0,0.0,0.0,0.0,0.0,0.0,0.0,0.0,0.0,0.0,0.0,0.0,0.0,0.0,0.0,0.0,0.0,0.0,0.0,0.0,0.0,0.0,0.0,0.0,0.0,0.0,0.0,0.0,0.0,0.0,0.0,0.0,0.0,0.0,0.0,0.0,0.0,0.0,0.0,0.0,0.0,0.0,0.0,0.0,0.0,0.0,0.0,0.0,0.0,0.0,0.0,0.0,0.0,0.0,0.0,0.0,0.0,0.0,0.0,0.0,0.0,0.0,0.0,0.0,0.0,0.0,0.0,0.0,3.4039,3.7148,4.4356,4.575,4.6237,4.6074,4.4433,4.0701,3.4878,0.0,0.0,0.0,0.0,0.0,0.0,0.0,0.0,0.0,0.0,0.0,0.0,0.0,0.0,0.0,0.0,0.0,0.0,0.0,0.0,0.0,0.0,0.0,0.0,0.0,0.0,0.0,0.0,0.0,0.0,0.0,0.0,0.0,0.0,0.0,0.0,0.0,0.0,2.9173,3.29,0.0,0.0,0.0,0.0,0.0,0.0,0.0,0.0,3.4428,0.0,0.0,0.0,0.0,0.0,0.0,0.0,0.0,0.0,0.0,0.0,0.0,0.0,0.0,0.0,0.0,0.0,0.0,0.0,0.0,0.0,0.0,0.0,0.0,0.0,0.0,0.0,0.0,0.0,0.0,0.0,0.0,0.0,0.0,0.0,0.0,0.0,0.0,0.0,0.0,0.0,0.0,0.0,0.0,0.0,0.0,0.0,0.0,0.0,0.0,0.0,0.0,0.0,0.0,0.0,0.0,3.6579,3.5908,3.8233,4.3658,4.5462,4.5956,4.5215,4.3516,4.0078,3.4916,0.0,0.0,0.0,0.0,0.0,0.0,0.0,0.0,0.0,0.0,0.0,0.0,0.0,0.0,0.0,0.0,0.0,0.0,0.0,0.0,0.0,0.0,0.0,0.0,0.0,0.0,0.0,0.0,0.0,0.0,0.0,0.0,0.0,0.0,0.0,0.0,0.0,0.0,0.0,3.7944,3.9602,0.0,0.0,0.0,0.0,0.0,0.0,0.0,0.0,3.4784,0.0,0.0,0.0,0.0,0.0,0.0,0.0,0.0,0.0,0.0,0.0,0.0,0.0,0.0,0.0,0.0,0.0,0.0,0.0,0.0,0.0,0.0,0.0,0.0,0.0,0.0,0.0,0.0,0.0,0.0,0.0,0.0,0.0,0.0,0.0,0.0,0.0,0.0,0.0,0.0,0.0,0.0,0.0,0.0,0.0,0.0,0.0,0.0,0.0,0.0,0.0,0.0,0.0,0.0,0.0,3.5558,3.6834,3.9608,4.4132,4.4745,4.4961,4.4941,4.199,3.8543,0.0,0.0,0.0,0.0,0.0,0.0,0.0,0.0,0.0,0.0,0.0,0.0,0.0,0.0,0.0,0.0,0.0,0.0,0.0,0.0,0.0,0.0,0.0,0.0,0.0,0.0,0.0,0.0,0.0,0.0,0.0,0.0,0.0,0.0,0.0,0.0,0.0,0.0,0.0,0.0,3.8646,3.9945,4.1373,0.0,0.0,0.0,0.0,0.0,0.0,3.7001,3.584,0.0,0.0,0.0,0.0,0.0,0.0,0.0,0.0,0.0,0.0,0.0,0.0,0.0,0.0,0.0,0.0,0.0,0.0,0.0,0.0,0.0,0.0,0.0,0.0,0.0,0.0,0.0,0.0,0.0,0.0,0.0,0.0,0.0,0.0,0.0,0.0,0.0,0.0,0.0,0.0,0.0,0.0,0.0,0.0,0.0,0.0,0.0,0.0,0.0,0.0,0.0,0.0,0.0,0.0,0.0,3.4316,3.6504,3.9805,4.4199,4.3965,4.3945,4.4373,4.0576,3.7155,0.0,0.0,0.0,0.0,0.0,0.0,0.0,0.0,0.0,0.0,0.0,0.0,0.0,0.0,0.0,0.0,0.0,0.0,0.0,0.0,0.0,0.0,0.0,0.0,0.0,0.0,0.0,0.0,0.0,0.0,0.0,0.0,0.0,0.0,0.0,0.0,0.0,0.0,0.0,0.0,0.0,4.0403,4.2766,4.0831,0.0,0.0,0.0,0.0,3.9409,3.8999,0.0,0.0,0.0,0.0,0.0,0.0,0.0,0.0,0.0,0.0,0.0,0.0,0.0,0.0,0.0,0.0,0.0,0.0,0.0,0.0,0.0,0.0,0.0,0.0,0.0,0.0,0.0,0.0,0.0,0.0,0.0,0.0,0.0,0.0,0.0,0.0,0.0,0.0,0.0,0.0,0.0,0.0,0.0,0.0,0.0,0.0,0.0,0.0,0.0,0.0,0.0,0.0,0.0,0.0,0.0,0.0,3.332,3.3848,3.6816,4.2383,4.334,4.3357,4.2607,3.9937,3.6855,0.0,0.0,0.0,0.0,0.0,0.0,0.0,0.0,0.0,0.0,0.0,0.0,0.0,0.0,0.0,0.0,0.0,0.0,0.0,0.0,0.0,0.0,0.0,0.0,0.0,0.0,0.0,0.0,0.0,0.0,0.0,0.0,0.0,0.0,0.0,0.0,0.0,0.0,0.0,0.0,0.0,4.3525,4.2405,4.2022,4.1846,0.0,0.0,4.2009,4.2864,4.2983,0.0,0.0,0.0,0.0,0.0,0.0,0.0,0.0,0.0,0.0,0.0,0.0,0.0,0.0,0.0,0.0,0.0,0.0,0.0,0.0,0.0,0.0,0.0,0.0,0.0,0.0,0.0,0.0,0.0,0.0,0.0,0.0,0.0,0.0,0.0,0.0,0.0,0.0,0.0,0.0,0.0,0.0,0.0,0.0,0.0,0.0,0.0,0.0,0.0,0.0,0.0,0.0,0.0,0.0,0.0,2.8729,3.3281,3.5644,3.8613,4.2226,4.2222,4.1933,4.1546,3.8063,3.4703,0.0,0.0,0.0,0.0,0.0,0.0,0.0,0.0,0.0,0.0,0.0,0.0,0.0,0.0,0.0,0.0,0.0,0.0,0.0,0.0,0.0,0.0,0.0,0.0,0.0,0.0,0.0,0.0,0.0,0.0,0.0,0.0,0.0,0.0,0.0,0.0,0.0,0.0,0.0,0.0,0.0,0.0,4.4175,4.3548,0.0,0.0,0.0,4.4117,4.5014,0.0,0.0,0.0,0.0,0.0,0.0,0.0,0.0,0.0,0.0,0.0,0.0,0.0,0.0,0.0,0.0,0.0,0.0,0.0,0.0,0.0,0.0,0.0,0.0,0.0,0.0,0.0,0.0,0.0,0.0,0.0,0.0,0.0,0.0,0.0,0.0,0.0,0.0,0.0,0.0,0.0,0.0,0.0,0.0,0.0,0.0,0.0,0.0,0.0,0.0,0.0,0.0,0.0,0.0,0.0,0.0,0.0,3.3047,3.6992,3.9766,4.1348,4.053,4.0134,4.0242,3.6211,0.0,0.0,0.0,0.0,0.0,0.0,0.0,0.0,0.0,0.0,0.0,0.0,0.0,0.0,0.0,0.0,0.0,0.0,0.0,0.0,0.0,0.0,0.0,0.0,0.0,0.0,0.0,1.7679,0.0,0.0,0.0,0.0,0.0,0.0,0.0,0.0,0.0,0.0,0.0,0.0,0.0,0.0,4.241,4.5304,4.5116,4.5224,0.0,0.0,4.6346,4.6582,4.6445,4.4844,0.0,0.0,0.0,0.0,0.0,0.0,0.0,0.0,0.0,0.0,0.0,0.0,0.0,0.0,0.0,0.0,0.0,0.0,0.0,0.0,0.0,0.0,0.0,0.0,0.0,0.0,0.0,0.0,0.0,0.0,0.0,0.0,0.0,0.0,0.0,0.0,0.0,0.0,0.0,0.0,0.0,0.0,0.0,0.0,0.0,0.0,0.0,0.0,0.0,0.0,0.0,0.0,0.0,0.0,0.0,3.2226,3.5937,3.8164,3.8809,3.811,3.7971,3.8403,3.4856,3.2073,0.0,0.0,0.0,0.0,0.0,0.0,0.0,0.0,0.0,0.0,0.0,0.0,0.0,0.0,0.0,0.0,0.0,0.0,0.0,0.0,0.0,0.0,0.0,0.0,0.0,0.0,0.0,0.0,0.0,0.0,0.0,0.0,0.0,0.0,0.0,0.0,0.0,0.0,0.0,0.0,0.0,4.3567,4.4495,4.6649,4.8238,0.0,4.9176,4.9192,4.7734,4.8828,4.7598,4.0976,0.0,0.0,0.0,0.0,0.0,0.0,0.0,0.0,0.0,0.0,0.0,0.0,0.0,0.0,0.0,0.0,0.0,0.0,0.0,0.0,0.0,0.0,0.0,0.0,0.0,0.0,0.0,0.0,0.0,0.0,0.0,0.0,0.0,0.0,0.0,0.0,0.0,0.0,0.0,0.0,0.0,0.0,0.0,0.0,0.0,0.0,0.0,0.0,0.0,0.0,0.0,0.0,0.0,2.7276,3.2129,3.5137,3.7266,3.8516,3.8202,3.7839,3.75,3.4855,3.2096,0.0,0.0,0.0,0.0,0.0,0.0,0.0,0.0,0.0,0.0,0.0,0.0,0.0,0.0,0.0,0.0,0.0,0.0,0.0,0.0,0.0,0.0,0.0,0.0,0.0,0.0,0.0,0.0,2.2353,2.3396,2.39,0.0,0.0,0.0,0.0,0.0,0.0,0.0,0.0,0.0,0.0,4.4081,4.5974,4.7255,0.0,0.0,4.9223,4.961,4.8457,4.8454,4.7148,4.291,4.1367,0.0,0.0,0.0,0.0,0.0,0.0,0.0,0.0,0.0,0.0,0.0,0.0,0.0,0.0,0.0,0.0,0.0,0.0,0.0,0.0,0.0,0.0,0.0,0.0,0.0,0.0,0.0,0.0,0.0,0.0,0.0,0.0,0.0,0.0,0.0,0.0,0.0,0.0,0.0,0.0,0.0,0.0,0.0,0.0,0.0,0.0,0.0,0.0,0.0,0.0,0.0,0.0,2.6505,3.1736,3.4062,3.6054,3.7751,3.7605,3.7109,3.6192,3.4167,3.1577,0.0,0.0,0.0,0.0,0.0,0.0,0.0,0.0,0.0,0.0,0.0,0.0,0.0,0.0,0.0,0.0,0.0,0.0,0.0,0.0,0.0,0.0,0.0,0.0,0.0,0.0,0.0,0.0,2.312,2.376,2.3525,0.0,0.0,0.0,0.0,0.0,0.0,0.0,0.0,0.0,0.0,4.4246,4.65,4.7253,4.7567,4.7692,4.8554,4.8905,4.8066,4.7813,4.6765,4.3947,0.0,0.0,0.0,0.0,0.0,0.0,0.0,0.0,0.0,0.0,0.0,0.0,0.0,0.0,0.0,0.0,0.0,0.0,0.0,0.0,0.0,0.0,0.0,0.0,0.0,0.0,0.0,0.9735,0.0,0.0,1.0009,0.0,0.0,0.0,0.0,0.0,0.0,0.0,0.0,0.0,0.0,0.0,0.0,0.0,0.0,0.0,0.0,0.0,0.0,0.0,0.0,0.0,0.0,2.5615,3.0743,3.2615,3.4313,3.5926,3.5825,3.5329,3.4391,3.2468,3.0242,2.7663,0.0,0.0,0.0,0.0,0.0,0.0,0.0,0.0,0.0,0.0,0.0,0.0,0.0,0.0,0.0,0.0,0.0,0.0,0.0,0.0,0.0,0.0,0.0,0.0,0.0,0.0,2.2869,2.3101,2.3079,0.0,0.0,0.0,0.0,0.0,0.0,0.0,0.0,0.0,0.0,4.1781,4.3976,4.5632,4.6577,4.7162,4.7293,4.736,4.7141,4.6392,4.7221,4.686,0.0,0.0,0.0,0.0,0.0,0.0,0.0,0.0,0.0,0.0,0.0,0.0,0.0,0.0,0.0,0.0,0.0,0.0,0.0,0.0,0.0,0.0,0.0,0.0,0.0,0.0,0.0,1.3225,1.2359,0.0,0.0,0.0,0.0,0.0,0.0,0.0,0.0,0.0,0.0,0.0,2.0804,2.2204,0.0,0.0,0.0,0.0,0.0,0.0,0.0,0.0,0.0,0.0,0.0,0.0,2.5654,3.0661,3.2539,3.4238,3.5894,3.5266,3.4646,3.4105,3.2288,2.958,2.5866,0.0,0.0,0.0,0.0,0.0,0.0,0.0,0.0,0.0,0.0,0.0,0.0,0.0,0.0,0.0,0.0,0.0,0.0,0.0,0.0,0.0,0.0,0.0,0.0,0.0,2.176,0.0,0.0,0.0,0.0,0.0,0.0,0.0,0.0,0.0,0.0,0.0,3.7826,4.121,4.2854,4.4472,4.6397,4.6448,4.6448,0.0,0.0,0.0,0.0,0.0,0.0,0.0,0.0,0.0,0.0,0.0,0.0,0.0,0.0,5.1301,4.3058,4.1228,4.098,4.1003,0.0,0.0,0.0,0.0,0.0,0.0,0.0,0.0,0.0,0.0,0.0,0.0,0.0,0.0,1.5669,0.0,1.4097,0.0,0.0,0.0,0.0,0.0,0.0,0.0,0.0,2.095,2.2349,2.33,2.4372,2.4577,0.0,2.4151,2.2624,0.0,0.0,0.0,0.0,0.0,0.0,0.0,0.0,2.5799,3.0252,3.205,3.3613,3.4956,3.4389,3.379,3.323,3.1476,2.9212,2.6427,2.4415,2.2774,0.0,0.0,0.0,0.0,0.0,0.0,0.0,0.0,0.0,0.0,0.0,0.0,0.0,0.0,0.0,0.0,0.0,0.0,0.0,0.0,0.0,0.0,0.0,2.24,0.0,0.0,0.0,0.0,0.0,0.0,0.0,0.0,0.0,3.7446,3.8334,3.9872,4.2995,4.3613,4.4396,4.6114,0.0,0.0,0.0,0.0,0.0,0.0,0.0,4.5754,4.5985,4.6784,4.778,4.8916,5.1925,5.4281,5.4599,0.0,0.0,4.8769,4.7106,4.6907,4.7219,4.9017,5.0235,4.9519,5.1374,5.2997,0.0,0.0,0.0,0.0,0.0,0.0,0.0,0.0,1.7627,1.7187,0.0,1.5687,0.0,0.0,0.0,0.0,0.0,1.8697,0.0,0.0,2.3498,2.5287,2.6252,2.6303,2.6923,2.8037,2.8646,2.7625,2.4933,2.0966,0.0,0.0,0.0,0.0,0.0,0.0,2.6054,2.95,3.1205,3.2439,3.3256,3.32,3.2713,3.1786,3.0104,2.9168,2.9054,2.6627,2.4874,2.3968,2.0658,0.0,0.0,0.0,0.0,0.0,0.0,0.0,0.0,0.0,0.0,0.0,0.0,0.0,0.0,0.0,0.0,0.0,0.0,0.0,0.0,2.1987,0.0,0.0,0.0,0.0,0.0,0.0,0.0,0.0,0.0,0.0,4.011,4.0314,4.1373,4.4285,0.0,0.0,0.0,0.0,4.3883,4.412,4.3906,4.3769,4.3804,4.5297,4.624,4.5677,0.0,0.0,5.1721,5.3571,5.4868,5.4203,5.5685,5.7124,5.8728,5.6601,5.5332,5.6055,5.5058,5.4551,5.5254,5.5996,5.6738,0.6867,0.0,0.0,0.0,0.0,1.9268,2.0604,2.2048,2.1906,2.0953,1.9383,1.8462,0.0,0.0,0.0,0.0,0.0,0.0,2.1123,2.2413,2.2936,2.3923,2.5332,2.563,2.6197,2.7036,2.7523,2.7292,2.6332,2.4845,2.2285,1.8809,0.0,0.0,0.0,0.0,2.6714,3.0108,3.1378,3.2162,3.2641,3.2402,3.1835,3.0976,3.045,2.9596,2.8403,2.7595,2.6233,2.4161,2.2468,0.0,0.0,0.0,0.0,0.0,0.0,0.0,0.0,0.0,0.0,0.0,0.0,0.0,0.0,0.0,0.0,0.0,0.0,0.0,2.1017,2.2278,2.3586,0.0,0.0,0.0,0.0,0.0,0.0,0.0,0.0,0.0,4.1423,4.2187,4.3085,0.0,0.0,4.4732,4.4967,4.4547,4.4633,4.5697,4.4878,0.0,4.4857,4.4682,4.5091,4.6649,4.9937,5.3065,5.5492,5.6554,5.7445,5.8644,5.9437,6.0116,6.0525,5.8841,5.7383,5.748,5.8027,5.8594,5.8906,5.9629,6.0195,0.5303,1.1365,1.3977,1.7364,2.1005,2.201,2.3205,2.4514,2.4343,2.3358,2.1805,2.0929,1.9372,1.7343,1.7345,0.0,0.0,0.0,2.1912,2.2821,2.2407,2.2852,2.4009,2.454,2.5338,2.6379,2.7078,2.7419,2.742,2.6863,2.5038,2.2094,0.0,0.0,2.3832,2.5244,2.7268,2.9702,3.0645,3.1176,3.1402,3.1285,3.0955,3.0392,3.0055,2.9402,2.8437,2.7655,2.6513,2.4963,2.3712,2.2617,0.0,0.0,0.0,0.0,0.0,0.0,0.0,0.0,0.0,0.0,0.0,1.4081,1.2469,0.0,0.0,0.0,1.8395,2.1119,2.3267,2.4797,0.0,0.0,0.0,0.0,0.0,0.0,0.0,3.6575,3.9036,4.1295,4.3167,4.4011,4.4745,4.5553,4.5495,4.5555,4.591,0.0,4.505,4.6048,4.5336,4.4891,4.5302,4.5321,4.598,4.815,5.0566,5.312,5.5648,5.6778,5.7962,5.9727,6.0503,6.0851,6.1353,6.0204,5.9296,5.9394,6.0195,6.0879,6.0918,6.1328,6.1699,0.1799,0.896,1.3834,1.8703,2.3208,2.3999,2.4746,2.5479,2.5213,2.4588,2.3657,2.2948,2.183,2.0447,2.0572,0.0,2.2211,2.2542,2.2636,2.2505,2.1908,2.1928,2.2541,2.3169,2.4285,2.578,2.7067,2.7818,2.8057,2.7414,2.6558,2.5605,2.5357,2.5338,2.5586,2.6628,2.7628,2.8606,2.9346,2.9775,2.9843,3.007,3.0092,2.9897,2.9169,2.8762,2.8679,2.7013,2.6018,2.587,2.4477,2.3638,2.3488,0.0,0.0,0.0,0.0,0.0,0.0,0.0,0.0,0.0,0.0,0.0,0.0,0.0,0.0,0.0,2.19,0.0,2.6366,2.8536,0.0,0.0,0.0,3.2451,3.3702,3.6841,3.9024,3.9277,0.0,0.0,4.4837,4.5534,4.625,4.7022,4.6563,4.6375,4.7181,4.6186,4.5446,4.5768,4.5544,4.552,4.5827,4.6792,4.7972,4.9399,5.0838,5.2116,5.3823,5.5254,5.6889,5.8654,5.9359,6.0002,6.0987,6.1005,6.1276,6.1453,6.1601,6.166,6.166,6.168,6.1699,-0.246,0.5922,0.9885,1.6445,2.4315,2.4936,2.5312,2.5481,2.5323,2.4946,2.4378,2.3339,2.2433,2.1709,2.2323,2.2736,2.2929,2.2723,2.2461,2.2145,2.0639,2.0281,2.0963,2.1449,2.241,2.3851,2.5627,2.6798,2.7341,2.7584,2.7192,2.6319,2.651,2.6328,2.5783,2.6615,2.7577,2.8589,2.8771,2.9064,2.9444,2.9735,2.9624,2.9021,2.8836,2.802,2.6565,2.6046,2.5346,2.4388,2.4252,2.4283,2.4442,2.057,0.0,0.0,0.0,0.0,0.0,0.0,0.0,0.0,0.0,1.8339,1.4058,0.0,2.2288,0.0,2.386,2.6631,2.8003,2.9201,0.0,0.0,3.4593,3.5721,3.8851,4.0,4.0703,4.1167,4.2555,4.3571,4.3846,4.533,4.6643,4.7426,4.7647,4.7435,4.6675,4.6751,4.691,4.6994,4.6412,4.64,4.7529,4.8064,4.8461,4.8846,4.9786,5.1226,5.3584,5.4614,5.5734,5.7537,5.8323,5.9011,5.9982,6.015,6.0492,6.1179,6.1465,6.158,6.168,6.1699,6.1699,-0.905,-0.2056,0.1336,0.8767,1.8718,2.3324,2.5323,2.5295,2.5113,2.4745,2.4174,2.3429,2.2842,2.2382,2.3217,2.3378,2.2954,2.2574,2.2103,2.1512,1.9859,1.9349,1.9766,2.002,2.1077,2.2867,2.4288,2.5625,2.686,2.7004,2.6903,2.6573,2.6819,2.6578,2.5941,2.6411,2.6852,2.7166,2.7183,2.7558,2.8296,2.8278,2.8203,2.8206,2.7418,2.6427,2.5259,2.4801,2.4023,2.2872,2.3178,2.3212,2.2815,2.0317,1.7662,0.0,0.0,0.0,0.0,0.0,0.0,0.0,0.0,0.0,0.0,0.0,2.5865,2.7433,2.8041,2.9068,3.0822,3.2917,3.5122,3.7426,3.8109,3.9282,4.1405,4.1937,4.2286,4.258,4.3244,4.3925,4.4471,4.5494,4.6491,4.7285,4.79,4.8131,4.7793,4.7849,4.7965,4.8024,4.7626,4.7748,4.9164,4.8976,4.8804,4.9188,4.9677,5.0642,5.2408,5.3506,5.4683,5.636,5.7277,5.7998,5.8935,5.9456,5.9899,6.0468,6.0981,6.1324,6.1557,6.1609,6.1612,-1.5867,-1.0999,-0.8229,-0.0871,0.9652,1.8398,2.311,2.4742,2.4381,2.3346,2.1903,2.2127,2.1759,2.1079,2.2709,2.3126,2.2608,2.2344,2.1919,2.1268,1.9634,1.8902,1.9046,1.9002,2.0147,2.2267,2.3068,2.4587,2.6624,2.6368,2.6402,2.6657,2.6741,2.6437,2.5924,2.6064,2.5829,2.5258,2.5363,2.5915,2.6888,2.6486,2.6583,2.715,2.557,2.4491,2.4091,2.336,2.2439,2.1336,2.1677,2.1449,2.04,1.9598,1.8672,0.0,1.6799,0.0,0.0,0.0,0.0,0.0,0.0,0.0,0.0,2.4066,2.8253,3.4856,3.2903,3.2102,3.4091,3.7465,3.9537,3.9506,4.1176,4.239,4.247,4.3143,4.3563,4.3597,4.3881,4.449,4.5442,4.5781,4.618,4.6876,4.7693,4.8503,4.9273,4.9028,4.8712,4.8716,4.8861,4.9212,4.9866,4.9508,4.9236,4.9802,4.9825,5.0192,5.1189,5.2393,5.3775,5.5225,5.6255,5.7126,5.7973,5.8684,5.9216,5.9532,6.0108,6.0724,6.1314,6.1485,6.1534,-1.8662,-1.2896,-1.1719,-0.6597,0.1033,0.4665,1.2658,2.2995,2.2082,1.8359,1.3101,1.5412,1.4932,1.2811,1.7952,2.1035,2.2236,2.2703,2.3047,2.3157,2.0337,1.9093,1.9141,1.8538,1.9283,2.1175,2.2626,2.4445,2.6521,2.7217,2.7186,2.6572,2.6865,2.6455,2.5395,0.0,0.0,0.0,2.5264,2.5787,2.5862,2.599,2.5841,2.542,2.4506,0.0,2.1553,2.1699,2.1199,1.9898,2.0526,0.0,0.0,0.0,0.0,0.0,0.0,0.0,0.0,0.0,0.0,0.0,2.1936,2.2378,2.2108,2.6432,3.0872,3.4604,3.5537,3.6151,3.6744,3.869,4.0302,4.1055,4.2076,4.2872,4.3217,4.3666,4.3943,4.4076,4.4318,4.4636,4.5041,4.5718,4.6279,4.6587,4.7566,4.8623,4.9548,4.9505,4.9432,4.9389,4.9814,5.0008,4.9456,4.9749,4.9865,4.9915,4.9356,4.9836,5.1392,5.2189,5.3067,5.4486,5.5389,5.6242,5.7069,5.7376,5.7802,5.8464,5.8734,5.9321,6.0973,6.1323,6.1373,-2.2099,-1.911,-1.8129,-1.3861,0.0,-0.5708,0.0937,1.052,1.2184,1.047,0.6523,0.7798,0.7752,0.6961,1.2218,1.5424,1.6998,1.8963,2.0299,2.0912,1.9627,1.9202,1.946,1.9162,2.0075,2.2059,2.3127,2.475,2.683,2.7308,2.7412,2.7199,2.7412,2.7054,2.6148,2.5886,2.5271,2.4296,2.4531,2.4775,2.4958,2.4449,2.4214,2.4208,2.2778,0.0,0.0,0.0,0.0,0.0,0.0,0.0,0.0,0.0,0.0,1.7545,1.8361,1.8795,1.8725,1.9568,2.0415,2.1092,2.3047,2.4552,2.5272,2.875,3.2001,3.4757,3.7294,3.8626,3.8269,4.0024,4.1483,4.2038,4.3028,4.3802,4.402,4.4194,4.4318,4.4401,4.4657,4.4896,4.4988,4.5572,4.6044,4.6198,4.7068,4.7922,4.8416,4.9207,4.9832,5.0202,5.0329,5.0456,5.0304,4.9982,5.0055,4.9983,4.9536,4.9586,5.0692,5.1682,5.268,5.3723,5.4836,5.5876,5.6242,5.6684,5.7146,5.7588,5.8011,5.852,5.9665,6.0205,6.0592,-2.4954,-2.5065,-2.4036,-2.0727,-1.5988,-1.443,-1.0513,-0.4919,0.0,0.0,0.0,-0.0226,0.0155,0.1069,0.5481,0.8452,1.0325,1.3728,1.6016,1.7492,1.8292,1.905,1.9685,1.9898,2.1059,2.3077,2.3565,2.4955,2.7151,2.7145,2.7432,2.7946,2.801,2.7741,2.7252,2.673,2.5909,2.4808,2.4107,2.3899,2.4174,2.297,2.2586,2.3082,2.1136,1.9924,1.9521,1.9284,1.8637,1.7492,1.787,1.7799,1.7195,1.7898,1.8489,1.8811,1.9987,2.046,1.9957,2.0852,2.133,2.0982,2.3407,2.5961,2.8441,3.0332,3.2438,3.4944,3.8234,3.9833,3.9051,4.109,4.25,4.2457,4.3777,4.4657,4.4606,4.4657,4.4682,4.4707,4.4988,4.5222,4.5245,4.5571,4.5815,4.5933,4.6512,4.7041,4.7253,4.8639,4.9975,5.052,5.055,5.0681,5.0926,5.048,5.0,5.0286,4.9825,4.9561,5.0162,5.1172,5.2233,5.298,5.4415,5.5295,5.553,5.6126,5.6722,5.678,5.7319,5.7838,5.7918,5.8625,5.9329,-2.532,-2.5339,-2.5219,-2.4544,-2.3488,-2.2209,-2.0105,-1.6884,-0.8229,-0.6741,-1.0442,-0.8399,-0.8245,-0.9144,-0.3066,0.145,0.4647,0.8408,1.1816,1.4879,1.6574,1.8028,1.9252,1.9662,2.0689,2.2276,2.2667,2.4176,2.6649,2.7097,2.7571,2.8208,2.8342,2.8139,2.7776,2.7374,2.6852,2.6217,2.5271,2.4349,2.3465,2.2739,2.1973,2.1133,2.0206,1.9052,1.7746,1.8051,1.7799,1.6751,1.7167,1.7464,1.7545,1.7961,1.8616,1.9502,2.0296,2.067,2.067,2.1296,2.2095,2.3047,2.3588,2.5035,2.7776,2.9985,3.2406,3.5188,3.7609,3.9099,3.9519,4.133,4.2419,4.2347,4.387,4.4919,4.4682,4.4872,4.503,4.5052,4.5322,4.5582,4.565,4.575,4.5859,4.5995,4.6131,4.6347,4.7159,4.8593,4.961,5.0016,5.0582,5.0798,5.0678,5.0412,5.031,5.0583,5.0067,5.0006,5.0994,5.1415,5.1831,5.2539,5.368,5.4504,5.466,5.5318,5.5778,5.5912,5.6162,5.6222,5.628,5.6941,5.7718,-2.5168,-2.5094,-2.5103,-2.5053,-2.4872,-2.4081,-2.3121,-2.1713,-1.742,-1.5722,-1.6164,-1.5271,-1.474,-1.4108,-0.9515,-0.602,-0.3365,0.1455,0.5417,0.8722,1.178,1.4509,1.6793,1.7811,1.9119,2.0806,2.2017,2.3545,2.5277,2.658,2.7434,2.7745,2.8022,2.7958,2.7604,2.7343,2.673,2.5797,2.5554,2.4736,2.3413,2.2291,2.1212,2.0274,1.9364,1.837,1.7366,1.7284,1.6993,1.6509,1.671,1.6884,1.7028,1.7752,1.8498,1.9121,2.0166,2.0581,2.0274,2.0489,2.098,2.1693,2.2135,2.3164,2.5169,2.8323,3.1328,3.4093,3.6946,3.8785,3.8989,4.0589,4.1854,4.2351,4.3643,4.4603,4.5084,4.5263,4.5362,4.54,4.5495,4.5632,4.5783,4.5844,4.5888,4.5977,4.5919,4.6029,4.6415,4.7495,4.8721,4.968,5.0188,5.0504,5.0662,5.0677,5.0587,5.0425,5.0118,5.0107,5.0646,5.0794,5.1242,5.1585,5.2486,5.3251,5.3651,5.4282,5.4819,5.5341,5.5577,5.5662,5.5761,5.6049,5.6767,-2.4948,-2.4817,-2.4804,-2.4774,-2.469,-2.4312,-2.4018,-2.3746,-2.3417,-2.2153,-2.0263,-2.0297,-1.9339,-1.7398,-1.4853,-1.277,-1.0587,-0.5961,-0.1799,0.1824,0.6184,1.0098,1.3439,1.5319,1.7077,1.8692,2.0486,2.19,2.3109,2.5003,2.6189,2.657,2.6957,2.6964,2.674,2.651,2.5899,2.498,2.5073,2.4488,2.3098,2.1751,2.0609,1.9534,1.8676,1.7861,1.7141,1.671,1.6552,1.668,1.6837,1.6872,1.6814,1.7958,1.8713,1.9021,2.012,2.0597,2.0114,1.985,1.9892,2.0201,2.075,2.1547,2.2874,2.592,2.9484,3.2824,3.607,3.8011,3.8418,3.9695,4.1103,4.2319,4.3344,4.4364,4.5377,4.5586,4.5586,4.5586,4.5618,4.5673,4.5796,4.5881,4.5967,4.5936,4.5903,4.5859,4.5922,4.6474,4.7554,4.8857,4.9608,5.0067,5.0733,5.0882,5.0692,5.0278,5.0135,5.0044,4.9947,5.0213,5.0457,5.0619,5.1204,5.1924,5.2564,5.3111,5.3769,5.4542,5.4973,5.5289,5.5645,5.5722,5.6184,-2.482,-2.482,-2.4786,-2.4645,-2.4413,-2.4355,-2.4155,-2.3792,-2.3358,-2.2776,-2.203,-2.2139,-2.1093,-1.9572,-1.8943,-1.7734,-1.6023,-1.317,-0.9355,-0.4826,0.0612,0.5324,0.9133,1.2473,1.473,1.5675,1.6757,1.7999,1.9489,2.1247,2.2894,2.4446,2.4696,2.471,2.4624,2.4369,2.41,2.3982,2.3664,2.2962,2.1815,2.1342,2.0219,1.8405,1.8282,1.7718,1.6683,1.6522,1.6723,1.724,1.7813,1.7952,1.7699,1.8943,1.9756,1.9703,2.0371,2.0766,2.0667,2.0131,1.9892,2.0141,2.0214,2.0688,2.1689,2.294,2.6214,3.115,3.4431,3.6417,3.779,3.8967,4.0271,4.1806,4.308,4.4345,4.5263,4.5586,4.5586,4.5586,4.5677,4.5815,4.5881,4.5981,4.6056,4.6028,4.5996,4.5943,4.5874,4.5922,4.6306,4.7499,4.8755,4.9731,4.9956,5.0494,5.051,5.0471,5.0275,5.0011,4.9898,4.9721,4.9655,4.9956,5.0285,5.0889,5.1269,5.166,5.2637,5.367,5.4142,5.4412,5.533,5.5626,5.603,-2.454,-2.4448,-2.4229,-2.3983,-2.3725,-2.3685,-2.3504,-2.3168,-2.2963,-2.2513,-2.2,-2.2211,-2.1635,-2.0479,-2.0426,-2.0001,-1.923,-1.7081,-1.4104,-1.0267,-0.5833,-0.1356,0.3157,0.5719,0.7806,0.9563,1.0998,1.2669,1.4797,1.7819,2.0339,2.1848,2.2034,2.2104,2.2263,2.2395,2.2336,2.2104,2.2283,2.1766,2.0693,2.039,1.9793,1.8792,1.838,1.7852,1.7131,1.6987,1.7076,1.7338,1.8232,1.8857,1.9003,1.9248,1.9244,1.9025,1.9352,1.9773,2.0194,1.9952,1.9665,1.9435,1.9456,1.9742,2.0377,2.027,2.199,2.6246,3.131,3.4792,3.5668,3.7066,3.8704,4.0391,4.1946,4.3273,4.446,4.5207,4.5586,4.5603,4.5651,4.5699,4.5817,4.5896,4.5925,4.5916,4.5839,4.5772,4.5701,4.5605,4.5675,4.6078,4.7017,4.7959,4.8677,4.9104,4.9396,4.9506,4.9442,4.9382,4.9614,4.9397,4.9221,4.9426,4.9695,5.0096,5.0738,5.1168,5.1908,5.2825,5.3417,5.3804,5.4778,5.4991,5.5357,-2.4278,-2.4026,-2.3707,-2.3369,-2.3069,-2.3069,-2.2873,-2.2599,-2.2573,-2.2283,-2.186,-2.2023,-2.1781,-2.1213,-2.1157,-2.1101,-2.0846,-1.9623,-1.7464,-1.447,-1.1266,-0.735,-0.3054,-0.0973,0.1034,0.3111,0.4938,0.7424,1.0463,1.4255,1.6991,1.8274,1.872,1.9061,1.9501,1.9833,2.0025,2.0004,2.0693,2.0668,1.967,1.9384,1.9169,1.8794,1.8417,1.7877,1.7174,1.7255,1.7381,1.7558,1.8838,1.9711,1.9904,1.9569,1.8995,1.8307,1.8519,1.8927,1.9475,1.9683,1.9665,1.9308,1.903,1.9124,1.9299,1.8213,1.8519,2.1348,2.7614,3.1982,3.3875,3.5205,3.6953,3.8888,4.0426,4.1743,4.3046,4.4164,4.4744,4.4939,4.5132,4.5393,4.552,4.5618,4.5663,4.5531,4.5456,4.5397,4.5387,4.5258,4.5137,4.5124,4.5457,4.6164,4.7405,4.7929,4.8067,4.8178,4.8277,4.8285,4.884,4.872,4.8837,4.9002,4.9001,4.9252,4.9981,5.0627,5.1186,5.203,5.2698,5.3278,5.401,5.4126,5.4376,-2.4021,-2.3667,-2.3383,-2.3045,-2.2721,-2.2721,-2.2563,-2.2349,-2.2321,-2.2293,-2.2136,-2.1815,-2.1632,-2.1535,-2.1483,-2.1351,-2.1023,-2.0863,-1.9604,-1.7284,-1.4906,-1.2102,-0.8966,-0.6673,-0.462,-0.2915,-0.0972,0.2722,0.7801,1.0373,1.2243,1.3504,1.4513,1.541,1.6221,1.6678,1.7037,1.795,1.9143,1.9511,1.8838,1.8442,1.8351,1.8221,1.8229,1.7714,1.6829,1.7086,1.753,1.8027,1.9762,2.0486,1.9979,2.0207,1.9534,1.7981,1.8274,1.8715,1.8886,1.9411,1.9838,1.9968,1.9386,1.912,1.9278,1.7295,1.6802,1.8183,2.353,2.8208,3.1958,3.3421,3.5121,3.7411,3.8546,3.9713,4.1297,4.2174,4.2873,4.3485,4.4193,4.4641,4.4898,4.5216,4.509,4.4922,4.4867,4.4845,4.4754,4.4729,4.4586,4.4538,4.4635,4.4972,4.5925,4.6527,4.696,4.7106,4.7005,4.69,4.7396,4.7868,4.824,4.8707,4.9032,4.9276,4.9475,4.9844,5.0411,5.1198,5.2226,5.2894,5.3183,5.3241,5.3491,-2.3553,-2.3045,-2.2933,-2.273,-2.248,-2.2436,-2.2405,-2.2327,-2.2327,-2.2119,-2.1877,-2.1687,-2.146,-2.1205,-2.1221,-2.1295,-2.1401,-2.1691,-2.1036,-1.9558,-1.8124,-1.6194,-1.4004,-1.2183,-1.0756,-0.941,-0.7605,-0.3836,0.1465,0.4642,0.7127,0.9075,1.0678,1.2159,1.357,1.4972,1.6038,1.6847,1.7599,1.7938,1.8047,1.8219,1.8094,1.7569,1.7941,1.8016,1.7601,1.7756,1.7973,1.808,1.9874,2.0724,2.0358,1.9703,1.8806,1.7775,1.7852,1.8178,1.8715,1.9359,1.9945,2.013,1.9925,1.9382,1.8654,1.7619,1.7282,1.8271,1.9545,2.2941,2.6832,3.0054,3.2716,3.4545,3.5994,3.7355,3.8868,4.0054,4.1176,4.2389,4.3268,4.3631,4.3587,4.3659,4.3705,4.3577,4.3549,4.3596,4.3531,4.336,4.3235,4.3107,4.297,4.3067,4.3753,4.4824,4.5534,4.5762,4.5811,4.6011,4.636,4.6815,4.7215,4.8243,4.8796,4.9505,4.9752,5.0174,5.0516,5.0719,5.1721,5.2067,5.2279,5.2356,5.2664,-2.3109,-2.2738,-2.2599,-2.2446,-2.231,-2.2327,-2.2327,-2.2282,-2.2135,-2.1893,-2.1597,-2.1317,-2.1007,-2.0824,-2.0773,-2.102,-2.1432,-2.1869,-2.1702,-2.1037,-2.0353,-1.9317,-1.8068,-1.7038,-1.5969,-1.4541,-1.2168,-0.8517,-0.4124,-0.0834,0.1828,0.4161,0.6221,0.8294,1.0179,1.2032,1.3466,1.4676,1.5873,1.6613,1.6903,1.7254,1.7566,1.7618,1.7764,1.7803,1.7689,1.7976,1.8166,1.8371,1.9684,2.0528,2.0288,1.907,1.7947,1.7346,1.7246,1.7567,1.8274,1.9032,1.9711,2.029,2.0282,1.9878,1.9554,1.8664,1.8076,1.8017,1.8056,1.953,2.2695,2.6219,2.9154,3.1262,3.3102,3.4688,3.6139,3.7236,3.8783,4.0581,4.163,4.205,4.2157,4.2486,4.2595,4.2523,4.2468,4.2486,4.243,4.2296,4.2153,4.2131,4.2042,4.2271,4.2808,4.3723,4.4284,4.4536,4.4827,4.5023,4.5445,4.5844,4.6513,4.757,4.8587,4.9472,5.0123,5.0548,5.0683,5.0664,5.0894,5.1279,5.1414,5.1491,5.1818,-2.2716,-2.2652,-2.2426,-2.2338,-2.2327,-2.2327,-2.2327,-2.2254,-2.1853,-2.1674,-2.1458,-2.0762,-2.0471,-2.032,-2.0303,-2.0559,-2.1071,-2.1446,-2.1628,-2.1582,-2.1521,-2.1231,-2.0702,-2.0412,-1.9503,-1.8016,-1.4305,-1.1006,-0.8212,-0.5666,-0.3278,-0.1125,0.131,0.3734,0.605,0.7451,0.9205,1.1448,1.3646,1.4974,1.5302,1.541,1.6448,1.7944,1.7556,1.6967,1.6579,1.7527,1.8053,1.8222,1.9168,1.976,1.9422,1.83,1.7235,1.6518,1.6415,1.68,1.7512,1.8209,1.9114,2.0189,2.0294,2.0748,2.1557,1.9768,1.8076,1.7803,1.7988,1.8833,2.0505,2.2416,2.4909,2.7999,3.0119,3.15,3.2923,3.3915,3.5397,3.7976,3.9382,4.0215,4.071,4.1301,4.1706,4.1573,4.1644,4.1601,4.1523,4.1393,4.1629,4.1568,4.1288,4.1288,4.1985,4.2732,4.305,4.3376,4.3697,4.4007,4.4601,4.5092,4.5754,4.6751,4.8071,4.8982,4.9912,5.0298,5.0529,5.0567,5.0625,5.0702,5.0875,5.1029,5.0933,-2.2428,-2.2426,-2.2349,-2.2327,-2.2327,-2.2327,-2.2327,-2.2299,-2.2135,-2.1744,-2.1224,-2.091,-2.0467,-2.0,-1.9903,-2.0292,-2.0987,-2.1167,-2.1507,-2.2003,-2.2077,-2.2015,-2.1769,-2.1279,-2.0233,-1.864,-1.6268,-1.4284,-1.2567,-0.9885,-0.7411,-0.5339,-0.2594,-0.0061,0.1974,0.3987,0.5923,0.7409,0.9535,1.0912,1.178,1.407,1.5456,1.5531,1.6447,1.6623,1.5811,1.6508,1.7107,1.7377,1.776,1.8007,1.7921,1.7236,1.6156,1.5061,1.4838,1.5197,1.5991,1.6736,1.7956,1.9408,1.9644,2.0273,2.154,2.0246,1.8392,1.722,1.7413,1.8252,1.8579,2.0256,2.2936,2.6588,2.7459,2.8733,3.0774,3.2338,3.3969,3.5532,3.661,3.7285,3.8093,3.9109,3.9961,3.9983,4.0266,4.0446,4.0001,3.9968,3.9563,3.9166,3.9495,4.0246,4.0937,4.1594,4.2068,4.2716,4.3142,4.3481,4.3999,4.4498,4.5107,4.6026,4.7324,4.8381,4.9335,4.9933,5.0105,5.0452,5.0606,5.0644,5.0683,5.0683,5.0683,-2.236,-2.2453,-2.2349,-2.2327,-2.2327,-2.2327,-2.2327,-2.2282,-2.2089,-2.1642,-2.1054,-2.081,-2.0516,-2.0188,-2.0284,-2.0748,-2.1337,-2.1537,-2.1861,-2.2242,-2.2327,-2.2209,-2.2007,-2.1437,-2.0733,-1.9715,-1.8275,-1.7103,-1.6092,-1.3807,-1.1752,-0.9831,-0.726,-0.4989,-0.3151,-0.1064,0.0751,0.248,0.4807,0.67,0.8486,1.1264,1.3122,1.3672,1.4909,1.5352,1.4953,1.475,1.5088,1.6035,1.6327,1.6297,1.6116,1.5392,1.4436,1.3475,1.3228,1.3544,1.4354,1.5426,1.6595,1.8092,1.8825,1.9385,2.0053,1.9437,1.8054,1.6684,1.6341,1.6747,1.7359,1.8625,2.115,2.4132,2.5338,2.678,2.8886,3.0778,3.2179,3.3321,3.4369,3.5279,3.6283,3.7271,3.8225,3.8466,3.8924,3.9172,3.8635,3.8509,3.8133,3.7978,3.8381,3.9129,3.9767,4.0405,4.1063,4.1943,4.2808,4.3178,4.3608,4.4008,4.4565,4.5491,4.6664,4.7213,4.8109,4.8996,4.9444,4.9928,5.0297,5.0644,5.0683,5.0683,5.0683,-2.2517,-2.2686,-2.2453,-2.236,-2.2349,-2.2349,-2.2321,-2.2254,-2.1899,-2.1469,-2.0973,-2.0639,-2.0498,-2.0768,-2.106,-2.1572,-2.205,-2.2377,-2.2526,-2.2492,-2.2399,-2.2158,-2.172,-2.1519,-2.1315,-2.1023,-2.0117,-1.9177,-1.81,-1.6848,-1.6036,-1.4224,-1.2165,-1.0749,-0.8746,-0.7424,-0.5275,-0.2968,-0.0249,0.219,0.4659,0.736,0.9768,1.2139,1.292,1.3503,1.3691,1.2512,1.2464,1.4284,1.4557,1.4333,1.374,1.2999,1.2169,1.1243,1.1385,1.1951,1.2827,1.401,1.5303,1.6322,1.7562,1.8736,1.8259,1.7855,1.7027,1.5852,1.513,1.516,1.6578,1.7451,1.896,2.1147,2.3738,2.5832,2.7445,2.9164,3.0391,3.1322,3.2557,3.3967,3.4936,3.5947,3.6899,3.7454,3.7703,3.7858,3.779,3.7732,3.769,3.7632,3.7515,3.7971,3.8597,3.9529,4.0197,4.1,4.1926,4.2619,4.3196,4.3609,4.4042,4.4983,4.5641,4.6194,4.6852,4.7724,4.8464,4.8876,4.9482,5.0277,5.0548,5.0394,5.0491,-2.3014,-2.3069,-2.2989,-2.2832,-2.2625,-2.2599,-2.249,-2.231,-2.2163,-2.1665,-2.1113,-2.0894,-2.0821,-2.0757,-2.1308,-2.1962,-2.2683,-2.2816,-2.2994,-2.319,-2.2744,-2.2326,-2.1971,-2.2004,-2.1869,-2.1514,-2.0567,-1.9948,-1.9931,-1.8409,-1.7335,-1.6689,-1.5027,-1.3807,-1.294,-1.1585,-1.0248,-0.8592,-0.6063,-0.3051,0.0248,0.4105,0.6853,0.872,1.0656,1.16,1.1876,1.0872,1.0404,1.1032,1.1488,1.1615,1.1301,1.0629,0.9706,0.8775,0.9388,1.0299,1.1071,1.2135,1.3348,1.4523,1.5359,1.5588,1.6071,1.6004,1.5345,1.4641,1.4522,1.4776,1.4921,1.5732,1.7577,2.0162,2.29,2.524,2.6531,2.7683,2.883,3.0035,3.118,3.2031,3.293,3.413,3.5388,3.6068,3.6585,3.6943,3.6817,3.6919,3.6874,3.6538,3.6477,3.6904,3.7552,3.8515,3.9356,4.0082,4.0954,4.1853,4.2562,4.3284,4.3726,4.4326,4.4573,4.5054,4.5678,4.6391,4.7036,4.7743,4.8315,4.8943,4.9528,4.9663,5.001,-2.33,-2.3392,-2.3259,-2.3021,-2.2721,-2.2695,-2.2537,-2.2338,-2.2282,-2.1907,-2.1411,-2.16,-2.1706,-2.1771,-2.2618,-2.3266,-2.3785,-2.3867,-2.3883,-2.3506,-2.3133,-2.2802,-2.2577,-2.2543,-2.2332,-2.2049,-2.1126,-2.0743,-2.0552,-1.9349,-1.8692,-1.8301,-1.7224,-1.6558,-1.6267,-1.5275,-1.4194,-1.2863,-1.0398,-0.7399,-0.442,0.0444,0.3724,0.5809,0.7964,0.9186,0.9142,0.8731,0.8669,0.9066,0.9442,0.9533,0.9006,0.8628,0.7678,0.6593,0.7572,0.8468,0.9087,1.0292,1.1603,1.2621,1.3316,1.4261,1.4635,1.4648,1.4243,1.3954,1.3954,1.3882,1.403,1.5096,1.6963,1.9127,2.1617,2.38,2.5484,2.6599,2.7419,2.8417,2.9491,3.0672,3.1322,3.26,3.3591,3.45,3.532,3.5582,3.5661,3.5905,3.6102,3.5894,3.5846,3.6275,3.6904,3.7799,3.8712,3.9443,4.0408,4.1223,4.2144,4.2958,4.3373,4.3712,4.374,4.3961,4.4647,4.5283,4.5914,4.655,4.7042,4.7659,4.835,4.8779,4.9183,-2.3477,-2.3732,-2.3414,-2.3093,-2.2797,-2.2746,-2.259,-2.2321,-2.2327,-2.2099,-2.1906,-2.2391,-2.2752,-2.3275,-2.409,-2.4879,-2.4896,-2.5029,-2.4464,-2.3867,-2.3368,-2.3255,-2.32,-2.2945,-2.2828,-2.2626,-2.2062,-2.144,-2.086,-2.0149,-1.9782,-1.9455,-1.9008,-1.9008,-1.8722,-1.8182,-1.7566,-1.6279,-1.3406,-1.0678,-0.7773,-0.3321,0.0389,0.268,0.5366,0.6569,0.6798,0.6828,0.7154,0.7692,0.8192,0.7847,0.7046,0.6929,0.6474,0.5947,0.64,0.6976,0.7102,0.9018,1.0199,1.0628,1.2247,1.3494,1.324,1.3097,1.315,1.3077,1.2732,1.2879,1.3528,1.4942,1.6295,1.7849,1.9315,2.1549,2.3895,2.5484,2.6271,2.6564,2.7999,2.9504,3.0655,3.132,3.1693,3.3457,3.4152,3.4455,3.4817,3.5256,3.5461,3.5604,3.5668,3.5782,3.6477,3.716,3.806,3.8912,4.0018,4.0967,4.1979,4.2675,4.3014,4.3303,4.3545,4.3612,4.3756,4.4374,4.4954,4.5357,4.5817,4.6638,4.743,4.7658,4.7989,-2.4016,-2.4094,-2.4034,-2.3631,-2.3141,-2.3093,-2.2781,-2.231,-2.2327,-2.2413,-2.2491,-2.2655,-2.3237,-2.4023,-2.4778,-2.5246,-2.5581,-2.5261,-2.4376,-2.3498,-2.3514,-2.3525,-2.3525,-2.3396,-2.3383,-2.3125,-2.2197,-2.165,-2.1237,-2.0466,-1.9813,-1.9863,-2.0131,-2.0557,-2.0766,-2.0181,-1.9991,-1.9113,-1.6074,-1.3184,-1.0627,-0.6548,-0.2998,-0.0723,0.2564,0.4757,0.5647,0.6318,0.6461,0.6145,0.6148,0.6214,0.5947,0.5885,0.569,0.569,0.6141,0.6654,0.6915,0.7772,0.8619,0.8865,0.961,0.9793,0.9999,1.1076,1.1434,1.1607,1.1922,1.2372,1.27,1.3873,1.4934,1.5968,1.7544,1.9439,2.1408,2.375,2.5322,2.6483,2.7351,2.8542,2.9907,3.0401,3.1137,3.2347,3.3051,3.344,3.3933,3.4472,3.4876,3.5175,3.5344,3.5458,3.6006,3.6814,3.7831,3.869,3.9749,4.0655,4.1621,4.2422,4.277,4.3124,4.3479,4.3497,4.3497,4.3584,4.4184,4.442,4.4699,4.5504,4.6206,4.6469,4.6914,-2.419,-2.419,-2.419,-2.3834,-2.3277,-2.3189,-2.2875,-2.2462,-2.2699,-2.2887,-2.3201,-2.3697,-2.4382,-2.488,-2.5514,-2.6034,-2.6033,-2.5395,-2.4569,-2.3925,-2.3743,-2.358,-2.3595,-2.3595,-2.3595,-2.3436,-2.2675,-2.2076,-2.1529,-2.083,-2.032,-2.0295,-2.0646,-2.1015,-2.152,-2.1113,-2.0481,-1.9635,-1.7343,-1.508,-1.3544,-0.9475,-0.5019,-0.2438,0.0726,0.285,0.4599,0.5134,0.5408,0.5422,0.5362,0.5428,0.5428,0.5428,0.5428,0.5491,0.5752,0.6071,0.6272,0.6941,0.7569,0.7618,0.8238,0.8643,0.9036,0.9892,1.0542,1.0938,1.162,1.2157,1.1713,1.225,1.3126,1.4185,1.5349,1.7178,1.955,2.206,2.4469,2.5779,2.6471,2.7419,2.8373,2.9289,3.0205,3.1287,3.2512,3.2961,3.3125,3.3679,3.4307,3.4651,3.4861,3.5183,3.5676,3.6585,3.7774,3.869,3.9577,4.0366,4.1178,4.1877,4.2559,4.2958,4.341,4.3479,4.3479,4.3513,4.3548,4.3841,4.4234,4.4655,4.5073,4.5565,4.6007,-2.4575,-2.4558,-2.4557,-2.42,-2.3684,-2.3496,-2.3222,-2.2937,-2.3185,-2.3498,-2.393,-2.5113,-2.5467,-2.5861,-2.6353,-2.6657,-2.6333,-2.5839,-2.5016,-2.4498,-2.3971,-2.3837,-2.3794,-2.3681,-2.3595,-2.3523,-2.2904,-2.2362,-2.1855,-2.1295,-2.093,-2.0979,-2.1077,-2.1403,-2.152,-2.1197,-2.0594,-1.957,-1.7739,-1.6291,-1.5547,-1.1584,-0.7149,-0.3033,-0.073,0.0998,0.28,0.3673,0.4215,0.5093,0.5156,0.5223,0.5362,0.5428,0.5428,0.5428,0.5491,0.5579,0.5695,0.6248,0.6749,0.6802,0.7642,0.8212,0.8453,0.917,0.9932,1.064,1.1242,1.1694,1.095,1.0953,1.1605,1.2497,1.3167,1.513,1.7888,2.0314,2.2658,2.4826,2.5557,2.6339,2.7512,2.8566,2.9366,3.0219,3.1499,3.2452,3.2647,3.2931,3.3574,3.4233,3.4487,3.5011,3.5548,3.6197,3.7451,3.8414,3.9332,4.0102,4.0792,4.1578,4.2284,4.2958,4.3321,4.3444,4.3479,4.3479,4.3513,4.3582,4.3749,4.4184,4.4458,4.4751,4.5167,-2.6206,-2.6199,-2.6211,-2.5962,-2.5505,-2.461,-2.4356,-2.4441,-2.3789,-2.4137,-2.5135,-2.5479,-2.5975,-2.6369,-2.6573,-2.6521,-2.6175,-2.5852,-2.554,-2.4989,-2.4511,-2.4266,-2.4116,-2.3837,-2.3638,-2.3465,-2.3039,-2.2665,-2.2352,-2.1895,-2.1615,-2.1663,-2.1974,-2.2114,-2.1805,-2.1459,-2.0667,-1.948,-1.7958,-1.6775,-1.5187,-1.2591,-0.9058,-0.4689,-0.2455,-0.0533,0.0801,0.2204,0.3345,0.4082,0.4013,0.4483,0.51,0.5372,0.5326,0.5466,0.5406,0.5454,0.5607,0.5721,0.6008,0.6103,0.6526,0.6697,0.7087,0.7897,0.8903,0.9744,1.0415,1.0938,1.0783,1.0035,0.9948,1.075,1.2227,1.3961,1.6082,1.8214,2.0236,2.235,2.37,2.5334,2.6531,2.7709,2.8771,2.9752,3.0908,3.1857,3.2347,3.2557,3.2901,3.3559,3.4158,3.4786,3.5449,3.6073,3.7006,3.7889,3.8799,3.9749,4.0508,4.134,4.2044,4.2465,4.3069,4.3444,4.3479,4.3479,4.3479,4.3513,4.3631,4.3712,4.4076,4.4428,4.4527,-2.6606,-2.6612,-2.6612,-2.6407,-2.6049,-2.5542,-2.5189,-2.5084,-2.4913,-2.5132,-2.5571,-2.5993,-2.6333,-2.6657,-2.6708,-2.6436,-2.6104,-2.6013,-2.5705,-2.5221,-2.4934,-2.4632,-2.4471,-2.4116,-2.3837,-2.3623,-2.3304,-2.2981,-2.2717,-2.24,-2.2225,-2.2193,-2.2253,-2.2146,-2.1899,-2.1094,-2.023,-1.9052,-1.7807,-1.6564,-1.5284,-1.2962,-0.9888,-0.6948,-0.4106,-0.1929,0.0,0.1137,0.2409,0.3086,0.3189,0.3994,0.4748,0.5089,0.5098,0.5517,0.5579,0.5606,0.5705,0.5762,0.5895,0.6,0.6095,0.6176,0.6388,0.7015,0.7927,0.8988,0.9523,0.982,0.9216,0.8761,0.881,0.9261,1.0729,1.2562,1.4412,1.6254,1.7886,1.9625,2.148,2.3352,2.5533,2.679,2.8101,2.9213,3.0315,3.1176,3.193,3.2198,3.2377,3.2976,3.3619,3.4203,3.4895,3.5613,3.6366,3.7308,3.8302,3.9249,4.0135,4.0932,4.1313,4.156,4.2289,4.3178,4.3479,4.3479,4.3479,4.3479,4.3495,4.3612,4.3849,4.4106,4.4098,-2.7083,-2.7076,-2.7105,-2.6922,-2.6667,-2.6416,-2.6104,-2.5827,-2.5993,-2.6004,-2.5946,-2.6387,-2.6657,-2.6708,-2.6657,-2.6505,-2.6156,-2.6156,-2.5944,-2.5635,-2.5411,-2.5105,-2.4657,-2.4389,-2.4116,-2.3638,-2.3551,-2.3374,-2.3052,-2.2892,-2.2891,-2.2815,-2.2317,-2.2086,-2.2086,-2.1094,-1.9699,-1.8365,-1.7577,-1.6585,-1.5284,-1.3314,-1.1069,-0.8535,-0.5921,-0.3379,-0.1331,0.0067,0.1212,0.2104,0.261,0.3255,0.448,0.4708,0.5195,0.6158,0.6053,0.5817,0.5871,0.5932,0.6013,0.6098,0.6193,0.6244,0.6412,0.6718,0.7326,0.8385,0.8917,0.8528,0.7838,0.7544,0.7466,0.7821,0.8909,1.0649,1.2492,1.4166,1.5286,1.7141,1.9219,2.1116,2.2959,2.5514,2.6799,2.8589,2.9695,3.0837,3.153,3.1661,3.1943,3.2482,3.3051,3.3559,3.4207,3.4893,3.5721,3.6656,3.7696,3.8728,3.963,4.0446,4.0716,4.107,4.1943,4.281,4.3105,4.3391,4.3356,4.3321,4.3339,4.3249,4.3139,4.3208,4.3259,-2.8718,-2.87,-2.8682,-2.8718,-2.8448,-2.7585,-2.7348,-2.7399,-2.6597,-2.6361,-2.6471,-2.6623,-2.6708,-2.6708,-2.6708,-2.6657,-2.6624,-2.6556,-2.647,-2.628,-2.6016,-2.5561,-2.5051,-2.4576,-2.4142,-2.3666,-2.3595,-2.358,-2.3465,-2.348,-2.3465,-2.3363,-2.3128,-2.2891,-2.1899,-2.1299,-2.018,-1.8317,-1.8213,-1.771,-1.6337,-1.4662,-1.2877,-1.0753,-0.7989,-0.518,-0.3153,-0.1554,-0.0068,0.1319,0.1881,0.2397,0.3233,0.5094,0.6947,0.7633,0.7241,0.5861,0.6053,0.604,0.6101,0.6179,0.6247,0.6257,0.6412,0.6872,0.7176,0.6567,0.7322,0.7383,0.6608,0.6395,0.6103,0.6427,0.7396,0.8912,1.0627,1.221,1.3316,1.3797,1.564,1.7812,1.9918,2.2833,2.5512,2.7367,2.908,3.0211,3.1161,3.1336,3.1526,3.2123,3.2422,3.2901,3.3365,3.4091,3.4911,3.5892,3.6901,3.8012,3.8801,3.9564,4.0429,4.0915,4.1715,4.2208,4.2426,4.2734,4.2995,4.2995,4.2828,4.2444,4.2103,4.2213,4.2549,-2.8975,-2.8975,-2.8975,-2.8975,-2.8938,-2.8438,-2.8113,-2.783,-2.7373,-2.6991,-2.6757,-2.6708,-2.6708,-2.6708,-2.6708,-2.6691,-2.6708,-2.6708,-2.6708,-2.6708,-2.6436,-2.5944,-2.5297,-2.491,-2.4471,-2.3752,-2.3626,-2.3881,-2.3911,-2.3776,-2.3595,-2.3611,-2.326,-2.262,-2.1924,-2.1259,-2.0202,-1.9195,-1.8883,-1.868,-1.777,-1.6447,-1.4744,-1.294,-0.9545,-0.6781,-0.4431,-0.2449,-0.0917,0.0358,0.0864,0.1593,0.3076,0.5015,0.7143,0.8944,0.8463,0.7663,0.7124,0.6529,0.635,0.623,0.6261,0.6261,0.6412,0.6641,0.6868,0.6412,0.6089,0.5841,0.5369,0.4836,0.4831,0.5206,0.6185,0.7465,0.8845,1.0181,1.1305,1.1618,1.211,1.4574,1.6916,1.942,2.2517,2.5512,2.7433,2.9053,3.0271,3.1204,3.1425,3.1794,3.2003,3.2198,3.2647,3.3186,3.3954,3.4855,3.5727,3.681,3.7663,3.8487,3.9413,4.0197,4.074,4.1216,4.1647,4.2062,4.2404,4.2324,4.2203,4.1895,4.1639,4.1853,4.219,-2.8975,-2.8975,-2.8975,-2.8975,-2.8975,-2.8975,-2.8633,-2.8047,-2.789,-2.75,-2.6971,-2.6758,-2.6708,-2.6708,-2.6708,-2.6708,-2.6708,-2.6708,-2.6708,-2.6708,-2.659,-2.6071,-2.5486,-2.5105,-2.4592,-2.3625,-2.3894,-2.4134,-2.4326,-2.4342,-2.4253,-2.4103,-2.3984,-2.327,-2.2512,-2.1918,-2.1181,-2.0598,-2.0358,-2.022,-1.9854,-1.8517,-1.6663,-1.4251,-1.1296,-0.8012,-0.538,-0.3391,-0.1956,-0.103,-0.0074,0.1114,0.3291,0.5179,0.7327,0.8974,0.9155,0.8934,0.8277,0.7604,0.6718,0.6338,0.6261,0.6261,0.6261,0.6261,0.6261,0.6261,0.5312,0.4763,0.4217,0.3591,0.3542,0.4207,0.5184,0.6298,0.75,0.8841,0.9712,0.9933,1.061,1.174,1.4035,1.6108,1.9219,2.3077,2.5648,2.7719,2.9378,3.0822,3.1322,3.1616,3.1676,3.1795,3.2078,3.2571,3.3285,3.39,3.4765,3.5474,3.6317,3.7426,3.8523,3.9175,3.9698,4.015,4.0521,4.1143,4.1768,4.1664,4.1534,4.1464,4.1375,4.1552,4.181,-2.8975,-2.8975,-2.8975,-2.8975,-2.8975,-2.8975,-2.8749,-2.8298,-2.802,-2.7648,-2.7181,-2.6873,-2.6708,-2.6708,-2.6708,-2.6708,-2.6708,-2.6708,-2.6708,-2.6708,-2.6624,-2.6137,-2.56,-2.5171,-2.4798,-2.4023,-2.4268,-2.455,-2.4752,-2.5265,-2.5314,-2.5418,-2.5025,-2.4861,-2.4267,-2.3326,-2.287,-2.2376,-2.2234,-2.2195,-2.1698,-2.0481,-1.8567,-1.6075,-1.2968,-0.9828,-0.717,-0.5156,-0.3538,-0.2556,-0.1132,0.0989,0.322,0.5245,0.7351,0.9352,0.9744,0.9739,0.9583,0.8461,0.7326,0.6641,0.6261,0.6257,0.6325,0.6257,0.6261,0.6103,0.4999,0.3902,0.3435,0.3049,0.2196,0.2671,0.3624,0.5053,0.6291,0.7703,0.8392,0.8453,0.9404,1.0844,1.1887,1.4199,1.7229,2.1128,2.4915,2.7077,2.9205,3.0644,3.1087,3.138,3.1511,3.1571,3.1601,3.2075,3.2553,3.3046,3.3737,3.4248,3.4809,3.6047,3.7313,3.7978,3.843,3.8933,3.9578,4.0474,4.1098,4.1041,4.092,4.0891,4.0891,4.1013,4.1358,-2.8975,-2.8975,-2.8975,-2.8975,-2.8975,-2.8975,-2.8773,-2.842,-2.8246,-2.7824,-2.7261,-2.6876,-2.6708,-2.6708,-2.6708,-2.6708,-2.6708,-2.6708,-2.6725,-2.6708,-2.6607,-2.6316,-2.594,-2.5687,-2.5487,-2.494,-2.5122,-2.5503,-2.5904,-2.6117,-2.6464,-2.6512,-2.6063,-2.525,-2.4687,-2.4572,-2.4279,-2.4205,-2.3861,-2.3665,-2.3215,-2.1476,-1.9449,-1.7217,-1.4432,-1.101,-0.7941,-0.6332,-0.4795,-0.3297,-0.1999,0.0232,0.2721,0.4809,0.7347,0.9728,0.989,1.0265,1.026,0.8988,0.7629,0.7249,0.6718,0.6328,0.6384,0.6321,0.6257,0.5786,0.4608,0.3355,0.2336,0.1092,0.0156,0.0781,0.2026,0.3659,0.5386,0.6935,0.8371,0.8989,0.9533,1.0508,1.1441,1.2551,1.5794,1.9242,2.3011,2.6409,2.8407,3.0133,3.051,3.0955,3.1087,3.1292,3.1395,3.1632,3.1885,3.2315,3.2836,3.3193,3.3671,3.4643,3.5823,3.6516,3.7441,3.8297,3.9143,4.0029,4.0443,4.0494,4.0431,4.0368,4.04,4.0577,4.1087,-2.8975,-2.8975,-2.8975,-2.8975,-2.8975,-2.8975,-2.8821,-2.859,-2.8446,-2.7993,-2.7283,-2.6911,-2.6708,-2.6708,-2.6708,-2.6708,-2.6793,-2.6928,-2.7029,-2.7012,-2.6905,-2.6718,-2.6486,-2.6078,-2.5644,-2.5652,-2.5871,-2.6158,-2.648,-2.6788,-2.7081,-2.7066,-2.6722,-2.6105,-2.578,-2.5494,-2.5562,-2.5507,-2.5287,-2.4781,-2.4399,-2.2214,-1.9824,-1.7646,-1.4915,-1.188,-0.902,-0.7239,-0.5956,-0.4431,-0.296,-0.1325,0.1243,0.3874,0.6641,0.8491,0.9879,1.034,0.989,0.9291,0.8084,0.7633,0.7706,0.6996,0.6524,0.6311,0.618,0.5389,0.3982,0.2574,0.14,0.0156,-0.0704,0.0,0.1794,0.3505,0.5357,0.7022,0.8475,0.9661,1.0406,1.1329,1.2195,1.3333,1.5619,1.881,2.1998,2.5184,2.7314,2.8821,2.9752,3.0194,3.051,3.0837,3.1117,3.1411,3.1632,3.1779,3.2135,3.221,3.2715,3.3725,3.4421,3.5078,3.6201,3.7599,3.8405,3.8853,3.951,4.0103,4.0137,4.0237,4.0286,4.0546,4.1105,-2.8975,-2.8975,-2.8975,-2.8975,-2.8975,-2.8975,-2.8975,-2.8863,-2.8515,-2.7993,-2.7363,-2.6893,-2.6708,-2.6708,-2.6708,-2.6708,-2.6893,-2.7366,-2.7618,-2.7456,-2.7324,-2.7189,-2.6821,-2.6354,-2.6043,-2.5839,-2.6236,-2.6668,-2.6701,-2.716,-2.7485,-2.758,-2.7305,-2.723,-2.7455,-2.7449,-2.7122,-2.6549,-2.6336,-2.5728,-2.4684,-2.2602,-2.0134,-1.7705,-1.5286,-1.2396,-0.9562,-0.8223,-0.7,-0.5702,-0.3982,-0.2495,-0.0855,0.2556,0.5029,0.6663,0.8438,0.9216,0.9226,0.9226,0.8841,0.8237,0.8313,0.821,0.6977,0.6381,0.6015,0.5378,0.3509,0.1947,0.078,-0.0234,-0.0939,-0.0469,0.1325,0.3653,0.5502,0.7435,0.8974,1.0593,1.1847,1.2893,1.3518,1.4508,1.6226,1.868,2.1424,2.387,2.6145,2.7499,2.8566,2.9317,2.9752,3.0329,3.0644,3.1146,3.138,3.1482,3.1556,3.1764,3.2201,3.3203,3.3699,3.3944,3.5278,3.7053,3.7352,3.7501,3.8403,3.9376,4.0068,4.0286,4.0336,4.0642,4.1286,-2.8975,-2.8975,-2.8975,-2.8975,-2.8975,-2.8975,-2.8975,-2.8863,-2.836,-2.7904,-2.7609,-2.7021,-2.6708,-2.6708,-2.6725,-2.6756,-2.6942,-2.7431,-2.7748,-2.7467,-2.7617,-2.7531,-2.7249,-2.6976,-2.6718,-2.6924,-2.7215,-2.7265,-2.7294,-2.758,-2.7595,-2.756,-2.756,-2.756,-2.7545,-2.7509,-2.7255,-2.6496,-2.6,-2.5329,-2.4483,-2.2323,-1.9997,-1.7801,-1.567,-1.3006,-0.9734,-0.8912,-0.7936,-0.6409,-0.4686,-0.3431,-0.1944,0.1239,0.3645,0.5665,0.7681,0.8237,0.8765,0.914,0.9814,0.9291,0.914,0.9427,0.911,0.8138,0.7065,0.4969,0.2486,0.0699,-0.0778,-0.1717,-0.2109,-0.1091,0.0854,0.3791,0.6026,0.7969,0.97,1.1399,1.2759,1.3033,1.3614,1.4267,1.583,1.7518,1.9995,2.2676,2.5039,2.6221,2.73,2.8206,2.8876,2.9566,3.0194,3.0584,3.1087,3.1278,3.1409,3.1526,3.219,3.2841,3.3278,3.3666,3.5094,3.6487,3.6781,3.711,3.7826,3.8614,3.9464,4.0237,4.0453,4.0954,4.1725,-2.8975,-2.8975,-2.8975,-2.8975,-2.8975,-2.8975,-2.8929,-2.87,-2.8156,-2.7844,-2.7572,-2.7,-2.6708,-2.6708,-2.677,-2.6811,-2.6989,-2.7886,-2.8227,-2.7897,-2.8037,-2.8196,-2.8021,-2.7473,-2.7152,-2.7495,-2.781,-2.7894,-2.7898,-2.7879,-2.7795,-2.766,-2.756,-2.756,-2.756,-2.7509,-2.7255,-2.6496,-2.5837,-2.5119,-2.4008,-2.2225,-2.0233,-1.8384,-1.6276,-1.3784,-1.0891,-0.921,-0.8389,-0.663,-0.5234,-0.4215,-0.2568,-0.0388,0.2096,0.4267,0.6381,0.7161,0.8161,0.9216,0.9739,0.9895,1.0045,1.0415,1.0789,1.011,0.796,0.5407,0.1548,-0.0543,-0.2024,-0.2968,-0.2184,-0.109,0.1316,0.4325,0.6714,0.8661,1.0304,1.2024,1.2746,1.3066,1.342,1.4173,1.513,1.6822,1.8567,2.1253,2.3868,2.5063,2.6258,2.7245,2.7934,2.862,2.9303,3.0011,3.045,3.0955,3.1219,3.1351,3.1811,3.2394,3.2873,3.3495,3.4692,3.5708,3.632,3.6857,3.733,3.8116,3.9088,3.9811,4.0383,4.127,4.2119,-2.8975,-2.8975,-2.8975,-2.8975,-2.8975,-2.8952,-2.8749,-2.8368,-2.802,-2.7664,-2.7296,-2.6865,-2.6708,-2.679,-2.6862,-2.6938,-2.7228,-2.8451,-2.8657,-2.8744,-2.841,-2.8637,-2.8325,-2.7559,-2.7353,-2.7694,-2.7944,-2.8091,-2.8367,-2.8189,-2.7894,-2.7595,-2.7509,-2.7458,-2.7458,-2.7458,-2.7034,-2.6322,-2.5728,-2.4894,-2.3787,-2.2592,-2.0756,-1.8934,-1.703,-1.4159,-1.1519,-0.9648,-0.8232,-0.6707,-0.5392,-0.4999,-0.3744,-0.1715,0.0,0.2262,0.4865,0.6349,0.7626,0.8789,0.9758,1.0318,1.1477,1.1502,1.1236,1.1007,0.8995,0.4849,0.0465,-0.1399,-0.3124,-0.2421,-0.1796,0.0155,0.24,0.4939,0.7403,0.9341,1.0887,1.1996,1.2503,1.2866,1.328,1.3892,1.4901,1.6191,1.7937,2.0014,2.2392,2.4181,2.538,2.662,2.7229,2.7604,2.8363,2.9115,2.9936,3.051,3.097,3.1219,3.161,3.2048,3.268,3.3339,3.4087,3.4918,3.5799,3.6315,3.662,3.749,3.8374,3.9573,4.0263,4.1551,4.2445,-2.8975,-2.8975,-2.8975,-2.8975,-2.8952,-2.8682,-2.8368,-2.802,-2.7648,-2.7402,-2.7261,-2.6512,-2.6673,-2.7406,-2.6742,-2.708,-2.7698,-2.826,-2.8178,-2.8232,-2.8403,-2.8294,-2.8021,-2.7633,-2.7475,-2.7585,-2.781,-2.7993,-2.7894,-2.7894,-2.758,-2.693,-2.7306,-2.7203,-2.7203,-2.7306,-2.6669,-2.6096,-2.5619,-2.4738,-2.3649,-2.2469,-2.0939,-1.9346,-1.7513,-1.4553,-1.1771,-0.9879,-0.8313,-0.6637,-0.6099,-0.5789,-0.564,-0.3557,-0.1435,0.2437,0.4373,0.5636,0.698,0.8471,0.9642,1.0467,1.1621,1.1709,1.1471,1.0795,0.9376,0.4382,-0.0465,-0.2884,-0.3292,-0.2591,-0.1175,0.1093,0.3346,0.5665,0.7986,0.9718,1.1204,1.2192,1.2694,1.3088,1.3393,1.3947,1.4977,1.5951,1.7374,1.9312,2.1242,2.3091,2.4838,2.6151,2.6726,2.7162,2.7537,2.8233,2.9178,2.995,3.0464,3.1029,3.1509,3.2007,3.2516,3.3182,3.3937,3.4704,3.552,3.5881,3.6197,3.6556,3.7413,3.8846,4.024,4.1409,4.2359,-2.8975,-2.8975,-2.8975,-2.8839,-2.8533,-2.8308,-2.7918,-2.7487,-2.7317,-2.7243,-2.7026,-2.6602,-2.6756,-2.7227,-2.6968,-2.7158,-2.7832,-2.8271,-2.8311,-2.8325,-2.8286,-2.8271,-2.8042,-2.771,-2.7595,-2.761,-2.781,-2.8091,-2.7894,-2.7845,-2.758,-2.6616,-2.7049,-2.6826,-2.6774,-2.6855,-2.663,-2.6076,-2.5478,-2.4603,-2.3501,-2.2392,-2.1243,-1.9843,-1.7852,-1.4999,-1.2244,-1.0622,-0.8475,-0.7026,-0.6718,-0.6298,-0.6031,-0.4435,-0.2203,0.1322,0.321,0.4846,0.643,0.7965,0.9269,1.0306,1.1192,1.1077,1.1023,1.0526,0.7387,0.3335,-0.1009,-0.4229,-0.362,-0.2685,-0.0393,0.1886,0.4151,0.6416,0.8237,1.004,1.1283,1.2441,1.307,1.3454,1.389,1.442,1.4894,1.5786,1.6993,1.8638,2.0641,2.2648,2.4529,2.6151,2.6508,2.6714,2.7095,2.7537,2.8427,2.938,3.0147,3.0703,3.1321,3.1796,3.216,3.2933,3.3786,3.4496,3.5144,3.5515,3.5819,3.6207,3.6628,3.7819,3.9288,4.0727,4.1626,-2.8975,-2.8975,-2.8975,-2.8583,-2.7954,-2.7926,-2.747,-2.6808,-2.7186,-2.7103,-2.6808,-2.6792,-2.6869,-2.7232,-2.7224,-2.7408,-2.7891,-2.8264,-2.8341,-2.8431,-2.8222,-2.8189,-2.8042,-2.791,-2.761,-2.781,-2.7944,-2.8042,-2.8271,-2.7963,-2.7261,-2.6443,-2.639,-2.6286,-2.6212,-2.6443,-2.637,-2.6109,-2.5854,-2.5253,-2.3626,-2.2615,-2.1912,-2.0717,-1.8576,-1.6046,-1.3844,-1.1489,-0.8885,-0.7893,-0.7013,-0.6469,-0.5869,-0.5199,-0.2916,-0.067,0.1425,0.361,0.5452,0.7137,0.9136,1.0075,1.0476,1.0573,1.0536,1.0293,0.7309,0.1178,-0.3799,-0.5419,-0.5124,-0.2816,-0.0322,0.2402,0.4944,0.7055,0.8798,1.0231,1.1232,1.2467,1.3772,1.4173,1.4808,1.5338,1.5538,1.6034,1.7074,1.8585,2.0014,2.2018,2.399,2.5918,2.6371,2.6521,2.6714,2.7162,2.7868,2.8684,2.958,3.0329,3.0896,3.1379,3.1796,3.2571,3.3391,3.4087,3.4688,3.5052,3.5407,3.5773,3.6285,3.6963,3.8203,3.9626,4.0808,-2.8975,-2.8975,-2.8975,-2.8576,-2.7954,-2.7897,-2.7457,-2.6775,-2.742,-2.7335,-2.6759,-2.6605,-2.6983,-2.7714,-2.7566,-2.7704,-2.8201,-2.8309,-2.8174,-2.8008,-2.791,-2.7944,-2.786,-2.771,-2.756,-2.7625,-2.776,-2.7795,-2.7695,-2.7261,-2.6625,-2.5811,-2.5688,-2.5688,-2.566,-2.5974,-2.6191,-2.6143,-2.6216,-2.5348,-2.3506,-2.2959,-2.2398,-2.0711,-1.8543,-1.6667,-1.4357,-1.1733,-0.9577,-0.8194,-0.7112,-0.675,-0.6726,-0.6304,-0.4984,-0.2948,-0.0774,0.1459,0.3688,0.5608,0.7613,0.9415,1.005,1.0312,1.0289,0.9867,0.6138,-0.1042,-0.5497,-0.6502,-0.5872,-0.303,0.0082,0.3019,0.5758,0.7541,0.9374,1.0242,1.1123,1.2556,1.407,1.5081,1.5725,1.6126,1.6246,1.6927,1.798,1.907,1.983,2.1408,2.3301,2.5098,2.6164,2.6452,2.6589,2.6782,2.7417,2.8117,2.8939,2.969,3.051,3.1131,3.1754,3.2272,3.2949,3.3531,3.4137,3.4624,3.4988,3.5374,3.5915,3.654,3.6853,3.7955,3.9409,-2.8975,-2.8975,-2.8975,-2.8576,-2.8035,-2.8251,-2.7914,-2.742,-2.801,-2.8112,-2.769,-2.74,-2.7557,-2.8189,-2.8015,-2.8045,-2.8481,-2.8511,-2.8383,-2.8091,-2.776,-2.761,-2.761,-2.761,-2.756,-2.7575,-2.7196,-2.7041,-2.7093,-2.6418,-2.5729,-2.5333,-2.527,-2.5338,-2.538,-2.5908,-2.6149,-2.6261,-2.6654,-2.5464,-2.3559,-2.2983,-2.2372,-2.0617,-1.9001,-1.7165,-1.5389,-1.2936,-1.0811,-0.9285,-0.8102,-0.8201,-0.8412,-0.8564,-0.7339,-0.5441,-0.3414,-0.1398,0.0961,0.3216,0.524,0.6771,0.6827,0.601,0.5515,0.4371,-0.0824,-0.7428,-0.9702,-1.0865,-0.635,-0.3101,0.1088,0.4594,0.6423,0.8125,0.9072,0.9682,1.0871,1.2263,1.3984,1.5715,1.6395,1.7384,1.7354,1.6854,1.8013,1.8662,1.9601,2.0742,2.2652,2.4234,2.5281,2.6227,2.6521,2.6645,2.6973,2.767,2.8258,2.9566,3.0644,3.1161,3.1697,3.2064,3.2437,3.2895,3.3443,3.4037,3.4528,3.4925,3.5493,3.6131,3.6374,3.6603,3.7795,-2.8975,-2.8975,-2.9104,-2.8648,-2.8113,-2.8806,-2.861,-2.8013,-2.8738,-2.913,-2.9064,-2.868,-2.8527,-2.8491,-2.8668,-2.8638,-2.8716,-2.8996,-2.8826,-2.8496,-2.8174,-2.8042,-2.791,-2.776,-2.771,-2.7423,-2.6951,-2.6828,-2.6794,-2.5994,-2.5382,-2.5196,-2.5179,-2.5288,-2.573,-2.589,-2.6061,-2.6284,-2.6222,-2.5347,-2.4012,-2.2811,-2.1994,-2.0839,-1.9563,-1.8184,-1.6715,-1.4749,-1.2357,-1.1075,-0.981,-0.9676,-0.9945,-1.0223,-0.9397,-0.7755,-0.634,-0.4483,-0.2552,-0.0264,0.1488,0.2546,0.168,0.1233,0.1044,-0.1808,-0.6936,-1.0238,-1.2535,-1.1372,-0.6837,-0.2561,0.1705,0.5529,0.7112,0.8371,0.8871,0.9276,1.0524,1.1948,1.4082,1.5986,1.7157,1.8177,1.8144,1.757,1.7622,1.8106,1.8859,2.0262,2.1883,2.329,2.4408,2.5245,2.609,2.6375,2.6489,2.6982,2.7759,2.9406,3.0645,3.0924,3.1243,3.1582,3.2007,3.2391,3.2864,3.3427,3.3987,3.4528,3.5018,3.5537,3.6011,3.6249,3.6522,-2.8975,-2.903,-2.9714,-2.9217,-2.8284,-2.9384,-2.9132,-2.8182,-2.9313,-2.9895,-2.9918,-2.9909,-2.965,-2.9102,-2.9697,-2.9747,-2.9284,-2.9556,-2.9496,-2.9225,-2.8904,-2.8685,-2.8398,-2.8217,-2.7959,-2.7503,-2.7015,-2.6841,-2.6679,-2.5813,-2.5435,-2.5722,-2.5128,-2.5269,-2.5715,-2.5894,-2.6125,-2.64,-2.5871,-2.4909,-2.3868,-2.2774,-2.1845,-2.0738,-1.9556,-1.8997,-1.7817,-1.5479,-1.3988,-1.2908,-1.1993,-1.1304,-1.1245,-1.1503,-1.0924,-0.9971,-0.8632,-0.7476,-0.5531,-0.3694,-0.1925,-0.0174,-0.0875,-0.1486,-0.1994,-0.2938,-0.7339,-1.0544,-1.1714,-1.0128,-0.6257,-0.244,0.1656,0.5167,0.7567,0.8281,0.8867,0.9189,0.9932,1.2149,1.4524,1.6188,1.7593,1.8275,1.8583,1.8284,1.8377,1.877,1.8331,1.977,2.1137,2.228,2.343,2.4597,2.5503,2.5724,2.5911,2.6396,2.7144,2.8567,2.9662,3.0437,3.0798,3.1001,3.1414,3.183,3.2384,3.2792,3.3479,3.4021,3.4479,3.4955,3.5464,3.5898,3.6165]}]]